ECMWFFLT1_con_mucape_003.txt.gz
CAPE
1200 1239 1282 1511 1521 1461 1461 1692 1714 1784 2054 2196 2297 2312 2467 2666 2788 3046 3048 3190 3310 3381 3578 3575 3466 3420 3524 3571 3639 3957 3883 3911 3764 3634 3283 3106 2801 2462 2225 1843 1756 1793 1596 1323 1142 1251 1116 1338 1492 1048 1064 1014 541 552 532 427 481 316 398 699 706 661 464
1036 1119 1227 1484 1536 1587 1662 1796 1869 1856 2003 2101 2199 2354 2349 2658 2930 2951 3011 3221 3386 3458 3592 3558 3446 3402 3467 3633 3716 3739 3912 3901 3743 3443 3224 3031 2630 2392 2115 1798 1620 1642 1592 1322 1476 1399 1489 1398 1274 1229 1032 1218 634 620 466 704 680 644 259 887 776 835 828
809 952 1105 1290 1458 1622 1849 1843 1950 1923 2014 2018 2076 2254 2426 2772 2958 3000 3086 3207 3428 3542 3614 3636 3531 3434 3396 3612 3692 3780 3717 3675 3478 3245 3014 2719 2332 1968 1944 1870 1611 1489 1328 1409 1484 1380 1274 1309 1453 1295 1047 1050 566 776 666 552 777 649 562 901 751 393 710
922 930 1065 1306 1551 1784 1926 1886 1908 1882 1930 1969 2062 2218 2527 2954 3022 3073 3202 3179 3307 3477 3605 3542 3497 3380 3409 3445 3572 3576 3464 3289 3113 2882 2692 2452 2196 1931 2027 1961 1557 1353 1410 1312 1178 1221 1082 1236 1262 1369 1317 1116 966 697 592 407 344 512 308 480 562 448 799
937 984 1054 1266 1433 1777 1818 1844 1911 1966 1829 1885 2102 2452 2766 2976 2971 2956 3138 3154 3049 3294 3416 3538 3340 3298 3246 3306 3415 3488 3212 2914 2561 2421 2382 2216 2075 2042 2165 1964 1314 1098 1200 1223 1236 1171 1179 1164 1184 1260 1237 1118 906 928 920 818 635 796 294 457 349 368 235
798 1017 1166 1238 1204 1382 1596 1754 1830 1880 1869 1862 2078 2436 2577 2633 2598 2595 2814 3078 3156 3134 3478 3493 3439 3343 3144 3016 3088 3124 3006 2649 2200 2010 2105 1985 2064 2278 2406 1878 1100 1011 1092 1242 1022 936 1153 1137 1160 1161 964 788 520 500 477 739 416 359 266 644 546 104 21
600 927 1184 1235 1304 1419 1546 1674 1714 1803 1942 1965 2082 2372 2352 2312 2427 2532 2578 2856 2968 3226 3294 3362 3365 3286 3203 3054 3024 2930 2691 2290 1930 1903 1849 1901 2149 2419 2450 1851 1034 985 978 1146 946 898 1045 1166 1124 1164 1055 766 675 521 542 597 258 479 650 895 803 908 638
668 864 1277 1451 1389 1460 1521 1658 1776 1863 1998 2113 2154 2316 2285 2296 2440 2526 2624 2700 2910 2878 3058 2942 3191 3412 3251 3253 3054 2754 2445 2181 1781 1817 1836 1961 2146 2392 2316 1267 1260 1009 1005 840 884 806 658 864 859 946 947 828 916 895 743 660 682 452 626 618 659 558 594
535 958 1106 1246 1508 1541 1654 1904 2054 2124 2346 2470 2491 2562 2403 2412 2479 2602 2714 2815 2918 2925 2995 2945 3058 3289 3394 3298 3035 2768 2228 1668 1594 1633 1654 1824 2027 2208 2013 1176 1290 888 663 538 386 559 644 765 682 871 941 821 938 1064 958 1019 856 773 818 757 638 287 150
546 976 1242 1166 1385 1580 1927 2251 2424 2588 2870 3020 2955 2887 2768 2741 2777 2714 2787 2878 2920 2956 3019 3040 2986 3146 3308 3168 2874 2432 1606 1441 1476 1474 1493 1587 1766 1913 1968 1445 782 740 138 139 193 184 296 366 539 668 833 868 1038 1088 1032 1006 922 921 906 845 748 654 499
687 1036 1354 1336 1598 1973 2406 2394 2682 3066 3041 3193 3217 3044 3113 3037 2984 2845 2867 2866 2873 2960 3021 3120 3100 3032 3101 2954 2445 1706 1403 1262 1260 1195 1269 1372 1562 1831 1878 1734 1054 682 311 8 8 24 42 286 310 468 641 704 912 1002 1004 990 1094 1116 940 880 959 1014 731
937 948 1257 1429 1759 2049 2172 2565 3081 3308 3335 3422 3309 3096 3308 3350 3173 3018 3022 3008 2887 2944 3054 3058 3128 3052 2995 2874 2339 1763 1496 1353 1300 788 710 1375 1457 1750 1810 1713 1522 654 12 4 16 11 14 113 322 409 589 743 954 1082 1192 1242 1272 1086 915 751 919 984 932
804 937 1172 1153 1664 1864 2462 2846 2969 3190 3336 3331 3216 3319 3438 3338 3189 3122 3280 3277 3025 2960 3050 3190 3182 3224 2935 2749 2204 1944 1692 1571 1376 790 428 377 924 1453 1608 1599 1215 612 14 3 1 14 40 103 178 357 522 702 904 1062 1344 1342 1167 1164 1155 1180 1174 1083 988
806 756 802 1308 1576 1837 2070 2473 2974 3261 3448 3368 3393 3565 3470 3359 3344 3378 3460 3429 3243 3116 3114 3227 3367 3299 3099 2767 2218 2071 1918 1702 1312 758 746 432 442 1292 1584 1448 1262 1015 25 27 40 38 47 85 106 302 496 592 786 972 1017 1144 1097 1132 1220 1272 1238 1174 1178
616 604 782 918 1378 1792 2103 2478 2818 3036 3195 3363 3438 3528 3509 3483 3489 3526 3600 3426 3444 3242 3251 3315 3418 3334 3127 2849 2384 2246 2147 1990 1718 1116 769 454 546 501 1368 1623 1457 598 47 24 36 50 98 141 185 437 531 596 642 768 874 948 1015 1092 1154 1181 1263 1292 1209
845 800 696 874 1258 1435 1879 2190 2608 2932 3161 3358 3346 3508 3490 3604 3697 3614 3545 3426 3384 3528 3360 3408 3529 3497 3226 2976 2563 2361 2263 2143 1914 1508 1097 883 580 619 649 450 509 24 1 47 80 156 217 209 261 382 500 606 643 683 902 937 950 816 370 495 1131 1362 1231
1052 973 830 1014 1414 1427 1626 1925 2233 2687 2942 3119 3277 3458 3568 3664 3768 3673 3427 3368 3376 3459 3440 3424 3645 3532 3359 2925 2485 2423 2347 2222 2026 1774 1544 1316 1136 942 746 588 448 278 43 60 114 261 348 442 488 460 470 524 666 678 714 728 768 397 284 248 176 588 1152
1369 1307 1128 1239 1519 1325 1432 1674 2032 2321 2622 2851 3137 3442 3558 3786 3765 3779 3588 3436 3374 3299 3333 3397 3405 3356 3386 2958 2583 2496 2418 2316 2158 2041 1860 1700 1398 770 337 274 238 315 594 484 130 172 322 447 468 582 646 632 579 605 662 696 480 347 327 244 160 100 471
1542 1588 1458 1749 1686 1403 1293 1366 1654 2148 2226 2428 2727 3088 3323 3667 3555 3685 3740 3600 3452 3286 3170 3149 3134 3302 3201 2939 2594 2493 2380 2265 2157 2035 1956 1804 1344 1152 890 741 704 725 828 458 92 106 156 334 416 509 516 484 478 422 404 398 340 421 448 310 190 133 112
1118 1064 1072 1196 1286 1263 1473 1520 1495 1727 1936 2322 2489 2558 2773 2976 3208 3413 3352 3316 3419 3286 3199 3167 3103 3264 2940 2608 2542 2456 2324 2204 2160 2130 1838 1296 988 1011 912 830 796 800 773 700 402 289 281 229 396 512 525 448 522 494 342 357 336 419 520 490 329 203 116
726 733 934 1115 1212 996 1060 1347 1694 1719 1578 1409 1600 2117 2372 2584 2789 3069 3106 3216 3231 3256 3328 3201 3226 2959 2583 2555 2542 2478 2388 2263 2165 2137 2017 2052 1620 1280 1482 1232 884 764 677 592 576 526 396 384 455 617 658 748 688 504 385 468 660 691 630 478 347 292 281
676 587 787 1147 1517 1316 1503 986 997 1029 1394 1403 1787 1959 1899 2246 2339 2573 2731 2861 3088 3141 3194 3222 3048 2500 2505 2528 2514 2462 2350 2266 2142 1982 1924 1867 1676 1359 982 717 484 524 584 562 600 543 456 525 453 430 344 725 663 473 472 432 288 314 372 408 406 422 401
478 751 1180 1570 1226 1373 1481 1197 1499 1404 1984 1543 1524 1806 1776 2010 2205 2429 2616 2668 2887 3081 3098 3055 2659 2342 2374 2370 2352 2323 2252 2106 2026 1974 1901 1846 1834 1362 470 155 217 259 328 352 407 438 293 356 251 124 139 372 516 509 470 440 306 293 365 385 300 259 308
303 622 843 898 1539 1664 1824 1693 1749 1807 1500 1728 1601 1734 1926 2022 2507 2900 2863 2815 2811 2760 2851 2682 2398 2162 2172 2179 2160 2150 2138 2108 2040 1920 1850 1758 1566 653 63 61 67 96 178 79 111 44 82 103 208 100 281 372 506 589 746 691 553 301 306 304 248 138 406
438 653 889 983 1071 1328 1650 1942 1816 1776 2040 1831 1815 1900 2333 2574 2823 2991 2987 2808 2650 2611 2578 2514 2180 1962 1968 1953 1939 1948 1929 1904 1842 1798 1724 1494 691 126 6 11 17 21 4 0 0 12 18 47 50 306 461 387 597 414 544 740 429 200 238 272 187 50 830
1247 1177 1110 1006 1304 1752 2072 2193 2176 2028 2757 3455 2799 2172 2635 2862 3043 3074 2985 2681 2476 2285 2266 2210 1956 1780 1742 1744 1720 1698 1688 1647 1628 1501 1252 737 397 237 132 2 0 0 0 0 0 0 0 0 71 570 601 485 692 312 276 462 526 249 34 35 12 0 165
1806 1751 1459 1440 1792 1987 2242 2450 3065 3299 3035 2680 2309 2136 2486 2767 2888 2928 2628 2383 2357 2239 2006 1814 1657 1610 1602 1583 1574 1503 1463 1400 1233 1020 665 382 258 52 150 0 0 0 0 0 0 11 221 396 784 960 967 652 635 325 143 133 207 178 0 0 0 0 16
1600 1599 1619 1729 1798 1879 1994 2025 2390 2397 2314 2379 2332 2335 2456 2896 3044 2618 2263 2246 2367 2084 1520 1460 1498 1458 1435 1410 1349 1290 1219 1065 848 627 403 214 30 301 378 146 0 5 0 0 170 497 576 858 990 1031 1188 978 852 545 364 206 152 739 41 37 0 0 0
1986 1939 1946 2098 2160 2147 2327 2928 3188 3229 2718 2211 2120 2102 2336 2691 2749 2337 2171 2326 2022 1488 1342 1378 1340 1293 1223 1170 1094 1018 929 798 589 425 196 116 158 372 378 143 84 213 316 564 688 732 830 1000 1108 1123 942 763 725 716 525 384 289 12 87 60 15 0 0
1752 1850 1718 1675 1974 2309 2433 2838 2979 2636 2110 1786 1755 2056 2224 2933 2633 2302 2356 2253 1498 1300 1232 1146 1123 1060 1054 973 891 809 727 556 404 338 268 327 410 418 475 396 429 524 862 856 774 782 747 950 1139 966 692 406 259 239 191 135 262 50 0 53 23 0 0
1804 1386 1186 2013 1698 2244 2494 2783 2319 1836 1564 1445 1610 1846 2349 2988 2634 2194 2470 1766 1336 1260 1220 1091 929 911 876 844 766 678 547 498 456 518 343 363 234 236 370 441 480 628 753 854 800 680 613 503 532 646 745 784 580 352 288 198 128 60 55 30 0 0 0
1194 1296 1456 1734 1982 1927 2016 1905 1792 1610 1305 1126 1247 1500 2093 2744 2763 2433 2330 1382 1284 1285 1192 1004 865 830 790 744 670 605 474 627 575 596 417 192 156 217 306 406 500 553 533 434 372 473 525 766 592 508 416 491 639 868 516 196 130 63 11 0 0 0 0
1217 1348 1582 1580 1602 1682 1750 1766 1660 1610 1374 1332 1192 1411 1543 1964 2204 2220 1316 1086 1090 1037 1008 926 848 819 836 858 810 631 583 599 568 428 284 249 114 73 106 150 261 451 710 505 358 440 401 340 440 583 867 1112 1003 716 474 253 181 128 53 13 0 0 0
1122 1199 1168 1279 1248 1375 1798 2197 2079 2021 2036 1861 1347 1392 1352 1308 1273 1233 1077 988 902 908 928 962 984 1023 1044 960 904 808 738 702 505 362 276 194 22 220 165 297 264 146 230 321 401 574 592 489 774 941 844 830 804 740 563 335 238 204 149 32 3 4 0
1004 1026 1226 1416 1128 1381 1826 1959 2109 2191 2138 1708 1343 1448 1500 1414 1252 1196 1191 1146 1116 1123 1136 1137 1007 890 888 805 749 705 763 676 572 278 178 29 109 31 0 0 0 27 326 21 17 235 672 1084 986 840 735 761 852 845 808 610 450 326 77 72 0 9 12
1232 1246 1223 1122 1260 1377 1500 1566 1863 2086 1986 1563 1378 1528 1578 1372 1305 1261 1217 1207 1191 1198 1180 1032 785 793 690 633 620 599 598 538 550 565 334 299 493 9 0 0 0 0 0 0 0 0 0 0 497 285 442 348 764 816 707 718 601 81 0 0 0 0 0
941 962 915 896 1354 1553 1512 1397 1532 1766 1788 1465 1383 1527 1460 1406 1265 1194 1136 1125 1122 1050 958 890 800 695 610 591 616 570 580 497 518 478 502 276 89 0 0 0 0 0 0 0 0 0 0 0 0 0 2 552 374 1 0 0 0 0 0 0 0 0 0
789 780 762 757 898 1155 1432 1433 1531 1742 1663 1264 1202 1271 1272 1242 1186 1134 1063 994 923 832 866 849 816 770 700 654 704 486 517 371 238 168 62 14 0 0 0 0 0 0 0 0 0 0 0 0 0 0 0 0 167 2 0 0 0 0 0 0 0 0 0

ECMWFFLT1_con_mucape_006.txt.gz
CAPE
2133 2191 2000 2136 2208 2192 2102 2218 2464 2489 2620 3054 3462 3464 3317 3557 3474 3460 3860 4254 4516 4704 5156 5437 5239 4936 4861 4675 4611 4446 4266 3964 3906 3648 3359 3097 3028 3028 2964 2755 2765 2907 2443 2369 2104 1693 1674 1394 1128 948 799 687 428 450 380 130 74 30 32 54 56 78 124
1936 2073 2071 2097 2235 2300 2290 2456 2626 2615 2705 2844 3175 3478 3296 3483 3845 3685 3998 4308 4633 4726 4962 5364 5400 5271 5118 4998 4839 4728 4508 4210 4060 3900 3583 3309 3256 3322 3213 3173 2898 2930 2811 2485 2077 1714 1618 1326 1129 1100 681 536 383 521 292 220 96 46 14 35 20 104 234
1848 1844 2106 2149 2190 2298 2516 2590 2759 2696 2702 2740 2918 3106 3233 3656 3970 3892 3973 4285 4690 4842 4884 5243 5354 5218 5079 5070 4881 4726 4432 4102 4236 4223 3915 3406 3532 3233 3239 3106 2900 2763 2742 2493 2104 1852 1730 1547 1287 955 636 444 318 434 366 272 155 79 27 64 86 86 248
1805 1852 1967 2301 2362 2505 2676 2728 2774 2660 2535 2624 2802 2905 3374 3718 3925 4105 4206 4334 4624 4938 4820 5088 5252 5104 5086 5072 4976 4876 4666 4509 4483 4388 4000 3469 3557 3383 3106 3196 3061 2826 2770 2514 2142 1944 1737 1419 1146 876 591 471 432 357 369 240 164 95 51 86 126 86 144
1504 1763 1851 2163 2425 2632 2746 2787 2880 2836 2545 2420 2768 3293 3437 3662 4007 4056 4136 4165 4152 4652 4741 4878 4856 4983 4952 4909 4894 4885 4895 4707 4495 4438 4025 3553 3562 3425 3129 2914 3104 2818 2724 2670 2374 2125 1719 1286 1128 776 704 608 588 541 458 283 128 172 121 67 73 38 103
1416 1700 1807 1996 2218 2653 2847 2760 2639 2612 2478 2315 2634 3143 3286 3380 3568 3574 3876 4180 4164 4198 4802 4700 4578 4894 4879 4828 4636 4797 4704 4535 4506 4490 4284 4119 3974 3763 3468 3612 3494 3287 2843 2877 2450 2154 1934 1443 858 672 690 704 542 544 496 317 192 186 233 208 199 73 19
1266 1717 1754 1899 2159 2354 2766 2770 2561 2419 2574 2356 2554 3063 3050 2994 3175 3115 3180 3722 3862 4087 4348 4424 4538 4781 5012 4771 4776 4745 4695 4594 4630 4370 4668 4481 4397 4293 4026 3774 3449 3255 3007 2966 2421 2145 1902 1341 832 786 802 628 605 485 434 431 281 191 188 213 172 159 126
1218 1704 1996 2094 2086 2054 2138 2622 2619 2456 2586 2624 2512 2855 2877 2714 2883 2861 2874 2930 3505 3260 3671 3628 4205 4762 4988 4839 4712 4751 4767 4439 4126 4337 4516 4277 4364 4150 3906 3558 3358 3240 3044 2892 2506 2000 1626 1480 1152 1152 938 605 608 574 440 401 396 123 90 82 57 138 174
1491 1963 2132 2040 2006 1834 1908 2162 2572 2622 2760 2923 2846 2902 2967 2862 2669 2758 2743 2655 2916 3111 3155 2814 3480 4339 5007 4827 4669 4594 4722 4561 4484 4300 4070 3934 4029 3772 3552 3494 3354 3170 3065 2644 2179 2215 1724 1749 1446 1426 1314 988 907 1007 738 508 358 188 51 30 112 240 246
1696 2097 2244 1760 1714 1642 1695 1814 2366 2786 2862 3126 3101 3149 3104 3120 3035 2824 2772 2587 2583 2827 2778 2624 2728 4006 4896 4636 4375 4528 4488 4272 3999 3772 3649 3525 3630 3391 3194 3068 3087 2974 2802 2283 1942 1670 1332 1166 1478 1569 1536 1352 1266 1247 1058 614 316 214 58 58 243 346 356
1868 2176 2214 1902 1772 1677 1660 1804 2322 2858 3158 3429 3356 3061 3267 3373 3344 3034 2964 2770 2580 2671 2747 2807 2566 3362 4489 4536 4208 4204 4224 3968 3682 3522 3422 3106 3003 2905 2657 2418 2468 2590 2330 1550 1340 1639 1636 1418 1332 1497 1292 985 881 963 987 578 333 275 131 159 284 358 324
2832 2558 2582 2312 1991 1871 1956 2348 2744 3190 3451 3747 3573 3247 3474 3616 3449 3156 3113 3178 2820 2672 2853 2952 2805 2763 4176 4326 3938 4143 3917 3724 3370 3131 3189 3044 2944 2540 2063 1994 2080 1925 1556 1262 1221 1140 919 987 1028 630 547 476 525 733 723 484 340 312 350 248 298 385 344
2728 2719 2745 2318 2217 2252 2590 2892 3247 3571 3797 3937 3710 3628 3680 3693 3490 3287 3528 3556 3150 3001 3110 3271 3202 3237 3713 4186 3861 4237 3875 3573 3367 3201 2914 2947 2538 2184 1618 1211 1104 1333 1394 1207 1094 717 700 1096 749 552 576 601 588 515 420 384 407 440 584 640 467 348 435
2310 2468 2559 2510 2605 2728 3087 3465 3774 4050 4176 4118 3928 3991 4036 3909 3660 3612 3805 3793 3565 3345 3391 3516 3726 3706 3828 4300 4114 4263 3847 3538 3500 3334 2822 2098 1613 1354 1187 1278 1300 1475 1691 1571 1260 657 685 665 540 599 613 686 598 530 418 430 516 625 832 830 676 511 520
2409 2237 2346 2321 2787 3183 3636 3883 4227 4378 4490 4390 4170 4162 4146 4106 4034 3996 4025 3967 3928 3549 3496 3767 4057 4222 4215 4392 4339 4398 3858 3586 3198 2700 1796 1368 1030 782 877 901 1139 1683 1956 1440 1226 1179 1053 299 112 292 409 440 493 518 530 540 582 714 1014 1149 962 926 760
2372 2243 2038 2226 2633 3108 3591 3846 4290 4655 4740 4621 4204 4260 4179 4273 4308 4162 4286 4214 4143 4014 3703 3855 4253 4462 4450 4431 4419 4290 3750 3469 3056 2174 1962 1720 1647 1320 792 896 1070 784 429 347 385 646 808 718 539 314 415 456 488 646 802 822 814 724 570 735 946 1197 1156
2218 2233 2189 2303 2712 3010 3518 3721 4061 4594 4683 4691 4365 4562 4426 4474 4526 4411 4060 4146 4175 4406 4011 4069 4503 4701 4639 4326 4067 3856 3692 3110 2712 2228 2161 2089 2176 2245 2104 1468 772 304 174 194 219 226 486 462 460 348 294 314 587 768 792 814 802 480 412 520 644 1110 1130
2226 2697 2538 2419 2634 2993 3347 3570 3898 4442 4645 4683 4670 4762 4837 5024 4834 4747 4238 4288 4220 4349 4270 4256 4619 4390 4205 4162 4217 3956 3672 3074 2544 2400 2406 2387 2431 2429 2412 2446 1992 979 618 486 367 360 316 195 345 404 366 379 558 682 861 894 704 418 373 388 367 292 778
2481 2551 2961 3015 3000 3114 3160 3278 3912 4541 4390 4509 4643 4886 4894 5083 4892 4998 4688 4601 4484 4428 4426 4385 4385 4378 4426 4146 4228 3800 3401 2977 2494 2458 2482 2430 2406 2424 2392 2331 1943 1372 972 673 561 660 587 482 565 594 665 593 680 580 512 766 619 305 262 250 220 212 189
2140 2543 3066 3027 3016 3031 3144 3218 3451 3686 3915 4302 4533 4487 4585 4768 4860 4967 4668 4561 4562 4453 4513 4556 4364 4367 4099 4102 3992 3645 3205 2924 2574 2633 2538 2439 2359 2258 2212 2060 1826 1489 1180 986 915 764 568 441 630 698 788 708 745 551 646 1053 797 384 284 210 227 220 332
1908 2395 2607 2767 3100 3043 3155 3011 2929 3456 3682 3687 3742 4000 4257 4450 4636 4751 4530 4656 4483 4472 4596 4538 4476 4185 4261 3647 3740 3457 3292 2648 2658 2599 2478 2297 2180 2124 2044 1962 1734 1426 1223 1131 1052 955 745 541 692 600 702 910 1044 1160 1277 1078 654 400 258 170 201 192 240
1147 1877 2109 2129 2712 2798 3000 2771 3037 3230 3463 3390 3904 4067 3878 3942 3900 3856 4067 4336 4548 4655 4652 4568 4556 4075 4028 3888 3482 3312 2943 2532 2557 2392 2248 2165 2042 1961 1919 1762 1586 1380 1161 1074 994 859 728 618 464 436 589 356 806 735 976 779 472 419 288 158 226 312 452
702 1318 1533 1924 2166 2417 3094 2835 2808 3119 3341 3349 3210 3084 3056 3179 3200 3284 3380 3778 4365 4710 4641 4487 4354 3940 3939 3393 3068 2944 2702 2356 2358 2230 2126 2004 1864 1802 1683 1603 1492 1212 1109 1040 913 851 783 686 613 532 462 468 453 385 530 485 476 358 258 252 235 242 500
981 1627 1530 1722 2247 2981 2883 2685 2542 2514 2300 2612 2784 2749 2515 2512 2888 3405 3624 3884 4458 4453 4422 4538 4233 3708 3234 3043 2791 2494 2412 2342 2214 2200 1933 1652 1803 1630 1598 1579 1366 1334 1378 1317 1002 737 665 715 650 614 570 626 608 430 494 537 551 248 153 148 187 367 1031
762 1061 1970 2333 2711 2406 2244 2110 2288 2480 2745 2970 2613 2668 2772 2932 3393 3783 4044 4420 4386 4578 4698 4565 4193 3757 3433 2992 2457 2326 2215 2165 2241 2249 1788 1867 1728 1688 1498 1571 1495 1378 1272 1096 864 773 733 644 608 604 620 559 552 334 475 533 410 181 118 120 114 238 1217
1254 1318 1781 2148 2066 2231 2762 3040 2886 2554 2986 3058 3397 3555 3505 3750 4229 4272 4416 4478 4420 4553 4302 4251 4034 3848 3326 2908 2628 2281 2020 2001 2065 1774 1765 1891 1892 1719 1618 1403 1332 1173 987 897 851 867 838 831 758 448 383 375 328 492 403 514 1009 606 108 60 61 52 1058
2016 1938 1932 2245 2672 3114 3380 3204 3062 2728 2544 3970 4038 3980 4356 4436 4299 4536 4522 4388 4208 3950 3900 3880 3780 3634 3352 2920 2590 2394 2258 2018 1938 1807 1471 1554 1438 1315 1237 1016 694 492 481 396 395 393 387 443 366 313 411 369 251 150 259 160 122 1329 170 67 50 56 107
2352 2616 2898 3136 3070 2648 2307 2015 2196 2220 3276 3924 3883 4081 4272 4440 4522 4371 4204 3995 3851 3711 3649 3732 3657 3558 3468 3172 2850 2536 2249 2146 2006 1942 1934 1914 1794 1563 954 536 370 452 371 234 248 286 272 201 270 252 212 204 138 125 68 262 1097 1679 649 96 68 34 0
2514 2486 2752 3040 3023 2365 1800 2298 2640 2946 3393 3322 3326 3495 3820 3854 4322 4082 3976 3842 3719 3549 3681 3551 3509 3520 3329 3186 2837 2513 2233 2055 2133 1988 1728 1498 1303 987 498 318 258 142 74 13 6 96 196 242 201 162 135 160 196 144 193 1727 822 551 212 62 3 0 0
1831 1860 1143 826 1003 1450 2714 4098 3988 3444 2870 2592 2820 3178 3110 3658 4166 4052 4146 4138 3883 3438 3210 3263 3472 3444 3209 2808 2642 2152 1946 1934 1772 1557 1277 1248 976 622 392 282 150 101 79 44 69 189 175 29 78 113 172 190 102 833 1708 1604 1325 234 69 9 0 0 64
844 778 752 698 574 875 1172 3167 3544 3542 3584 3739 3792 3631 3928 4152 4410 4597 4660 3831 3128 3086 3286 3477 3454 3189 2866 2643 2371 2088 1917 1812 1576 1151 1080 942 613 422 368 192 204 256 258 224 277 290 229 167 106 210 183 115 171 942 1412 1330 1325 815 44 0 0 0 0
1034 776 820 1684 2167 947 1028 1640 2204 2710 2898 3157 3419 3710 3830 3813 4031 4099 3407 3012 2868 3409 3501 3327 3060 2793 2712 2584 2252 1976 1753 1768 1350 939 804 566 498 603 599 439 377 419 515 371 304 336 254 366 246 357 294 400 762 994 1287 1159 1048 960 634 94 103 30 0
2687 2731 2219 2166 2728 2617 1443 1298 1596 1798 1975 2299 2272 2270 2612 3716 4244 4023 3352 3262 3323 3310 3194 2939 2831 2722 2698 2568 2290 1906 1664 1524 1155 842 722 653 682 659 652 731 625 668 814 619 477 468 450 414 495 607 515 740 962 1209 1180 1012 941 912 756 224 80 1 0
2182 2174 2420 2504 2394 2727 2499 1955 1484 2026 2586 2942 2650 2614 2417 2513 2967 3172 3042 2878 2780 2794 2898 2805 2654 2596 2586 2341 2100 1853 1542 1333 876 812 722 601 538 601 621 740 688 681 659 600 526 557 519 526 487 426 292 434 544 936 1082 994 1105 1124 969 482 262 163 106
2380 2547 2478 2324 2362 2824 2640 2638 2266 2472 2924 3333 3438 3192 3260 3231 2930 2787 2768 2534 2308 2591 2454 2236 2155 2296 2274 1970 1878 1689 1455 1283 882 864 714 588 577 724 570 1208 1054 799 646 1080 934 791 618 460 228 334 238 276 709 1028 1014 711 802 1000 742 1337 520 1446 434
2038 2091 2289 2432 2417 2447 2620 2920 3038 3128 3052 3464 3470 3462 3252 2826 2502 2253 1976 2028 2210 2269 2338 2174 2095 2208 1906 1750 1593 1460 1260 1134 874 843 781 684 744 278 176 476 232 162 230 220 0 0 0 0 605 300 324 153 193 557 196 269 997 812 289 144 18 0 0
1869 1908 1905 2190 2422 2508 2618 2738 3018 3228 3255 3350 3280 3047 2731 2598 2319 2168 1907 2213 2222 2296 2459 2242 2056 1943 1714 1622 1502 1340 1235 1053 964 788 962 856 917 342 2 0 0 0 0 0 0 0 0 0 0 0 0 378 561 55 176 82 240 344 25 0 0 0 0
756 1512 1651 1548 1721 2205 2716 2829 2861 3028 3118 3100 3019 2774 2590 2209 2300 2234 2040 2218 2228 2334 2390 2225 2030 1708 1434 1407 1424 1349 1482 1238 1116 1129 1165 1056 1054 808 420 201 122 0 0 0 0 0 0 0 0 0 0 0 459 10 1 0 0 0 0 0 0 0 0

ECMWFFLT1_con_mucape_009.txt.gz
CAPE
1333 1271 592 1071 1741 1842 1902 2154 2144 1937 1805 1720 1747 1842 1938 2191 2396 2908 3280 3838 4142 4430 4512 4352 4294 4075 4167 4068 4010 4033 3946 3645 3503 3783 3701 3378 3102 2962 2976 2659 2545 2368 1950 1895 1927 1789 1776 1396 874 650 626 512 362 489 543 377 317 73 39 52 38 62 146
948 788 411 949 1567 2115 1913 2083 2315 2231 2076 1858 1886 2170 1964 2048 2504 2808 3316 3748 4236 4416 4479 4428 4482 4367 4287 4315 4141 4083 4101 3841 3611 3703 3629 3593 3363 3272 2892 2792 2572 2559 2391 2072 1871 1850 1427 1399 1009 806 389 462 472 556 498 551 274 112 28 75 84 69 74
618 991 881 1123 1527 2379 2123 1983 2338 2488 2442 2188 2139 2147 2078 2371 2597 3021 3391 3643 4305 4707 4524 4543 4802 4642 4460 4541 4220 4201 4095 3934 3587 3728 3624 3266 3282 3003 2936 2889 2736 2456 2651 2239 1910 1791 1677 1470 1103 942 676 606 573 535 568 523 326 120 61 140 74 32 112
457 1104 877 1286 2147 2606 2425 2049 2240 2524 2408 2269 2309 2310 2309 2658 2808 3096 3186 3514 4210 4806 4852 4766 5001 4959 4667 4662 4674 4558 4299 4038 3841 3690 3574 3068 3026 3050 2915 2894 2878 2493 2219 2014 1836 1720 1839 1556 1188 1079 856 782 650 544 438 368 301 192 78 142 142 98 156
21 868 1201 870 2048 2590 2645 2313 2178 2480 2328 2256 2357 2874 2619 2538 2810 3019 3033 3380 4049 4784 4658 4701 4752 4889 4892 4690 4600 4382 4537 4370 4207 3707 3491 3210 2993 3100 2922 2637 2829 2352 1990 1915 1845 2012 1931 1634 1402 1141 1116 926 634 597 524 387 417 351 238 304 262 128 128
7 633 629 948 2348 2479 2801 2620 2265 2224 2199 2240 2659 3064 2824 2509 2692 3036 2999 3421 3987 4458 4625 4517 4582 4966 5060 4765 4539 4286 4454 4740 4493 4246 3810 3496 3310 3013 2967 2793 2384 2215 1654 1970 1812 2060 2218 1864 1438 1410 1236 790 615 484 523 475 266 315 355 529 407 259 51
2 296 607 891 1804 2605 2767 2772 2557 2338 2336 2188 2300 2756 2816 2601 2635 2882 2957 3229 3418 4041 4163 4056 4144 4548 5238 4944 4901 4791 4625 4559 4530 4283 4120 3626 3513 3388 3089 2611 2536 2235 1748 1954 2065 2153 2118 2027 1498 1385 1190 867 622 586 676 829 475 277 359 670 623 550 274
1 54 468 1490 1644 2422 2719 2878 2745 2748 2462 1830 1622 2222 2451 2427 2691 2729 2735 2850 2811 2695 3605 3489 3398 4391 5065 5315 5127 5015 5070 4783 4874 4825 4510 4035 3711 3362 3157 3252 3011 2580 2293 1938 2302 2210 2155 2124 1496 1312 1103 871 872 682 661 714 621 228 341 562 611 541 298
11 42 457 1241 1533 1946 2366 2839 2871 2740 2734 2013 1484 2022 2472 2401 2284 2216 2241 2182 2301 2176 2536 2862 3021 3681 5016 5381 5270 5234 5282 5114 5182 5036 4639 4286 3755 3146 2981 3080 3127 2991 2676 2184 2183 2310 2326 2126 1544 1413 1236 961 844 930 763 749 606 591 512 475 529 425 192
52 393 917 1194 1065 1133 2172 2552 3053 3229 3022 2722 2198 2468 2673 2324 2054 1781 1765 1546 1883 1825 1797 2291 1601 2814 4663 5324 5243 5226 5384 5206 5116 4843 4546 4134 3810 2891 2148 2686 3294 3238 3001 2450 1835 2564 2408 2245 1801 1544 1560 1176 794 821 820 744 708 492 367 274 221 294 424
602 700 792 1645 2235 2286 2374 2379 3160 3841 3682 3655 2942 2004 2944 2542 1620 1364 1458 1316 1319 1667 1538 1952 1100 1648 3843 5070 4948 4964 5249 4926 4704 4715 4000 3616 3102 2794 2269 2478 2929 3141 2954 2488 1801 2619 2255 2144 1901 1848 1766 1308 896 1015 1053 947 952 787 242 47 50 112 126
1909 1286 2835 3005 2789 2478 2502 3104 3487 4291 4125 4531 3212 2078 3461 3187 1677 1245 1317 1331 1131 1072 1416 1450 1883 1450 3412 4801 4679 4698 4941 4924 4755 4229 3864 3478 2346 2628 2336 2531 2934 2729 2346 2322 2266 2634 2093 2055 1809 1841 1978 1702 1283 1400 1760 1595 1133 526 166 75 63 119 238
3140 3331 3683 3200 3066 2875 3107 3486 3400 3633 4068 3731 3132 2772 3008 2837 2112 1242 2100 1808 1275 724 934 1627 1152 2262 2876 4525 4619 4648 5089 4989 4745 4384 3958 3251 3190 3074 1780 1617 2506 1810 1301 1986 2547 2423 2148 2069 1940 2231 2346 2144 2070 2086 1752 1277 642 295 157 170 163 287 458
2858 3990 3715 3407 3317 3171 3171 3136 3117 3369 3919 3872 3825 3677 3667 3197 2499 1846 1961 1806 1572 1031 1134 1349 1964 2336 3003 4229 4914 4826 4856 5138 4608 4254 3673 3409 3336 3351 2475 2879 2635 2418 2050 2327 2676 2494 2633 2458 2565 2555 2441 2123 1919 1612 1286 882 467 144 152 292 397 460 610
2357 3189 3470 3388 3788 3696 3402 3163 3392 3434 3858 4173 4184 4176 4181 3876 3480 3148 2793 2173 2428 1415 1334 2102 2856 2796 2525 3760 4814 4952 5138 4885 4628 4114 3904 3482 3660 3458 3340 3233 2857 2247 2757 2926 2726 2502 2214 2315 2088 2003 1683 1430 902 805 593 378 153 99 126 304 582 760 735
569 2781 2696 3289 3742 3726 3838 3684 3716 3883 4256 4747 4618 4405 4006 3969 4075 3573 3503 3226 2739 2026 1551 2343 3228 3763 3070 3217 4458 4994 5167 4978 4399 4226 4154 3645 3702 3429 3449 3315 3220 3097 3072 2720 2524 2282 1827 1697 1734 1335 976 721 689 426 258 184 184 137 19 255 816 1054 988
0 0 0 161 987 3881 4033 4150 4194 4518 4763 4997 4922 4670 4354 4348 4168 4007 3727 3567 3254 2880 2002 2255 4190 3757 3669 4070 4585 5124 5094 4954 4649 4213 4400 4265 4065 3769 3430 3316 3317 3142 2993 2782 2656 2216 1718 1734 1404 766 509 336 195 197 376 286 154 13 0 15 615 1090 1049
0 0 8 17 286 3009 4493 4662 4800 5054 5229 5176 4921 4885 4678 4797 4436 4176 3761 3652 3548 2938 2425 2912 3745 3887 4590 4278 5284 5417 4951 4141 3984 3951 4118 3916 3556 3370 3356 3136 2918 2852 2900 2848 2776 2518 2121 1662 1293 827 433 360 405 477 555 387 122 0 0 0 585 886 1214
0 1 0 1046 1416 2634 3754 4511 5020 5466 5237 5328 4875 4974 4993 5113 4666 4484 4274 4504 4207 4001 3194 3432 4247 4821 5158 5295 5161 5106 4645 3695 3397 3521 3476 3446 3386 3159 2982 2760 2519 2405 2138 2192 2400 1828 1960 1478 1138 578 416 394 469 392 221 240 44 0 28 0 537 642 627
0 0 0 692 651 556 2909 3981 3911 5023 5444 5488 5354 5029 4988 5250 5021 4780 4243 4277 4454 4330 4414 4578 4867 5361 5370 5585 5240 4998 3927 3589 3377 3150 3160 3164 3123 3041 2905 2824 2506 2469 2415 2334 2196 2224 2186 1760 963 564 446 389 548 404 256 433 44 413 520 72 377 381 449
82 8 667 1200 1538 1495 3650 3941 4029 4714 5197 5082 4842 4776 4925 4969 4819 4749 4144 4403 4715 4858 5332 5096 5483 5804 5665 5161 5175 4700 3850 3707 3490 3134 2982 3125 3104 3026 2980 2928 2542 2474 2464 2447 2439 2388 2184 1753 1318 906 699 528 646 566 446 448 48 0 419 0 0 0 85
0 71 1926 1381 1889 3535 4150 4039 4031 4072 5160 4998 4509 4455 4807 4894 4662 4224 3762 4333 5054 5086 5146 5349 5697 5583 5216 4812 4988 4310 3792 3647 3414 3163 2911 2846 2597 2667 2872 2783 2729 2416 2312 2276 2209 2117 1900 1697 1407 1197 972 723 710 746 640 465 142 0 0 0 0 31 160
14 523 1268 2296 3014 3630 4112 4272 3990 4090 5265 4762 4586 5038 4789 4424 4587 4378 4783 4846 5138 5519 5425 5495 5544 5374 4791 4503 4728 4362 4242 3490 3323 3071 2600 2543 2551 2442 2420 2613 2693 2595 2233 2022 1866 1693 1546 1401 1260 1102 928 907 940 833 638 524 574 481 399 0 410 342 281
289 340 603 1665 2769 2972 4073 3964 3776 4241 4738 4470 4641 4718 4578 5068 5063 4998 5369 5413 5514 5710 5664 5596 4924 4632 4351 4461 4505 4455 4216 3506 2960 2653 2303 2482 2601 2573 2548 2400 2039 1973 1876 1887 1622 1404 1205 1045 973 892 804 718 624 804 665 743 1069 460 442 290 352 263 445
674 440 601 1576 2240 2559 3863 3742 3575 4046 4469 4584 4513 4785 5231 5200 5133 5185 5160 5216 5337 5478 5381 5337 5170 4837 4435 4401 4333 4157 3810 3654 3230 2831 2433 2594 2358 2210 2150 2073 2032 1880 1765 1507 1665 1333 1342 898 897 1038 883 640 564 508 742 895 874 665 528 450 314 385 804
886 586 1338 1561 1923 2607 3525 3737 3725 4245 3826 4062 4798 5031 4945 4538 4702 4896 5030 5499 5311 5222 5247 5251 4915 4520 4095 3714 3466 3755 3734 3585 3541 3290 2876 2609 2507 2246 2297 2254 2156 1926 1878 1755 1714 1545 1532 1178 1184 1097 923 874 956 1133 787 780 700 570 425 61 0 426 576
1387 1186 1330 1382 2129 3368 3802 3758 3924 4047 4143 4687 4521 3960 4264 4566 4523 4844 5247 5299 5196 5034 4850 4906 4618 4122 3822 3553 3298 3201 2968 2890 3136 3006 2920 2750 2679 2485 2310 2074 2063 1975 1912 1758 1531 1506 1360 1262 1122 1112 1006 927 942 938 883 892 854 862 260 0 0 356 522
1626 1234 1644 2447 3381 3260 3575 3205 3787 3537 3374 3615 3785 3983 4122 4453 4710 5160 5081 4878 4750 4673 4833 4705 4336 4034 3784 3556 3317 3289 3090 2650 2977 2916 2617 2674 2644 2440 2394 2232 2086 1833 1739 802 766 863 1058 1386 1098 956 921 829 845 764 651 692 472 444 25 198 300 204 93
2145 1844 2022 2658 3002 3090 2894 3218 2958 2902 3396 3436 3611 4032 4382 4832 5100 4730 4362 4642 4529 4232 4738 4692 4332 4294 3935 3626 3383 3139 2932 2612 2905 2705 2645 2628 2470 2332 2175 1771 1292 1099 1079 1116 954 885 788 682 535 556 393 487 648 440 540 634 833 480 400 0 0 0 0
2270 2327 3508 3450 3258 3128 2872 3226 3965 4480 4269 3696 3847 4255 4627 4802 4494 4343 4478 4480 4261 4397 4653 4562 4565 4208 3816 3424 3266 2887 2438 2262 2336 2337 2249 2304 2285 1956 1656 1372 1348 1254 1325 1208 883 808 767 683 466 252 192 219 363 412 453 972 1146 157 0 0 0 0 0
3599 3518 3066 2629 2418 2782 3302 3812 3470 2889 2628 2140 2058 2193 3198 4030 4124 4311 4356 4283 4440 4549 4482 4448 4376 3918 3656 3366 2995 2584 2292 2152 2154 2305 2238 1921 1963 1672 1291 1321 1293 1053 989 828 522 454 583 561 431 402 278 190 424 470 427 577 930 323 0 0 5 335 0
2381 2014 1989 2103 2105 1740 1672 1759 2042 1432 1560 1982 2526 3166 3682 3676 4186 4629 4963 4851 4709 4614 4602 4391 3835 3528 3516 3228 2893 2649 2375 2306 2033 1719 1860 1789 1598 1476 1357 1200 937 871 752 583 368 452 566 609 465 460 408 399 295 212 498 1048 900 796 336 0 0 0 0
1100 1616 1636 1581 2110 2528 3118 3437 3584 3763 3788 3729 3408 3013 3446 4444 5028 5046 4606 4507 4580 4551 4324 3976 3687 3358 3121 3102 2944 2766 2520 2286 1974 1701 1541 1325 1354 1233 1151 1008 779 726 724 416 465 561 598 497 464 406 316 376 335 300 490 1046 751 760 352 0 0 0 0
3201 3325 1862 1162 1211 1246 1115 1254 1706 1928 1879 1660 1233 1375 2120 3877 4277 4156 4008 3930 3818 3645 3506 3414 3366 3406 3430 3211 2876 2646 2318 2157 1643 1460 1438 1155 1167 1121 826 693 550 663 625 456 452 502 410 434 314 268 190 247 227 337 587 794 998 788 826 538 387 252 46
3142 3621 3978 3741 2440 1593 1403 1249 1644 2274 2308 2314 2237 2391 2951 3213 3470 3551 3782 3859 3569 3859 3691 3551 3325 3441 3380 3082 2852 2486 2188 1811 1518 1563 1441 1310 1208 1994 1970 1606 838 641 957 1062 1156 911 741 875 428 424 356 228 350 459 960 864 905 619 761 1360 413 500 249
2625 2738 3098 3620 3970 3812 3292 3419 3468 3547 3835 3975 3864 3583 3409 3123 2850 2882 2576 3104 3987 3973 3786 3478 3367 3370 2854 2478 2348 2192 1852 1525 1600 1543 1233 1166 1100 648 663 615 701 673 1221 464 374 0 376 413 470 242 211 492 1069 1201 1101 1054 947 988 830 794 249 0 0
2388 2648 2975 3015 3190 3546 3895 4008 4061 4224 4185 3909 3454 2912 2595 2533 2263 2242 2268 2919 3016 3286 3459 3124 2786 2258 1909 1934 1942 1836 1806 1531 1402 1386 1226 950 1039 702 406 425 519 517 199 360 0 0 0 0 0 0 0 275 401 377 599 222 390 622 659 519 0 0 0
1798 1881 2207 2747 3217 3365 3469 3663 3696 3691 3582 3459 3302 3014 2666 2296 2417 2743 2642 2881 2969 3135 2994 2824 2588 2218 1883 1758 1308 1943 1858 1507 1170 1193 1132 910 1060 882 888 730 497 509 205 0 0 0 0 0 0 0 0 121 155 14 3 0 0 0 201 275 176 0 0

ECMWFFLT1_con_mucape_012.txt.gz
CAPE
1462 1486 1399 1603 1487 1426 1531 1974 2055 2071 2477 2469 2520 2518 2200 2606 3014 3248 3302 3894 4123 4457 4671 4799 4634 4419 4343 4382 4527 4462 4367 4351 4418 4268 3923 3789 3378 3257 3591 3431 3406 3388 3085 3110 2811 2647 2973 2323 2295 2034 1555 1149 1215 1114 1206 847 1013 852 726 484 423 915 452
612 865 1048 1108 1325 1256 1216 1707 2228 2131 2436 2558 2514 2679 2334 2487 3020 3346 3487 3984 4199 4443 4632 4853 4692 4443 4349 4476 4450 4477 4360 4327 4359 4163 4042 3995 3778 3911 3588 3555 3526 3444 3386 2950 3240 3033 2511 2392 2166 1838 1206 1315 978 1164 1052 1094 1046 792 505 604 493 598 635
762 1032 1042 781 1017 1705 1684 1516 1697 2117 2307 2354 2200 2371 2460 2673 2987 3460 3610 4020 4329 4574 4680 4735 4646 4389 4384 4598 4516 4462 4398 4248 4183 4267 4040 3877 3833 2994 3420 3778 3637 3290 2967 3062 3044 2660 2297 2155 1963 1728 1472 1081 753 1198 1007 1016 945 725 699 496 548 469 498
1133 859 825 1051 1387 1549 1751 1651 1646 1581 1672 1896 1724 1950 2580 2950 3022 3313 3610 3915 4306 4524 4818 4803 4570 4364 4372 4645 4582 4437 4441 4333 4178 3870 3692 3636 3658 3416 3470 3681 3470 3099 3016 2812 2519 2253 1856 2082 1652 1743 1452 1312 1180 990 910 843 663 696 631 824 488 492 487
654 958 1045 1192 992 1796 1570 1448 1657 1986 1779 1960 1653 2167 2593 2959 2980 2996 3531 3663 3780 4252 4501 4644 4042 4053 4350 4594 4438 4367 4305 4403 4124 3694 3690 3720 3797 3647 3498 2845 3178 2666 2804 2674 2474 2459 2191 2140 1662 1557 1329 1350 1248 1180 969 1111 812 715 551 896 646 604 593
522 1067 1309 943 715 1506 1805 1465 1255 1284 2024 2128 1762 2236 2320 2496 2413 2301 2767 3401 3632 3833 4522 4742 4390 4405 4463 4357 4308 4281 4365 4444 4251 4036 3924 3834 3869 3591 3436 3182 3040 2704 2824 2634 2441 2444 2288 2160 1652 1471 1301 1232 1003 903 866 861 708 658 520 596 838 496 491
1142 1347 1292 970 890 903 1320 1340 1166 1560 1952 2134 1979 1972 1923 2155 2053 1914 2066 2795 3366 4095 4086 4460 4244 4256 4423 4246 4392 4504 4490 4485 4455 4096 4062 3870 3640 3535 3385 3338 3164 2824 2418 2518 2259 2178 2246 2207 1891 1558 1406 1052 1067 862 781 695 634 680 524 533 642 700 631
1013 1128 1569 1416 1051 692 984 1465 1778 2251 2053 2049 2161 2037 1833 1845 1882 1856 1881 2479 3108 3580 3891 3928 3782 4184 4264 4379 4565 4448 4517 4236 4338 4070 3906 3695 3497 3452 3513 3272 3258 3066 2550 2401 2356 2285 2202 2241 2038 1833 1630 1422 1308 1000 971 980 773 734 692 591 657 436 454
1445 1529 1624 978 580 440 779 1262 1440 1804 1732 1727 2456 2598 2083 1954 1908 1780 1963 2494 2950 3555 4006 3926 3857 3742 4498 4516 4510 4493 4499 4476 4323 4191 3880 3481 3236 2828 3000 3173 3106 3048 2427 2302 2259 2366 2368 2385 2102 2041 1859 1645 1442 1146 1069 1145 909 656 713 706 634 424 259
1627 1503 1222 847 653 663 1093 1856 1532 1474 1523 1599 2229 2918 2657 2243 2093 1772 2034 2705 2856 2865 3622 3725 3606 3835 4637 4639 4502 4400 4436 4570 4541 3941 3588 3036 2899 2478 2543 2519 2767 2774 2468 2125 2047 2254 2445 2584 2369 2153 2020 1791 1588 1187 1131 1165 992 785 630 778 748 596 470
1233 1783 1397 807 1172 1307 1383 1306 1438 1860 1862 2322 2883 2913 3038 2862 2677 2090 2213 2517 2656 2656 3548 3825 3616 3832 4258 4282 3913 3894 4324 4123 4255 4361 3645 3238 2810 2626 2522 2538 2466 2486 2366 2083 2004 2220 2425 2524 2547 2341 2140 1827 1647 1290 1164 1150 1022 913 655 756 855 842 798
2278 1862 2089 1590 2013 2258 1742 1726 1857 2342 2725 2617 3031 3042 3420 3400 2931 2213 2221 2490 2253 2484 3472 3728 2958 2954 3777 4250 3843 4091 4114 4222 3801 3680 3806 3484 3167 2899 2655 2355 2607 2667 2405 2102 2032 2298 2463 2534 2595 2399 2146 1873 1640 1517 1206 1174 1090 1013 833 693 675 709 631
1492 2564 2250 2316 2184 2230 2464 2528 2466 2402 3407 4800 3677 3038 3250 3473 3076 2516 2776 2644 2314 2507 2878 3128 2891 3145 3819 4314 4132 4637 4456 4190 4066 4023 3808 3917 3542 3276 2901 2634 2497 2549 2409 2211 2009 2198 2362 2555 2657 2456 2232 1936 1615 1497 1384 1260 1175 1110 947 705 542 422 362
2668 2901 2345 3588 3390 3238 3438 3483 3928 4072 4414 4760 4059 3198 2941 3169 2975 2866 3010 2821 2494 2429 2443 2455 2646 3049 3605 4268 4581 4870 4859 4960 4787 4696 4506 4238 3872 3517 3145 2679 2442 2585 2818 2658 2506 2253 2042 2604 2753 2571 2226 1920 1580 1308 1301 1268 1201 1258 1040 582 287 225 232
2813 2547 3565 3645 4290 4782 4915 5480 6280 6404 5493 5098 4411 3369 2836 2872 2867 2934 2971 2552 2286 1847 1935 2092 2294 2534 3577 4421 4789 4997 4983 5129 5124 4840 4701 4317 3946 3724 3481 2851 2487 2759 3157 3056 2792 2331 1906 2575 2998 2560 2254 1974 1584 1211 1087 1171 1275 1288 937 522 348 351 389
908 2640 3270 3294 4053 4569 5124 5149 5197 5673 5719 5392 4635 3935 2869 2887 3122 2933 2660 2328 2010 1589 1681 2075 2247 2127 2127 3158 4254 5013 5196 5315 5208 4900 4813 4290 3949 3747 3482 3008 2676 2738 3130 3194 2988 2580 2352 2834 2915 2448 2221 2078 1754 1301 1264 1611 1716 1178 632 339 328 365 457
7 0 1550 3271 4691 4265 4651 4848 4848 5019 5233 5194 4838 4663 3416 3080 3331 3191 2307 1748 1609 1623 1606 2157 2443 2413 2332 3067 4032 4931 5345 5433 5363 5168 4837 4440 4094 3727 3366 3143 2820 2776 3107 3116 2716 2477 3093 3184 2762 2455 2307 2351 1822 1704 2021 1905 1493 800 530 50 160 419 684
21 1162 1052 1863 3294 4176 4814 4808 4798 4862 5008 4908 5015 5234 4458 3981 3875 3294 2066 1526 1221 1208 1407 2098 2356 2605 2556 3254 4425 5480 5556 5513 5537 5331 4981 4534 4218 3896 3582 3367 3090 2927 3049 3129 3083 3225 3221 3054 2928 2721 2651 2500 2191 1958 1470 1256 928 605 357 84 61 411 850
124 89 1411 1275 3228 4300 4593 4194 4350 4719 4216 3902 4231 4426 4518 4863 4098 3699 3045 2209 1643 1519 1338 1880 2654 2838 2908 3765 4937 5710 5727 5666 5626 5396 5190 4726 4252 4062 3904 3673 3616 3739 3596 3739 3745 3332 2896 2843 2838 2610 2414 2067 1679 1241 974 734 507 302 252 196 80 208 696
88 12 34 790 2616 4274 4570 4377 4283 4523 4346 4494 4626 4148 4237 4354 4323 4312 3832 3146 2432 2023 1767 1730 3225 3437 3432 4184 5174 5955 5952 5851 5552 5332 5138 4740 4574 4797 4658 4376 4326 4154 3878 3487 3500 3314 2775 2529 2510 2188 1861 1276 1196 804 704 576 554 562 636 521 206 34 380
574 151 110 200 4652 4580 5428 5384 5358 5248 5264 4695 4525 4775 4753 4720 4458 4552 4108 3925 3727 3236 2574 2207 3271 4082 4038 4762 5696 6487 6467 5744 5386 5211 5072 4807 4923 4657 4552 4342 4242 3858 3373 3082 3100 3041 2808 2423 2258 1966 1534 1428 1281 1090 988 925 822 961 1046 882 410 108 13
167 392 285 73 2720 2832 5366 5270 5483 5234 5493 4836 5107 5075 4767 4397 4022 3824 3660 3630 3972 4220 3804 3175 4062 5023 4965 6980 6217 5624 5631 5548 5436 5154 5018 4805 4563 4400 4302 4123 3914 3570 3236 2805 2745 2700 2488 2324 1944 1963 1955 1752 1601 1488 1287 1200 1244 1389 1270 984 384 0 78
0 1 151 558 940 2948 4922 4620 5194 4953 6220 5707 4992 4923 4600 4448 4121 4017 3785 3423 3677 4665 4751 4976 5614 5678 6225 6453 5461 5005 4967 4980 4794 4528 4368 4226 4201 4121 3913 3775 3749 3634 3360 2824 2521 2119 2026 1969 2037 2032 1884 1750 1659 1470 1472 1440 1548 1493 1084 701 523 472 496
0 0 4 3 198 1198 5200 4811 4786 5171 5812 5556 5161 4784 4643 4303 4744 4822 4521 4193 4830 4887 5412 6031 6131 6102 6328 5970 4956 4750 4666 4538 4456 4368 4227 3997 3893 3788 3703 3568 3531 3466 3357 3057 2532 2249 2077 2037 2008 2045 2036 1959 1841 1842 1676 1650 1429 1232 980 919 832 712 528
0 0 0 0 8 284 4591 5190 4724 4451 5468 5253 4815 4888 5307 5246 5172 5224 4853 4659 5048 5105 5644 6103 6003 6104 6121 5758 4976 4730 4608 4518 4446 4355 4112 3755 3659 3510 3478 3330 3401 3328 3260 2994 2740 2547 2221 2217 2071 1798 1556 1324 1101 916 825 796 1350 894 887 768 477 403 774
20 0 0 0 10 1017 3169 5572 4967 4083 4436 4990 5031 5093 5643 5528 5618 5210 4881 5194 5476 4949 5349 5985 6092 5959 5692 5409 4952 4698 4532 4430 4196 3972 3762 3478 3250 3208 3217 3221 3133 3051 2653 2581 2499 2441 2244 2069 1816 1512 1230 1031 969 1687 770 708 1566 949 595 579 541 481 797
1944 748 250 29 387 2929 5522 5388 4873 3897 3429 4599 5399 5125 5588 5728 5570 5184 5151 5774 5460 5061 4931 5650 5789 5539 5491 5372 4824 4665 4269 4073 4081 3634 3388 3150 3096 2971 2782 2586 2462 2422 2403 2388 2325 2221 1984 1714 1515 1388 1167 925 1170 992 881 815 1508 1042 788 592 610 594 637
1773 1709 19 446 2146 2771 4703 4134 4280 3988 3832 5215 5863 5514 5637 5830 5519 5691 5906 5997 5857 5845 5600 5712 5347 5135 5268 5093 4596 4271 3991 3973 3840 3160 3066 3010 3056 2846 2641 2561 2494 2416 2173 1840 1940 2148 2088 1926 1589 1516 1400 1389 1341 1351 1531 1236 960 741 635 614 599 583 581
1759 1559 1505 1754 4500 3594 3918 3934 3884 3672 4337 5027 5028 4977 5773 5729 5942 6249 6212 6356 6282 5896 5806 5188 4877 4896 4898 4718 4428 3959 3782 3807 3426 3145 3037 2959 2878 2698 2717 2501 2269 2115 2157 2158 2239 2190 1866 1722 1532 1417 1395 1701 1503 1366 1517 1528 1231 803 605 615 622 603 538
1676 1302 978 862 2496 3656 3835 3906 4008 4426 4474 4196 4703 5006 5453 5516 6038 6142 6007 6222 5750 5311 4858 4587 4325 4311 4070 3972 4075 3782 3587 3564 3512 3401 3274 3112 3086 2998 2827 2546 2344 2263 2165 2348 2296 2117 1992 1756 1572 1237 1084 1012 1239 1080 1170 1641 1381 980 604 406 0 397 0
1538 1385 752 701 1070 3695 3690 4726 4882 4727 4866 5174 5445 5375 5428 6044 5791 5481 5671 5540 5088 4646 4512 4328 4252 4062 3938 3849 3495 3115 3384 3508 3312 3185 3271 3017 2975 2871 2561 2548 2590 2413 2147 1805 1851 1783 1616 1567 1177 1160 850 939 915 851 1357 1561 1287 595 126 0 0 0 0
1700 1832 1534 1500 3342 3554 3609 4285 4498 4629 4666 5024 5653 5766 5402 5387 5280 5147 5269 5291 4828 4753 4457 4185 3941 3735 3626 3454 3260 3207 3228 2900 2804 2670 2745 2798 2721 2760 2774 2107 1802 1748 1720 1534 1386 1520 1528 1274 795 727 626 699 614 789 1125 1415 624 17 0 0 0 0 0
1970 1987 2342 2173 2357 3487 3860 3266 3626 3966 4394 4915 4958 4693 4577 4608 4872 5064 5285 5121 4993 4869 4457 3927 3634 3321 3204 3076 2880 2780 2650 2542 2519 2417 2309 2468 2487 2270 1888 2086 1412 1408 1392 1135 861 930 1054 712 714 658 517 618 716 850 1182 1187 793 584 358 0 0 0 0
1555 1427 1633 1993 3255 3988 4279 4237 4017 3787 4163 4328 4363 4279 4228 4515 4610 4979 4931 4717 4596 4340 4104 3680 3367 3093 2842 2580 2407 2331 2277 2120 2157 2166 2056 2016 2018 1696 1577 1503 1110 972 1227 931 898 950 829 717 771 628 553 544 449 950 1290 1293 943 806 595 431 0 0 0
1542 1410 1695 2121 3245 3241 3249 2843 2917 3443 3472 3621 3925 4356 4518 4809 4769 4486 4804 4542 4154 4042 3785 3510 3206 3122 2598 2296 2297 2014 2178 2062 2060 2104 2110 1986 1634 1268 1124 1106 1123 999 549 395 492 562 748 758 657 632 344 337 409 740 868 1036 1097 852 485 124 0 0 0
1969 1756 1772 2427 3062 3273 3193 2924 2720 3001 3496 4083 4356 4345 4480 4605 4403 4184 4196 3991 3856 3690 3466 3211 2941 2866 2475 2190 1933 2043 2100 1694 1497 1594 1600 1445 1148 1025 966 841 859 722 473 444 488 466 560 519 246 220 700 686 607 756 815 1118 1130 901 612 141 0 0 0
2209 2919 3520 3767 3569 3725 4072 4351 4464 4226 4148 3900 3482 3306 3465 3659 3409 3514 3326 3652 3456 3248 3417 3333 3110 2611 2164 2065 1818 1623 1678 1420 1448 1837 1645 1124 1052 944 871 592 851 687 465 321 368 305 438 394 114 0 0 614 505 637 728 789 801 736 581 455 383 19 0
1453 2353 2994 3268 3562 3781 3859 4060 3991 3690 3326 3054 2723 2543 2358 2018 3008 4146 3603 3692 3548 3466 3542 3485 3170 2727 2242 2181 1958 1584 1366 1225 1315 1435 1570 1041 1085 1006 790 561 691 666 560 338 291 291 328 409 376 321 192 0 224 567 546 507 493 526 557 592 608 338 0

ECMWFFLT1_con_mucape_015.txt.gz
CAPE
68 328 372 443 797 888 1019 1351 1545 1545 1580 1730 1741 1672 1558 1414 1689 1861 2213 2499 2683 2680 2648 2646 2767 2951 2921 2791 2755 3102 3286 3155 3048 3036 2764 2599 2200 2170 1958 2128 2120 2133 2050 2313 2013 2163 1782 1749 1762 1506 1447 1451 1162 524 296 101 40 193 8 203 274 77 2
201 451 806 655 736 1015 1249 1415 1658 1704 1663 1737 1812 1697 1582 1559 1540 1873 2249 2568 2769 2819 2826 2752 2848 2965 3008 2998 2912 3144 3321 3204 3100 3005 2813 2689 2206 2388 2072 2066 2289 2246 2103 2193 2141 2176 1818 1846 1774 1617 1472 1274 484 43 124 214 220 52 0 6 163 141 20
317 500 938 939 880 832 1055 1428 1622 1756 1754 1763 1849 1793 1696 1658 1605 1948 2275 2621 2807 2922 2960 2888 2924 2995 3026 3110 3158 3241 3332 3267 3175 3043 2907 2743 2438 2501 2336 2161 2372 2305 2312 2158 2206 2094 1953 1838 1730 1596 1318 999 491 257 57 220 214 34 1 0 29 98 15
384 640 940 1000 951 913 874 1078 1458 1618 1727 1799 1910 1893 1750 1710 1626 2085 2389 2651 2825 2960 3085 3036 3026 3056 3073 3118 3256 3447 3406 3326 3293 3180 3010 2810 2524 2501 2603 2345 2451 2310 2375 2191 2200 1786 2022 1654 1686 1528 1287 764 397 247 96 165 194 55 16 2 0 10 50
324 600 878 984 975 932 916 910 1122 1488 1623 1731 1890 1917 1858 1754 1888 2183 2479 2778 2849 3002 3162 3232 3224 3189 3201 3139 3244 3462 3483 3366 3337 3261 3109 2892 2576 2504 2641 2466 2547 2386 2357 2293 2157 1969 1675 1569 1476 1382 1098 728 520 390 211 125 167 86 51 1 13 18 14
591 693 890 979 990 964 895 916 966 1273 1517 1654 1844 1962 1883 1748 1929 2226 2496 2868 2999 3053 3231 3392 3425 3404 3330 3265 3271 3419 3445 3359 3339 3289 3178 2947 2720 2544 2507 2512 2524 2439 2376 2315 2218 2012 1517 1388 1295 1355 1089 915 633 378 306 193 146 93 114 36 8 66 18
698 865 958 1064 1109 1081 1026 927 867 1180 1404 1553 1798 2003 1946 1848 1954 2172 2515 2841 3098 3181 3310 3485 3567 3513 3418 3363 3340 3402 3417 3332 3282 3280 3162 2990 2828 2553 2520 2550 2471 2415 2245 2251 2235 1991 1720 1363 1231 1200 1104 780 486 402 319 311 170 100 86 166 12 44 82
330 657 832 950 984 991 983 1054 1011 1092 1465 1576 1797 2087 2096 2018 1993 2112 2427 2774 3136 3290 3356 3496 3616 3570 3468 3406 3382 3390 3420 3346 3238 3209 3109 2960 2866 2638 2528 2524 2498 2405 2204 2019 2116 1940 1712 1468 1250 1050 798 584 460 365 316 418 229 121 41 166 94 51 132
287 484 705 826 812 707 751 1110 1167 1099 1288 1546 1739 2115 2202 2094 2058 2137 2328 2663 3055 3278 3392 3511 3602 3570 3454 3392 3421 3421 3418 3390 3269 3152 3022 2916 2900 2733 2600 2496 2451 2364 2230 2013 1900 1769 1596 1456 1275 1005 787 642 550 440 324 382 272 166 62 54 151 102 130
445 574 742 844 822 803 874 1072 1259 1254 1228 1303 1429 1873 2082 2184 2205 2172 2251 2511 2858 3167 3373 3491 3609 3585 3447 3365 3416 3440 3431 3391 3324 3164 2979 2874 2942 2840 2660 2568 2436 2322 2164 2139 1988 1811 1703 1492 1378 1229 1004 836 710 583 400 302 287 223 117 68 89 93 85
631 660 759 824 870 838 1047 1182 1182 1228 1224 1197 1423 1803 1923 2078 2150 2160 2136 2279 2630 2926 3270 3405 3561 3633 3508 3391 3368 3434 3418 3372 3340 3205 2995 2862 2864 2884 2709 2558 2501 2409 2198 2133 2107 1982 1791 1664 1491 1352 1164 994 854 692 565 467 344 344 201 137 102 67 52
728 718 721 808 791 773 1028 1160 1184 1170 1278 1682 1844 1939 1981 1976 1972 1947 2120 2104 2290 2612 2920 3245 3455 3644 3603 3449 3353 3388 3421 3362 3331 3254 3088 2918 2811 2798 2734 2525 2463 2489 2378 2130 2050 1989 1883 1716 1561 1462 1285 1096 957 784 624 549 440 306 290 219 172 103 58
686 693 774 873 802 882 1013 1151 1202 1605 1707 1942 2150 2148 2118 2122 2066 2037 2014 1988 2016 2445 2806 3156 3402 3612 3630 3507 3362 3350 3402 3374 3336 3299 3158 2995 2853 2702 2601 2469 2366 2404 2458 2322 2094 1929 1840 1721 1700 1597 1476 1270 1073 893 718 604 498 346 258 272 234 185 110
1136 916 838 876 848 872 1016 1218 1324 1711 2025 1979 2158 2309 2240 2197 2174 2137 2123 2081 2037 2379 2854 3283 3479 3531 3543 3509 3353 3278 3354 3392 3328 3301 3225 3053 2880 2700 2521 2397 2302 2296 2333 2350 2201 1984 1815 1743 1784 1759 1624 1487 1274 1080 911 760 603 432 276 239 354 289 211
1126 1041 851 810 797 1063 1087 1134 1138 1464 1894 2168 2291 2347 2424 2276 2234 2213 2171 2120 2095 2323 2805 3226 3536 3554 3503 3464 3302 3168 3252 3328 3341 3330 3260 3135 2926 2703 2521 2338 2191 2204 2244 2242 2192 2024 1850 1744 1803 1876 1811 1676 1489 1298 1120 953 766 557 385 252 254 291 270
1094 1014 912 930 1135 1192 1157 1173 1190 1219 1506 1598 1736 2067 2263 2390 2296 2250 2199 2156 2167 2190 2656 2991 3400 3521 3502 3542 3350 3157 3148 3204 3277 3350 3368 3240 3048 2826 2597 2379 2163 2079 2168 2150 2110 2013 1869 1720 1800 1896 1927 1848 1698 1499 1307 1133 938 706 475 374 290 210 214
1031 1016 960 853 1306 1468 1198 1279 1350 1376 1483 1904 1895 1876 2320 2540 2501 2300 2227 2198 2216 2216 2508 2789 3263 3433 3479 3604 3590 3366 3219 3167 3181 3226 3339 3388 3258 3030 2793 2565 2324 2176 2200 2235 2130 2002 1849 1714 1867 1955 1981 1934 1841 1684 1502 1297 1077 845 616 484 240 153 64
1663 2194 2288 2058 2293 1952 2027 2058 2409 2288 1886 1883 2711 2531 2262 2769 2750 2497 2330 2271 2261 2243 2217 2595 3093 3334 3368 3428 3705 3626 3458 3334 3288 3239 3220 3325 3384 3269 3019 2778 2589 2394 2291 2375 2388 2252 2034 1794 1959 2100 2082 2009 1912 1784 1619 1449 1260 1017 776 554 312 234 104
1749 2174 2510 2418 2274 2418 2431 2899 3244 3476 2818 2398 2774 3311 2771 2584 2849 2761 2519 2409 2349 2282 2258 2420 2799 3112 3201 3249 3643 3816 3782 3670 3588 3524 3405 3351 3404 3419 3287 3067 2838 2638 2453 2420 2590 2486 2374 2166 2239 2297 2225 2110 2002 1860 1737 1589 1441 1257 1026 779 535 439 247
1509 2266 2536 2620 2688 2994 3282 3496 3749 4077 4055 3697 3519 3549 3208 2865 2790 2832 2729 2564 2434 2352 2352 2222 2507 2795 2998 3024 3384 3789 3960 3992 3954 3924 3823 3691 3625 3566 3472 3304 3127 2927 2703 2444 2663 2702 2618 2463 2342 2342 2282 2196 2098 1987 1866 1738 1609 1448 1274 996 734 557 415
0 45 2353 2423 2352 2967 3184 3473 3540 3856 4292 4378 4179 3933 3399 3043 2862 2814 2687 2623 2547 2487 2392 2234 2351 2435 2614 2723 3040 3535 3881 4088 4146 4197 4144 4010 3868 3735 3613 3498 3364 3181 2958 2729 2720 2639 2615 2579 2493 2436 2336 2246 2163 2076 1978 1878 1787 1632 1403 1117 835 800 577
893 564 1026 2405 2851 3153 2992 2951 2950 3146 3468 3804 4040 4008 3692 3316 3038 2900 2804 2684 2563 2470 2410 2307 2213 2201 2187 2401 2594 3154 3701 4055 4197 4287 4293 4206 4051 3893 3740 3593 3472 3282 3071 2876 2836 2720 2554 2435 2508 2504 2424 2336 2234 2148 2050 1915 1780 1622 1406 1209 1193 1060 865
132 354 547 60 2274 3306 3448 3297 3030 3056 3290 3444 3480 3600 3732 3465 3124 2870 2690 2564 2428 2403 2362 2291 2136 1980 1917 2068 2158 2632 3448 3993 4228 4340 4353 4291 4196 4030 3855 3669 3482 3311 3102 2868 2881 2776 2636 2522 2409 2373 2323 2244 2146 2046 1956 1808 1615 1314 1255 1250 1232 1103 952
0 0 95 260 1291 2618 3430 3450 3372 3354 3426 3339 3402 3422 3484 3569 3359 3052 2669 2500 2347 2238 2205 2114 1936 1806 1914 1949 1966 2500 3437 3988 4250 4362 4373 4320 4250 4119 3964 3781 3550 3367 3171 2994 2834 2798 2715 2624 2552 2448 2331 2212 2106 1958 1737 1585 1540 1426 1410 1446 1472 1446 1400
0 0 0 13 801 2946 3713 3895 3795 3763 3598 3515 3441 3472 3509 3575 3612 3478 3152 2693 2399 2252 2148 2045 1945 2122 2294 2081 2243 3092 4037 4349 4386 4399 4394 4343 4282 4147 3999 3846 3704 3499 3256 3040 2845 2753 2648 2558 2500 2418 2296 2141 2122 2063 1908 1739 1800 1819 1816 1723 1584 1280 918
482 747 629 55 0 1873 3795 3946 3902 4044 3999 3726 3613 3690 3780 3760 3756 3671 3531 3232 2842 2622 2291 2041 1898 2201 2858 3145 3704 4265 4567 4550 4496 4445 4410 4397 4344 4238 4128 3980 3839 3673 3498 3309 3066 2895 2760 2672 2552 2452 2404 2376 2264 2093 1986 1964 1778 1468 1143 735 614 537 512
1546 1263 896 754 1090 1203 1456 3441 2760 2710 3746 4003 3891 3960 3992 3880 3785 3669 3617 3549 3233 2988 2952 2594 2051 2826 4156 4316 4466 4600 4622 4588 4467 4433 4429 4399 4324 4259 4185 4069 3947 3824 3623 3411 3202 3025 2897 2799 2661 2600 2474 2250 2175 2188 2046 1632 1206 828 662 623 572 532 480
1100 1132 945 881 3006 3462 1984 2999 3598 3816 3924 4069 4062 4039 4069 3978 3819 3628 3545 3525 3448 3273 3208 3182 3921 4457 4414 4403 4474 4543 4555 4510 4438 4402 4394 4311 4241 4180 4139 4081 4012 3911 3710 3447 3226 3018 2858 2708 2578 2480 2376 2287 2044 1940 1552 1192 994 763 710 637 615 613 613
2147 1712 1316 844 1352 4096 4321 3636 3597 4196 4490 4445 4370 4272 4203 4022 3944 3752 3607 3538 3497 3374 3730 4797 4769 4534 4355 4281 4345 4390 4421 4380 4334 4305 4251 4211 4157 4163 4179 4128 4006 3804 3489 3248 3007 2821 2693 2590 2527 2425 2309 2071 1776 1522 1352 1194 902 789 730 661 679 660 639
1810 1998 1821 1124 972 2031 4027 4086 3968 3852 4319 4559 4556 4445 4420 4182 4049 3970 3871 3842 3718 4194 4895 4925 4727 4543 4271 4167 4132 4188 4256 4278 4261 4243 4190 4167 4194 4252 4220 4069 3801 3385 3025 2808 2717 2607 2557 2446 2288 2221 2140 2014 1840 1530 1278 964 1090 1095 947 826 717 661 619
2042 1973 1967 2323 2198 2903 2949 3733 3667 3855 3890 4143 4324 4366 4510 4439 4384 4239 4193 4297 4555 4803 4871 4851 4678 4470 4262 4092 3986 4016 4087 4159 4189 4196 4246 4281 4273 4160 3974 3747 3169 2689 2527 2536 2434 2315 2182 2116 2012 1998 1820 1550 1358 1057 1059 971 837 780 687 643 615 592 584
1714 1847 2092 1866 2229 2578 3561 3990 3837 3554 3620 3735 4119 4540 4348 4539 4538 4407 4394 4915 4692 4711 4836 4736 4636 4486 4352 4133 4128 4184 4233 4330 4328 4268 4079 3914 3751 3641 3360 2786 2422 2352 2237 2009 1819 1589 1403 1323 1097 1022 1095 1065 926 904 1052 1096 820 642 538 532 542 557 569
1616 1793 1588 1871 1942 2380 2900 3246 3339 3198 3128 3279 3698 3891 3671 4172 4203 4693 4904 4878 4719 4730 4780 4712 4631 4534 4452 4454 4392 4372 4325 4355 4195 3966 3714 3315 2991 2585 2256 1767 1649 1570 1574 1800 1533 1427 1222 979 822 810 985 1064 856 940 1052 1003 863 710 511 486 470 470 476
1410 1554 1832 1812 1854 2087 2530 2784 2773 2717 2717 2693 2545 2525 2968 3681 4498 4684 4864 4742 4657 4594 4619 4638 4587 4609 4344 4260 3647 3403 3488 3390 3277 2702 2225 2085 1958 1827 1766 1674 1497 1379 1399 1452 1685 1492 1213 912 758 696 719 807 706 945 869 786 708 571 0 0 0 0 0
1418 1428 1535 1734 1731 1756 1907 2121 2236 2190 2167 2156 2067 2228 2576 2992 4148 4478 4502 4405 3822 3898 4052 3738 3710 4016 3811 3403 3119 3707 3177 2538 2032 1974 1993 1983 1931 1798 1729 1681 1390 1068 1114 1109 1292 1306 1073 843 752 604 505 126 517 836 723 587 484 0 0 0 0 0 0
1457 1566 1612 1501 1598 1482 1623 1798 1857 1909 2060 2252 2414 2882 2904 3037 2833 3197 3162 3238 3609 3611 3652 3562 3668 3591 3064 2566 2530 2282 2148 2003 1854 1837 1869 1860 1811 1687 1588 1477 1498 1256 1037 1008 910 932 872 867 714 162 103 85 440 788 716 564 318 0 0 0 0 0 0
1387 1502 1641 1563 1378 1435 1476 1651 1857 2239 2187 2266 2222 2246 2270 2445 2117 2193 2447 2989 3336 3110 3069 2396 2114 2117 2887 2388 2215 2105 2130 1975 1837 1747 1747 1729 1628 1492 1368 1386 1310 1346 1254 1026 828 464 0 30 0 0 378 30 371 766 744 662 600 0 0 0 0 0 0
851 963 1229 1407 1504 1324 1443 1530 1687 1911 2399 2449 2254 2162 1881 1955 2095 1823 2053 2382 2489 2319 2043 1907 2185 2025 2031 1990 2080 1999 1910 1900 1841 1713 1605 1542 1400 1356 1282 1141 1123 1115 1104 947 634 416 385 405 468 411 0 0 0 725 733 802 676 0 0 0 0 0 0

ECMWFFLT1_con_mucape_018.txt.gz
CAPE
5 1 0 5 79 310 659 742 739 774 876 1058 1140 1150 1167 1227 1368 1541 1841 2021 2000 1940 1968 2094 2091 1894 1826 1933 2000 1956 1875 1820 1956 2094 2069 2060 2055 2119 2201 2210 2267 2263 2195 2047 1898 1815 1941 2007 1909 1744 1617 1469 1292 1171 939 703 46 84 14 18 25 17 17
24 53 44 39 70 142 481 783 828 828 888 1066 1204 1241 1259 1290 1404 1515 1746 2008 2095 2060 2043 2119 2237 2150 1918 1831 1914 2040 2034 1984 2031 2132 2104 2043 2042 2057 2115 2130 2195 2241 2101 1824 1774 1872 1922 1934 1848 1608 1520 1419 1204 970 696 392 10 28 3 0 3 0 0
17 76 117 124 141 135 220 648 860 890 929 1072 1253 1310 1316 1352 1442 1537 1701 1952 2109 2128 2092 2114 2255 2298 2178 1998 1892 1958 2113 2182 2194 2196 2170 2103 2073 2050 2050 2027 2104 2140 1930 1738 1799 1850 1839 1842 1803 1623 1505 1448 1096 902 655 269 1 0 0 0 2 0 0
5 44 157 164 170 183 179 372 788 915 945 1033 1274 1385 1385 1387 1449 1540 1657 1882 2098 2148 2161 2136 2195 2327 2311 2195 2050 1946 2045 2240 2330 2323 2264 2142 2088 2050 2052 2099 2136 2053 1830 1733 1783 1750 1804 1766 1691 1587 1521 1497 1106 886 811 582 0 0 0 0 0 0 0
17 5 62 196 230 240 245 294 622 897 983 1026 1234 1401 1427 1414 1441 1501 1608 1836 2050 2161 2178 2182 2177 2262 2357 2294 2158 2030 2063 2224 2375 2406 2393 2274 2142 2057 2030 2045 2068 1956 1755 1693 1761 1744 1743 1720 1672 1584 1562 1478 1191 909 802 676 0 0 0 0 0 0 0
29 23 7 111 307 418 434 441 527 804 1014 1085 1196 1382 1438 1440 1432 1479 1585 1841 2008 2129 2175 2185 2194 2257 2346 2382 2332 2267 2222 2300 2395 2451 2461 2422 2281 2118 2065 2036 2007 1914 1659 1687 1772 1726 1729 1681 1647 1605 1582 1431 1194 935 738 521 5 0 0 0 0 0 0
48 48 51 96 227 481 521 550 601 779 1002 1149 1236 1393 1474 1469 1463 1502 1599 1830 1991 2121 2188 2230 2244 2284 2364 2439 2441 2431 2408 2447 2510 2541 2515 2490 2402 2266 2131 2066 2006 1892 1682 1712 1757 1744 1728 1685 1640 1612 1532 1398 1141 935 906 612 13 0 0 0 0 0 0
67 87 83 169 256 341 553 643 729 889 1092 1204 1318 1469 1513 1518 1519 1537 1644 1838 2029 2157 2246 2307 2321 2348 2403 2465 2505 2530 2544 2558 2599 2646 2628 2574 2504 2414 2274 2162 2023 1906 1757 1807 1777 1779 1757 1726 1672 1646 1533 1375 1124 898 595 1 11 0 0 0 0 0 0
48 131 129 204 388 387 492 604 741 1009 1209 1343 1438 1548 1598 1562 1582 1604 1687 1873 2075 2212 2331 2402 2426 2444 2472 2506 2543 2586 2653 2674 2684 2704 2710 2651 2575 2488 2377 2263 2181 2046 1880 1838 1845 1830 1778 1775 1723 1675 1602 1489 1142 799 569 2 1 1 0 0 0 0 0
28 143 190 294 412 546 546 414 621 950 1263 1419 1518 1626 1647 1634 1628 1655 1736 1904 2102 2256 2397 2502 2550 2565 2572 2576 2586 2620 2692 2776 2787 2767 2762 2738 2653 2548 2429 2291 2250 2166 1970 1898 1892 1864 1803 1725 1729 1742 1698 1549 1340 1084 835 593 34 343 23 2 0 0 0
109 247 373 328 394 617 628 616 636 760 1149 1420 1553 1673 1730 1731 1729 1726 1772 1971 2186 2291 2427 2574 2664 2701 2700 2696 2693 2668 2705 2801 2838 2820 2816 2798 2749 2661 2538 2380 2275 2234 2111 1997 1954 1958 1903 1791 1655 1593 1573 1508 1367 1194 1060 806 620 545 232 8 2 0 0
236 318 378 440 356 618 655 696 759 773 876 1220 1476 1639 1772 1810 1817 1808 1818 1993 2253 2410 2483 2629 2764 2834 2844 2823 2800 2766 2744 2783 2817 2839 2852 2836 2808 2728 2626 2488 2330 2242 2179 2112 2030 2018 2003 1933 1796 1627 1456 1414 1346 1258 1109 897 748 623 414 1 3 0 0
354 369 395 441 540 639 687 728 762 810 845 1058 1254 1467 1711 1816 1849 1851 1858 1958 2215 2474 2604 2719 2848 2952 2973 2946 2918 2880 2838 2816 2821 2829 2821 2816 2803 2744 2655 2551 2405 2272 2212 2158 2074 2010 2024 2010 1936 1790 1654 1455 1318 1223 1084 925 804 646 486 379 192 6 0
407 386 392 454 565 647 721 744 822 876 897 1000 1156 1322 1596 1784 1844 1861 1868 1931 2135 2403 2648 2783 2898 3024 3069 3044 3014 2987 2945 2897 2894 2868 2828 2787 2757 2708 2629 2566 2456 2305 2224 2199 2129 2040 1981 2000 1984 1886 1756 1633 1501 1361 1217 1026 844 705 604 539 453 303 66
392 393 435 419 509 669 749 825 867 972 1017 1012 1107 1241 1515 1748 1855 1878 1892 1919 2045 2296 2596 2809 2931 3056 3103 3090 3081 3058 3021 2990 2946 2920 2877 2817 2743 2667 2594 2531 2458 2332 2234 2190 2167 2124 2053 1950 1905 1872 1794 1682 1595 1464 1322 1155 1008 865 764 702 637 486 299
246 371 368 398 432 587 732 805 874 984 1008 1012 1077 1190 1487 1756 1894 1928 1951 1946 1998 2191 2480 2741 2917 3052 3124 3126 3111 3087 3056 3045 3006 2960 2920 2873 2780 2682 2595 2510 2460 2367 2249 2211 2177 2140 2114 2042 1930 1819 1744 1673 1594 1509 1420 1299 1168 1046 939 856 773 640 438
238 343 404 461 490 560 647 827 966 980 1022 1109 1142 1201 1424 1717 1923 2021 2035 2030 2044 2133 2345 2636 2855 3009 3153 3177 3145 3115 3081 3066 3053 3009 2969 2920 2842 2747 2626 2510 2428 2376 2291 2225 2203 2168 2110 2046 2016 1944 1859 1784 1696 1616 1556 1476 1355 1220 1115 1014 940 831 670
448 466 501 563 599 650 727 907 1038 1060 1133 1256 1363 1385 1471 1602 1796 1984 2100 2125 2119 2129 2223 2475 2732 2943 3123 3185 3181 3166 3127 3084 3065 3046 3006 2960 2901 2813 2697 2548 2394 2320 2300 2248 2223 2224 2183 2108 2050 2013 1978 1937 1866 1777 1679 1598 1492 1408 1299 1189 1092 1005 877
718 647 670 693 739 768 850 973 1042 1141 1286 1367 1491 1580 1651 1690 1718 1844 1986 2082 2107 2060 2108 2330 2599 2807 3034 3153 3188 3215 3172 3107 3076 3068 3038 3002 2952 2870 2751 2619 2447 2306 2239 2231 2225 2260 2262 2232 2143 2085 2025 1977 1934 1889 1817 1730 1628 1544 1466 1368 1288 1181 1071
882 826 783 820 845 865 952 994 1044 1101 1278 1443 1515 1623 1786 1856 1816 1830 1898 1992 2040 2031 2077 2203 2482 2732 2932 3086 3179 3217 3199 3162 3110 3083 3068 3028 2972 2909 2819 2683 2551 2392 2257 2198 2202 2207 2246 2254 2244 2188 2121 2048 1994 1954 1901 1856 1794 1735 1644 1557 1452 1355 1265
1051 930 856 940 923 996 999 960 1026 1088 1181 1392 1542 1578 1704 1950 1978 1926 1910 1986 2060 2109 2151 2112 2390 2681 2927 3074 3174 3204 3204 3189 3153 3120 3096 3044 2998 2944 2866 2772 2656 2513 2374 2256 2203 2191 2236 2279 2270 2236 2172 2099 2040 2002 1972 1954 1934 1890 1805 1710 1623 1540 1482
1255 1156 1107 1042 1081 1136 1091 1017 1020 1054 1122 1211 1424 1642 1708 1842 2082 2145 2070 2044 2141 2197 2176 2156 2285 2575 2867 3080 3192 3239 3237 3204 3176 3141 3093 3057 3008 2967 2918 2853 2751 2642 2507 2394 2307 2248 2217 2218 2248 2268 2233 2189 2140 2071 2004 1972 1969 1954 1860 1847 1797 1742 1684
919 1151 1253 1230 1286 1229 1179 1102 1039 1127 1320 1320 1281 1479 1725 1920 2061 2230 2296 2234 2233 2230 2188 2154 2195 2437 2754 3014 3169 3266 3313 3260 3187 3124 3076 3027 2987 2961 2954 2931 2889 2816 2703 2601 2497 2413 2344 2312 2345 2326 2321 2310 2295 2298 2326 2332 2267 2150 2058 2006 1894 1880 1818
477 426 342 507 1229 1524 1407 1285 1277 1410 1632 1689 1544 1450 1664 1802 1974 2200 2360 2412 2365 2284 2228 2151 2180 2320 2585 2886 3069 3217 3333 3360 3300 3220 3130 3056 2994 2936 2943 2993 3021 3032 2975 2876 2776 2693 2642 2591 2515 2495 2510 2517 2550 2541 2503 2458 2387 2314 2249 2130 2036 2006 1906
1233 833 380 216 266 1600 1711 1734 1952 2112 2320 2437 2577 2310 2008 2078 2010 2023 2205 2265 2260 2246 2222 2179 2195 2260 2385 2683 2944 3073 3210 3375 3423 3371 3281 3201 3145 3034 3017 3051 3096 3132 3139 3128 3062 2995 2950 2908 2864 2805 2732 2673 2613 2596 2547 2562 2492 2376 2275 2216 2107 2024 1817
1514 1434 1296 948 516 1 1305 2055 2327 2426 2370 2404 2632 2927 2867 2576 2386 2237 2250 2356 2367 2324 2286 2277 2295 2313 2339 2453 2697 2899 3026 3218 3481 3559 3522 3451 3374 3260 3228 3213 3192 3195 3199 3234 3239 3216 3170 3138 3129 3123 3070 2980 2855 2766 2603 2491 2415 2283 2244 2079 1967 1802 1703
1663 1581 1525 1468 876 1570 1273 1410 2244 2461 2430 2430 2542 2905 3288 3237 2794 2545 2453 2443 2464 2477 2468 2489 2470 2465 2488 2513 2533 2612 2806 2990 3379 3666 3753 3737 3673 3590 3492 3426 3368 3329 3331 3340 3380 3382 3378 3384 3403 3356 3259 3102 2912 2745 2581 2432 2391 2272 2146 2110 1964 1849 1580
1559 1589 1710 1504 1726 1494 2385 2628 2531 2703 2526 2441 2532 2840 3264 3550 3435 2992 2689 2596 2546 2544 2602 2650 2648 2638 2615 2616 2593 2587 2587 2764 3188 3617 3870 3987 3971 3845 3766 3681 3605 3560 3528 3510 3550 3554 3584 3579 3543 3464 3286 3113 2944 2812 2649 2507 2402 2355 2106 1932 1754 1432 1382
1298 1496 1516 1566 1448 1560 1875 2413 2968 2927 3142 2945 2732 2650 2889 3285 3574 3512 3217 2921 2780 2709 2715 2719 2710 2708 2673 2654 2647 2620 2590 2593 3084 3649 3929 4082 4109 4016 3924 3859 3798 3756 3708 3721 3750 3754 3723 3714 3624 3496 3352 3155 2978 2844 2726 2563 2288 2055 1865 1645 1238 744 886
1402 1304 1315 1409 1496 1661 1887 2513 3118 3492 3008 3116 3229 3427 3448 3040 3305 3486 3388 3191 3019 2890 2768 2731 2715 2696 2686 2680 2685 2652 2562 2740 3275 3791 4013 4122 4127 4058 3965 3893 3861 3832 3847 3866 3921 3904 3860 3794 3703 3566 3397 3215 3021 2806 2636 2400 2096 1871 1546 1225 774 620 590
1383 1374 1470 1481 1568 1514 1913 2490 3025 3618 3489 3553 3558 3542 3629 3513 3554 3352 3330 3403 3470 3569 3541 3068 2780 2618 2582 2793 2861 2864 3151 3414 3657 3908 4070 4121 4119 4066 3986 3846 3797 3861 3873 3989 4016 3971 3903 3878 3773 3615 3423 3175 2901 2629 2352 2043 1782 1598 1349 838 686 670 662
1306 1504 1476 1613 1424 1463 1637 2175 3138 3490 3671 3677 3848 3886 3658 3678 3627 3620 3509 3471 3478 3753 4193 3812 3452 3191 3273 3436 3471 3471 3581 3711 3803 3926 4048 4148 4169 4062 3920 3814 3764 3807 3937 4066 4093 4058 4016 4040 3900 3602 3207 2879 2501 2145 1847 1618 1588 1351 874 843 805 738 693
1492 1506 1576 1468 1555 1475 1606 1958 2634 3049 2982 3380 3564 3899 4212 4168 3874 3743 3693 3701 3740 3742 4074 3958 3768 3588 3578 3625 3620 3671 3742 3799 3873 3983 4086 4158 4120 3987 3846 3717 3717 3834 3936 4106 4112 4087 4108 4054 3762 3334 2871 2321 2050 1755 1652 1491 1220 899 812 773 813 786 726
1501 1478 1412 1370 1400 1477 1492 1674 1997 2432 2793 2640 2514 2966 3893 4366 4476 4298 3884 3529 3354 3524 3792 3913 3845 3803 3713 3816 3788 3770 3800 3784 3868 3980 4108 4116 4029 3928 3839 3796 3841 3833 3930 4208 4031 3943 4028 3913 3252 2709 2275 1955 1797 1695 1338 1123 922 812 772 700 728 698 678
1406 1476 1465 1364 1274 1170 1266 1411 1630 1911 2268 2540 2635 2404 2742 3380 4010 4094 3430 2990 3116 3095 3133 3470 3678 3665 3548 3503 3577 3709 3712 3696 3775 3887 3985 4044 3961 3921 3982 3964 3847 3685 3825 3833 3770 4049 3868 2990 2400 2168 2010 1882 1677 1280 1121 944 874 712 485 135 494 560 590
1381 1531 1538 1491 1411 1300 1269 1250 1365 1624 1841 2057 2260 2423 2665 3174 3490 3526 3386 3045 3286 3276 3175 3086 3104 3281 3321 3312 3484 3515 3647 3689 3644 3809 4011 4081 4034 4118 4235 3961 3468 3647 3588 3518 3761 3166 2487 2265 2178 2018 1824 1435 1138 959 781 730 750 672 505 0 0 224 507
1042 1168 1315 1389 1401 1450 1429 1368 1364 1580 1731 1899 2072 2290 2527 2916 3248 3588 3806 3881 3697 3421 3469 3398 3433 3482 3463 3566 3564 3527 3577 3506 3714 3900 4014 4098 4038 3927 4153 4283 3821 3211 3304 2824 2279 1937 1682 1581 1385 1076 1008 885 761 599 411 486 561 625 596 0 0 0 0
1353 1352 1398 1437 1455 1486 1539 1562 1522 1716 1870 1909 2005 2106 2249 2388 2665 3064 3289 3381 3480 3624 3718 3649 3567 3559 3435 3046 3325 3268 3304 3128 3492 3525 3298 3510 3786 3635 3796 3716 3494 2464 1777 1550 1337 1229 1044 825 709 603 603 550 638 504 463 298 181 540 556 0 0 0 0

ECMWFFLT1_con_mucape_021.txt.gz
CAPE
0 0 0 34 91 127 153 150 114 106 139 197 261 316 353 473 821 1003 1068 1086 1082 1061 1109 1292 1380 1379 1353 1281 1222 1226 1238 1234 1262 1348 1355 1350 1420 1558 1680 1743 1805 1908 2006 2065 2150 2262 2364 2438 2430 2476 2517 2542 2434 2339 2143 1555 706 500 482 445 62 19 12
0 0 0 5 63 115 147 184 173 167 182 226 267 348 395 448 648 926 1078 1119 1117 1120 1132 1237 1446 1456 1427 1368 1323 1319 1344 1349 1346 1480 1518 1482 1492 1566 1681 1796 1846 1891 1968 2053 2099 2146 2176 2273 2325 2434 2536 2577 2423 2230 1789 1112 568 479 430 370 7 9 14
0 0 0 0 19 92 140 170 214 241 243 276 333 367 439 496 621 861 1074 1170 1179 1177 1183 1215 1394 1530 1512 1472 1424 1421 1439 1452 1439 1488 1604 1613 1598 1615 1689 1811 1882 1910 1957 1992 2012 2040 2064 2186 2332 2406 2428 2346 2227 2029 1372 798 542 479 459 178 10 5 0
0 0 0 0 0 31 102 157 251 271 298 327 382 463 520 583 610 831 1051 1210 1228 1218 1214 1278 1357 1468 1572 1587 1542 1527 1537 1538 1536 1531 1590 1654 1671 1681 1708 1784 1866 1928 1950 1960 1948 1965 2028 2101 2204 2266 2226 2090 2045 1857 1368 754 530 445 486 233 2 1 0
0 0 0 0 0 0 40 126 228 291 412 442 474 539 590 618 680 822 1031 1233 1306 1292 1277 1335 1432 1473 1532 1624 1648 1640 1626 1627 1619 1605 1598 1638 1664 1706 1747 1790 1837 1886 1923 1965 1988 1994 2022 2026 2016 2008 1987 1986 1953 1741 1435 907 672 647 716 589 0 0 0
0 0 0 0 0 0 10 69 178 279 367 445 490 568 646 692 745 855 1017 1281 1417 1418 1391 1412 1496 1626 1590 1582 1649 1683 1688 1680 1668 1641 1624 1635 1659 1689 1724 1771 1807 1849 1886 1942 1972 2008 2022 1942 1825 1826 1874 1932 1868 1666 1531 1131 918 909 954 803 254 0 0
0 0 0 0 0 0 0 20 100 253 339 371 387 557 721 780 830 908 1028 1234 1479 1566 1559 1550 1606 1695 1741 1676 1637 1655 1686 1721 1719 1709 1678 1670 1709 1724 1735 1760 1774 1797 1826 1859 1915 1964 2011 1960 1731 1756 1844 1869 1788 1655 1568 1388 1114 1038 925 583 0 0 0
0 0 0 0 0 0 0 0 27 138 319 392 382 538 771 880 908 960 1070 1200 1437 1632 1682 1679 1704 1772 1856 1858 1772 1688 1689 1709 1757 1799 1796 1801 1812 1809 1812 1803 1800 1808 1813 1814 1847 1906 1965 1968 1783 1725 1751 1761 1701 1642 1591 1487 1258 1031 819 681 338 0 0
0 0 0 0 1 2 0 0 0 32 182 385 533 609 804 955 1009 1053 1124 1211 1400 1610 1741 1790 1816 1841 1927 1976 1954 1881 1794 1754 1764 1819 1896 1934 1941 1934 1912 1881 1870 1847 1839 1817 1829 1876 1959 1981 1808 1696 1669 1642 1621 1603 1564 1551 1400 1107 882 788 607 77 0
0 0 0 0 2 19 18 11 1 0 49 293 565 680 840 1007 1077 1120 1174 1258 1399 1573 1722 1836 1891 1916 1968 2033 2071 2050 1984 1921 1877 1854 1920 1985 2030 2056 2045 1992 1938 1904 1859 1840 1828 1914 1973 1998 1858 1695 1646 1609 1585 1565 1537 1536 1446 1178 848 809 759 558 20
0 2 2 4 4 19 54 46 32 35 64 264 516 722 861 1051 1152 1182 1226 1293 1414 1549 1696 1847 1933 1985 2004 2061 2122 2152 2138 2105 2030 1982 1954 2003 2058 2099 2122 2105 2041 1973 1925 1862 1839 1878 1939 1930 1885 1705 1654 1639 1611 1559 1501 1487 1396 1084 771 722 772 624 351
0 0 0 1 110 148 30 86 120 129 168 308 518 769 907 1070 1190 1237 1279 1338 1425 1551 1676 1825 1968 2033 2054 2075 2143 2198 2215 2197 2147 2090 2045 2056 2093 2117 2154 2180 2139 2073 2010 1930 1887 1912 1923 1937 1905 1808 1689 1658 1627 1573 1521 1453 1301 967 637 615 671 610 451
0 0 0 2 148 178 185 136 130 200 272 423 579 818 991 1123 1218 1279 1324 1374 1446 1555 1668 1827 1982 2072 2085 2121 2159 2200 2233 2240 2225 2178 2154 2173 2184 2198 2213 2230 2216 2165 2120 2044 1985 1959 1964 1970 1932 1874 1736 1700 1651 1631 1579 1476 1359 1080 789 661 687 645 478
1 0 0 2 152 196 202 198 169 386 468 596 760 907 1085 1210 1278 1327 1369 1416 1486 1580 1718 1872 2008 2084 2117 2152 2182 2209 2244 2275 2277 2265 2268 2271 2298 2314 2336 2319 2292 2260 2217 2179 2128 2080 2034 2008 1963 1918 1830 1736 1708 1684 1646 1539 1427 1338 1171 941 742 596 482
0 0 0 0 1 194 203 240 284 352 469 637 859 1030 1182 1303 1372 1398 1418 1454 1526 1641 1813 1948 2045 2126 2170 2195 2231 2238 2265 2309 2336 2361 2370 2380 2400 2420 2436 2428 2409 2357 2292 2247 2243 2213 2208 2172 2077 1998 1904 1786 1770 1765 1731 1672 1542 1469 1385 1268 1066 885 744
0 0 2 0 0 2 41 120 202 417 461 603 904 1123 1272 1399 1477 1497 1508 1535 1585 1715 1876 2002 2114 2196 2239 2279 2293 2307 2324 2366 2411 2444 2455 2490 2505 2514 2520 2519 2509 2453 2373 2307 2265 2258 2251 2230 2192 2116 1994 1869 1820 1829 1834 1825 1742 1602 1525 1437 1300 1158 1045
0 2 13 14 5 10 56 123 204 384 542 582 850 1149 1332 1482 1568 1586 1577 1596 1659 1789 1948 2066 2190 2252 2345 2380 2390 2399 2421 2457 2493 2507 2546 2569 2588 2614 2612 2602 2575 2534 2478 2393 2329 2304 2301 2284 2258 2207 2143 2044 1949 1904 1907 1906 1858 1743 1626 1536 1450 1338 1250
0 0 2 13 11 22 65 128 410 546 659 676 750 1062 1320 1508 1620 1667 1669 1679 1730 1854 2000 2160 2248 2325 2408 2484 2512 2530 2550 2581 2582 2588 2615 2625 2657 2662 2672 2655 2631 2595 2552 2494 2428 2389 2366 2341 2299 2286 2248 2181 2118 2060 2013 1964 1910 1845 1760 1655 1568 1498 1462
0 0 0 0 14 40 73 241 450 590 718 784 796 932 1204 1454 1638 1744 1786 1804 1833 1870 2047 2250 2347 2398 2460 2553 2648 2685 2699 2701 2705 2706 2699 2710 2706 2708 2692 2687 2662 2629 2586 2543 2483 2419 2416 2392 2331 2328 2306 2245 2179 2140 2122 2065 1988 1934 1855 1777 1725 1660 1624
9 0 0 0 7 105 415 434 532 636 754 858 910 968 1112 1292 1537 1734 1854 1919 1915 1909 2058 2288 2440 2500 2556 2642 2746 2828 2830 2837 2848 2837 2821 2796 2778 2751 2741 2709 2668 2626 2580 2529 2475 2452 2428 2408 2369 2341 2305 2258 2196 2167 2132 2102 2085 2026 1949 1863 1787 1744 1695
438 420 217 48 5 33 409 470 606 704 816 896 989 1045 1094 1219 1422 1612 1745 1842 1919 1949 2042 2214 2417 2540 2634 2707 2836 2920 2945 2970 2963 2954 2936 2906 2871 2844 2816 2770 2715 2641 2577 2503 2464 2453 2431 2374 2356 2336 2294 2251 2223 2180 2156 2111 2091 2058 2000 1931 1856 1800 1770
741 752 705 621 467 168 170 342 538 667 794 920 1022 1067 1123 1218 1380 1538 1663 1800 1906 1961 2027 2152 2313 2494 2618 2722 2878 2984 3031 3042 3039 3041 3024 2993 2963 2940 2908 2858 2790 2715 2617 2525 2463 2432 2386 2353 2320 2286 2233 2211 2210 2193 2172 2139 2115 2097 2054 1994 1970 1951 1932
847 862 826 752 761 774 672 615 625 710 832 964 1063 1149 1203 1268 1351 1494 1659 1789 1872 1943 2011 2080 2184 2354 2518 2676 2834 2985 3067 3076 3092 3099 3078 3049 3024 3004 2980 2934 2872 2793 2684 2587 2497 2430 2397 2361 2324 2264 2229 2224 2205 2205 2191 2177 2175 2166 2142 2118 2092 2078 2049
1044 1015 936 914 855 868 903 959 864 801 863 1054 1124 1188 1257 1310 1358 1505 1620 1766 1907 1977 2014 2028 2116 2238 2406 2575 2737 2916 3051 3111 3119 3122 3088 3075 3062 3043 3024 2986 2936 2848 2760 2684 2562 2460 2394 2328 2286 2268 2249 2238 2237 2236 2251 2261 2273 2262 2250 2230 2218 2195 2168
984 1060 1063 1118 1221 1426 1517 958 1166 1136 1022 1039 1192 1343 1381 1457 1522 1569 1642 1738 1893 2036 2103 2105 2142 2207 2323 2480 2631 2820 2993 3089 3129 3127 3121 3108 3098 3070 3040 3007 2968 2904 2838 2766 2646 2528 2425 2325 2256 2207 2189 2215 2249 2301 2323 2328 2342 2342 2360 2348 2316 2288 2476
904 1036 1032 1056 1180 1302 1399 1753 872 1297 1264 1175 1204 1358 1499 1560 1628 1742 1779 1804 1858 1954 2047 2135 2200 2246 2285 2380 2526 2706 2888 3022 3106 3152 3163 3154 3131 3089 3046 3008 2963 2930 2888 2827 2746 2643 2530 2377 2280 2177 2136 2144 2205 2272 2344 2377 2411 2424 2427 2402 2599 2674 2682
815 880 1070 1050 1208 1256 1270 1580 2366 1762 1518 1348 1480 1422 1324 1481 1631 1729 1896 1957 1937 1921 1978 2071 2140 2186 2215 2262 2374 2610 2821 2968 3078 3138 3157 3159 3146 3112 3065 3002 2969 2942 2922 2886 2816 2738 2622 2501 2357 2247 2179 2162 2189 2262 2337 2392 2447 2458 2608 2821 2818 2781 2700
721 843 942 1008 1223 1131 1211 1231 1638 2423 2926 2104 1942 1949 1790 1514 1543 1688 1812 1962 2050 2059 2055 2072 2086 2130 2179 2184 2268 2512 2772 2944 3058 3117 3134 3132 3135 3118 3090 3032 2968 2938 2944 2913 2866 2788 2715 2632 2492 2373 2294 2244 2255 2296 2361 2427 2495 2835 3033 2972 2865 2726 2578
856 957 957 968 960 1063 1122 1239 1576 2101 2978 3056 2664 2266 2406 2237 1895 1652 1710 1844 2005 2181 2232 2185 2169 2188 2210 2243 2217 2348 2648 2888 3054 3149 3173 3124 3112 3119 3096 3059 3003 2971 2961 2942 2876 2833 2784 2692 2595 2498 2420 2392 2385 2437 2545 2657 2941 3181 3114 2988 2794 2643 2467
870 950 843 904 1070 1018 1117 1227 1531 2050 2725 3065 3010 2741 2714 2731 2717 2481 2185 1800 1858 2012 2164 2296 2411 2412 2394 2361 2386 2379 2440 2750 2987 3129 3213 3223 3186 3144 3105 3074 3060 3020 2972 2934 2905 2873 2830 2736 2645 2595 2574 2572 2596 2691 2820 2976 3222 3248 3078 2924 2780 2626 2471
939 868 893 1029 1018 988 1055 1194 1372 1789 2386 3140 3381 3179 2988 2889 2820 2943 2888 2710 2532 2347 2390 2300 2294 2411 2474 2513 2504 2468 2468 2498 2790 3023 3208 3290 3245 3207 3173 3152 3100 3054 3006 2947 2917 2904 2823 2761 2708 2719 2724 2743 2842 2906 2801 2745 2927 3028 3014 2937 2823 2575 2061
1055 1067 1121 1175 1029 1049 1072 1071 1286 1412 1852 2573 3208 3508 3409 3222 3057 2913 3057 3145 3058 2892 2747 2592 2438 2367 2378 2404 2422 2443 2447 2442 2512 2819 3078 3276 3330 3298 3224 3180 3164 3131 3077 3001 2980 2934 2842 2781 2756 2764 2823 2857 2887 2882 2798 2479 2232 2387 3039 2910 2663 1922 1834
1058 1236 1284 1166 1246 1207 1145 1108 1080 1180 1430 1783 2234 3051 3552 3618 3402 3262 3077 2994 3198 3281 3205 3074 2948 2690 2525 2513 2508 2493 2462 2425 2399 2510 2881 3173 3304 3323 3278 3261 3265 3214 3116 3103 3022 2961 2876 2811 2804 2854 2924 3062 3035 2846 2722 2682 2281 2576 3068 2784 1854 1616 1619
1172 1279 1380 1446 1405 1396 1353 1231 1151 1191 1374 1475 1648 1961 2327 3060 3603 3686 3410 3239 3117 3436 3394 3372 3321 3267 3192 3029 2821 2699 2664 2639 2606 2551 2716 3044 3223 3309 3380 3413 3392 3342 3228 3131 3058 2944 2907 2851 2893 3014 3171 3111 2860 2848 2733 2132 2226 2708 2892 1982 1536 1220 961
1222 1286 1330 1466 1432 1495 1474 1348 1355 1285 1204 1318 1523 1773 2036 2156 2406 2872 3550 3839 3544 3241 3498 3441 3416 3415 3395 3353 3277 3182 3059 2926 2842 2753 2774 3043 3231 3358 3388 3423 3414 3408 3322 3213 3050 3028 2906 2979 3038 3137 3064 3098 3081 2850 2270 1966 2568 2770 1919 1548 1264 855 646
1140 1200 1228 1499 1360 1430 1515 1575 1521 1399 1352 1286 1348 1561 1825 2053 2288 2364 2550 2866 3543 3788 3545 3614 3499 3424 3376 3312 3279 3230 3117 2981 2847 2766 2769 2944 3132 3325 3439 3457 3446 3400 3409 3384 3196 3094 3070 3068 3265 3253 3024 3244 3090 2555 2352 2878 2788 1745 1416 1346 949 733 688
1055 1246 1268 1446 1337 1147 1423 1406 1459 1527 1496 1434 1358 1401 1543 1844 2077 2299 2472 2558 2745 3055 3550 3852 3787 3662 3536 3420 3322 3235 3158 3037 2851 2699 2650 2786 2924 3132 3304 3339 3546 3520 3479 3386 3241 3119 3086 3054 3141 2898 2974 3168 2712 2796 2624 2228 1615 1337 1239 901 713 718 730
1322 1371 1402 1398 1393 1389 1397 1364 1394 1432 1417 1582 1673 1660 1598 1695 1856 2086 2252 2459 2621 2712 2911 3184 3452 3806 3839 3755 3551 3381 3242 3096 2930 2762 2629 2689 2738 2815 2911 3091 3206 3352 3334 3404 3282 3113 3222 3668 2945 2640 2886 2942 2739 2651 1968 1402 1188 1070 865 681 653 650 702

ECMWFFLT1_con_mucape_024.txt.gz
CAPE
4 28 59 56 40 52 72 61 45 41 46 44 44 82 222 391 540 587 657 696 737 770 801 845 908 1007 1073 1112 1115 1115 1136 1113 1062 1056 1006 982 981 1018 1076 1158 1272 1396 1530 1678 1866 2113 2360 2334 2213 2267 2239 2194 2160 2186 2193 2220 2114 1946 1962 2088 2104 1608 421
0 0 25 35 34 33 39 52 28 16 26 44 43 63 135 314 520 606 647 708 744 758 778 810 907 970 1055 1092 1086 1091 1103 1125 1114 1152 1068 1037 1019 1100 1144 1212 1264 1336 1452 1606 1706 1900 2204 2280 2274 2246 2274 2250 2238 2250 2252 2241 2104 2059 2157 2232 2057 1222 352
0 0 5 19 26 27 40 33 19 14 12 29 50 47 96 230 442 628 665 702 750 774 780 793 877 936 1016 1070 1085 1086 1083 1090 1110 1123 1122 1103 1075 1072 1188 1278 1314 1341 1416 1562 1674 1772 2025 2197 2287 2254 2315 2357 2353 2356 2348 2274 2194 2185 2261 2246 1802 878 147
0 0 0 2 17 20 21 28 38 16 8 10 35 61 69 160 300 547 684 718 747 776 802 816 849 926 990 1059 1092 1100 1088 1072 1078 1105 1127 1127 1107 1095 1219 1317 1384 1426 1452 1537 1663 1702 1873 2045 2216 2283 2312 2382 2413 2386 2333 2289 2286 2300 2269 2080 1465 597 48
0 0 0 0 0 0 1 13 30 33 21 10 8 70 82 101 184 387 638 746 762 781 812 856 872 956 1070 1047 1083 1096 1098 1086 1073 1076 1097 1112 1111 1107 1232 1325 1410 1487 1534 1556 1620 1679 1790 1944 2067 2197 2279 2326 2320 2276 2261 2300 2333 2310 2145 1785 1200 430 42
0 0 0 0 0 0 0 0 16 33 36 26 14 24 69 86 106 245 495 764 832 845 839 851 894 1069 1118 1107 1119 1126 1114 1096 1078 1075 1084 1094 1232 1251 1294 1363 1438 1520 1586 1612 1624 1638 1728 1829 1927 2047 2146 2174 2193 2166 2202 2262 2298 2227 2010 1546 978 318 44
0 0 0 0 0 0 0 0 1 21 36 40 28 23 45 50 127 208 340 598 821 890 906 917 930 977 1177 1203 1204 1263 1169 1154 1130 1125 1111 1121 1289 1362 1388 1428 1471 1500 1582 1624 1610 1626 1680 1762 1851 1962 2008 2063 2122 2133 2170 2151 2088 2024 1919 1414 774 383 36
0 0 0 0 0 0 0 0 0 2 24 36 26 22 32 60 131 202 290 466 700 865 930 968 986 1004 1086 1276 1263 1258 1269 1239 1216 1194 1196 1194 1328 1429 1452 1496 1520 1507 1550 1603 1636 1634 1674 1719 1815 1857 1918 1974 2024 2067 2095 2002 1921 1888 1794 1451 838 456 12
0 0 0 0 0 0 0 0 0 0 9 26 36 59 63 118 158 234 327 430 599 800 918 965 1016 1049 1112 1245 1322 1357 1352 1334 1315 1321 1296 1342 1309 1439 1423 1476 1521 1543 1581 1607 1630 1659 1668 1721 1760 1809 1847 1893 1935 1960 1909 1843 1822 1815 1706 1447 1094 672 538
0 0 0 0 0 0 0 0 0 0 0 13 40 82 118 197 260 290 354 436 572 757 891 964 1010 1070 1166 1234 1284 1359 1413 1438 1431 1418 1404 1397 1399 1412 1450 1499 1542 1590 1612 1624 1634 1648 1680 1722 1747 1779 1809 1840 1874 1868 1749 1686 1714 1748 1660 1479 1216 954 697
0 0 0 0 0 0 0 0 0 0 0 6 47 86 159 248 334 377 422 482 597 749 870 982 1094 1114 1175 1257 1328 1356 1416 1478 1501 1508 1503 1493 1482 1482 1509 1545 1579 1606 1630 1642 1651 1645 1671 1718 1754 1778 1782 1786 1804 1796 1743 1619 1626 1651 1609 1484 1364 1219 964
0 0 0 0 0 0 0 0 0 0 0 0 26 106 186 289 392 451 500 577 643 757 880 1024 1144 1200 1246 1320 1398 1498 1446 1467 1502 1543 1578 1586 1584 1586 1588 1610 1628 1637 1643 1651 1649 1652 1644 1683 1730 1756 1764 1756 1756 1755 1756 1676 1569 1558 1519 1466 1404 1348 1262
0 0 0 0 0 0 0 0 0 0 0 0 8 87 209 278 396 499 599 664 719 797 907 1073 1226 1365 1366 1410 1470 1593 1600 1535 1522 1544 1580 1624 1663 1672 1682 1686 1690 1688 1699 1674 1696 1688 1670 1661 1694 1718 1734 1735 1716 1730 1770 1750 1605 1532 1492 1434 1364 1340 1326
0 0 0 0 0 0 0 0 0 0 0 0 4 85 220 312 414 557 679 745 802 868 973 1124 1325 1462 1529 1577 1620 1668 1691 1684 1705 1638 1607 1635 1680 1729 1783 1773 1780 1777 1766 1764 1758 1755 1721 1695 1689 1711 1707 1710 1700 1718 1767 1807 1714 1523 1469 1424 1378 1316 1277
0 0 0 0 0 0 0 0 0 2 0 0 10 68 224 364 472 604 732 818 882 954 1058 1212 1354 1518 1618 1691 1734 1759 1796 1849 1871 1835 1810 1796 1698 1742 1793 1834 1869 1874 1873 1858 1846 1808 1791 1742 1712 1702 1718 1703 1694 1714 1752 1804 1774 1636 1476 1444 1435 1378 1256
0 0 0 0 0 0 0 0 1 24 40 40 33 81 194 385 570 694 825 899 966 1046 1127 1224 1400 1545 1680 1754 1800 1834 1860 1934 1987 2002 1966 1936 1844 1824 1857 1869 1907 1942 1960 1956 1934 1896 1854 1771 1742 1712 1708 1694 1688 1698 1736 1760 1758 1721 1618 1480 1448 1433 1337
0 0 0 0 0 0 0 0 0 12 87 104 100 134 239 436 621 767 875 953 1033 1120 1196 1297 1463 1561 1690 1832 1868 1884 1931 1982 2054 2092 2083 1986 1949 1931 1920 1930 1954 1990 2017 2014 1995 1962 1900 1819 1758 1729 1691 1680 1671 1690 1708 1742 1756 1768 1714 1619 1513 1465 1429
0 0 0 0 0 0 0 0 0 7 70 154 210 252 330 497 660 816 926 1027 1111 1188 1241 1339 1489 1590 1738 1848 1922 1956 2000 2039 2087 2138 2145 2083 2075 2052 2034 2032 2046 2050 2047 2042 2027 1996 1948 1896 1830 1786 1734 1690 1685 1678 1684 1704 1752 1788 1758 1714 1620 1559 1546
0 0 0 0 0 0 0 0 0 19 70 159 341 426 468 585 711 878 1015 1132 1195 1246 1296 1426 1533 1651 1790 1829 1964 2034 2058 2079 2124 2172 2181 2152 2148 2126 2114 2126 2122 2114 2094 2081 2058 2037 2020 1985 1908 1849 1787 1734 1716 1712 1703 1702 1718 1751 1758 1750 1715 1635 1627
0 0 0 0 0 0 0 0 0 22 66 176 327 481 584 698 796 958 1088 1178 1226 1305 1439 1538 1614 1737 1842 1929 1998 2081 2111 2122 2121 2155 2186 2204 2194 2183 2178 2180 2188 2184 2178 2164 2122 2076 2064 2038 2000 1950 1892 1841 1790 1762 1715 1742 1774 1780 1784 1794 1776 1723 1708
0 0 0 0 0 0 0 0 0 14 63 136 226 425 584 788 935 1072 1154 1259 1299 1384 1521 1594 1694 1778 1880 1965 2046 2114 2164 2208 2230 2182 2208 2222 2228 2220 2228 2243 2259 2248 2240 2216 2195 2156 2131 2106 2080 2042 2014 1977 1935 1879 1850 1836 1824 1844 1873 1881 1873 1834 1820
769 625 604 550 0 0 0 0 0 18 95 238 380 431 574 862 1021 1154 1291 1330 1364 1427 1543 1664 1740 1816 1913 2018 2107 2189 2248 2285 2299 2256 2260 2258 2276 2354 2348 2317 2330 2331 2314 2285 2279 2254 2218 2178 2134 2106 2074 2047 2011 1971 1948 1886 1867 1879 1899 1929 1941 1916 1924
776 827 807 943 945 828 531 474 0 22 187 339 452 589 647 793 1027 1219 1357 1410 1445 1492 1557 1697 1804 1880 1985 2079 2166 2265 2353 2391 2396 2316 2339 2406 2425 2444 2452 2391 2398 2392 2376 2350 2349 2322 2300 2238 2208 2182 2138 2105 2072 2040 2006 1946 1940 1965 1984 1994 1994 1990 1987
699 803 807 923 1188 1133 1156 921 588 117 231 378 560 693 771 794 935 1232 1416 1507 1556 1580 1618 1748 1871 1968 2062 2131 2205 2336 2425 2492 2514 2510 2497 2452 2489 2534 2539 2472 2448 2445 2427 2415 2400 2382 2381 2347 2306 2266 2205 2177 2133 2088 2085 2027 2018 2048 2070 2064 2062 2024 2016
568 671 744 840 1128 1492 1445 1286 1006 892 806 720 695 766 836 866 899 1155 1405 1568 1655 1682 1724 1779 1901 1995 2092 2183 2274 2350 2487 2549 2621 2594 2611 2624 2606 2574 2627 2537 2517 2489 2466 2454 2445 2435 2413 2402 2372 2325 2284 2250 2192 2182 2122 2062 2068 2081 2089 2086 2064 2041 2029
309 447 590 722 733 1097 1684 1830 1664 1209 1014 1110 1150 1052 934 927 958 1110 1297 1484 1630 1726 1797 1875 1943 1962 2036 2172 2288 2373 2494 2609 2675 2712 2709 2723 2656 2644 2637 2644 2582 2549 2535 2534 2522 2494 2463 2462 2378 2384 2346 2310 2256 2230 2164 2120 2097 2080 2083 2062 2036 2022 2032
217 288 510 600 698 767 1068 1895 2640 2454 2069 1738 1161 1176 1168 1099 1010 1104 1224 1338 1478 1654 1812 1918 1975 1991 2022 2140 2228 2348 2552 2657 2727 2760 2761 2700 2736 2752 2724 2714 2691 2660 2621 2606 2573 2548 2537 2501 2473 2431 2406 2365 2321 2253 2222 2152 2116 2126 2073 2046 2022 2009 2005
242 313 237 372 576 639 799 1025 1831 2575 2616 2174 1730 1188 1186 1196 1187 1151 1242 1306 1410 1598 1744 1836 1926 1988 2014 2071 2150 2305 2544 2702 2810 2809 2806 2816 2796 2772 2816 2818 2778 2744 2719 2706 2658 2615 2582 2583 2572 2554 2520 2465 2431 2375 2289 2201 2161 2162 2128 2065 2021 2006 2016
204 178 160 184 408 599 635 764 1085 1921 2818 2789 2350 1892 1511 1309 1298 1294 1340 1429 1502 1569 1630 1728 1847 1926 1977 2018 2067 2170 2452 2630 2741 2828 2891 2876 2841 2858 2901 2914 2878 2844 2820 2814 2782 2738 2696 2668 2640 2610 2598 2563 2571 2522 2429 2318 2263 2199 2194 2138 2082 2084 2008
19 82 140 390 497 577 623 652 717 1014 1943 2929 2966 2636 2512 2176 2011 1798 1660 1540 1620 1624 1607 1653 1757 1860 1940 2005 2040 2111 2268 2478 2652 2791 2901 2954 2955 2937 2964 2954 2951 2928 2901 2899 2877 2830 2822 2779 2722 2677 2635 2616 2621 2592 2527 2490 2388 2289 2222 2180 2180 2166 2328
0 56 400 398 527 661 639 650 550 626 778 1448 2639 3174 2896 2713 2498 2401 2399 2322 2252 2136 2087 2008 1875 1742 1878 1986 2087 2119 2175 2328 2535 2708 2894 2993 3000 3007 2970 2973 2966 2976 2946 2916 2901 2885 2859 2846 2807 2741 2684 2657 2611 2583 2594 2564 2440 2358 2236 2171 2230 2356 2610
402 163 292 404 548 726 782 752 724 663 716 788 876 1594 2791 3363 3315 2887 2755 2648 2606 2581 2562 2463 2319 2186 2132 2009 1959 2109 2190 2242 2377 2608 2794 2896 2965 3022 3024 3005 2980 2983 3012 2988 2954 2922 2917 2930 2861 2789 2742 2716 2630 2581 2604 2567 2509 2380 2249 2217 2240 2319 2570
596 418 338 448 667 754 747 858 904 856 916 805 852 928 1051 1351 2196 2884 3324 3434 3315 3074 2859 2883 2808 2735 2659 2530 2476 2364 2144 2030 2178 2408 2652 2799 2888 2956 3003 2984 2984 2991 3012 3022 2982 2980 2968 2927 2938 2907 2850 2746 2661 2645 2638 2631 2607 2452 2327 2278 2286 2290 2590
729 845 841 799 828 710 822 918 944 918 923 976 1034 1127 1058 1060 1217 1487 1769 2165 2836 3354 3506 3349 3107 3024 2994 2861 2780 2756 2686 2554 2482 2342 2436 2675 2813 2882 2911 2952 2977 2987 2987 2995 3006 2966 2943 2948 2954 2935 2857 2718 2690 2690 2702 2686 2623 2530 2381 2370 2302 2346 2623
1015 979 978 826 986 950 837 932 1013 1014 981 1014 998 1160 1092 1274 1398 1364 1363 1648 1964 2265 2421 3018 3476 3534 3307 3155 3110 3033 3003 2985 2880 2744 2608 2490 2700 2852 2957 2928 2956 2959 2947 2924 2940 2941 2915 2892 2922 2936 2914 2811 2663 2676 2693 2607 2572 2546 2486 2544 2304 2406 2445
1070 1085 949 1039 1052 1161 1154 1152 1156 981 935 908 1054 1068 1096 1286 1470 1554 1551 1562 1674 1773 2037 2381 2514 2885 3433 3526 3380 3402 3296 3340 3209 3181 3081 2950 2794 2660 2848 2928 2914 2876 2874 2884 2902 2901 2905 2840 2777 2785 2775 2814 2766 2689 2654 2659 2637 2512 2482 2497 2263 2309 2358
1095 1019 994 745 680 640 738 864 1015 967 897 1033 1139 1189 1186 1373 1463 1615 1688 1800 1783 1844 1901 1978 2173 2520 2736 2867 3195 3462 3426 3344 3307 3256 3162 3025 3068 3028 2966 2844 2896 2906 2933 2922 2886 2826 2838 2879 2768 2650 2622 2649 2636 2740 2644 2615 2528 2468 2585 2457 2172 2039 2327
1055 975 871 772 688 715 799 976 1065 1091 1088 1272 1302 1315 1340 1342 1560 1633 1713 1672 1563 1454 1533 1769 1896 2070 2315 2550 2762 2929 3091 3260 3401 3436 3347 3232 3115 2990 2965 2944 2834 2808 2940 2930 2896 2807 2798 2758 2780 2741 2713 2689 2698 2655 2481 2315 2101 2393 2465 2374 1998 2158 2291

ECMWFFLT1_con_mucape_027.txt.gz
CAPE
823 814 792 833 855 836 853 1038 1084 1028 1037 1072 1045 1012 1030 1160 1284 1545 1649 1834 1968 2036 2240 2197 2195 2174 2243 2344 2394 2488 2504 2480 2385 2208 2120 2103 2038 2156 2274 2285 2380 2626 2567 2804 2910 3153 3579 3455 3263 3069 2881 2810 2746 2697 2661 2695 2853 2734 2906 2380 2458 2479 2433
758 732 768 812 848 854 921 1040 1118 1040 1007 952 994 1024 927 1077 1422 1433 1529 1859 1893 1944 2109 2104 2089 2144 2191 2289 2342 2451 2468 2404 2351 2203 2141 2092 2102 2228 2284 2322 2365 2662 2782 2760 2985 3410 3654 3535 3350 3242 3117 2944 2779 2860 2598 2786 2698 2768 2904 2376 2324 2196 2296
628 661 736 759 757 791 939 978 1051 938 968 888 864 868 925 1199 1384 1365 1632 1626 1818 1932 2020 2044 2084 2107 2128 2244 2278 2355 2344 2330 2296 2210 2087 2022 1982 1715 1965 2214 2411 2491 2582 2670 2976 3222 3417 3521 3372 3270 3140 2992 2854 2788 2702 2640 2776 2583 2660 2650 2279 2399 2281
434 533 651 749 844 908 990 875 941 869 846 801 814 786 894 1235 1198 1462 1578 1414 1698 1892 1908 1948 1970 1921 2030 2178 2237 2279 2251 2271 2272 2110 1961 1944 1942 1876 2005 2163 2236 2178 2408 2560 2635 2775 2919 3199 3313 3262 2970 3030 3020 2914 2773 2654 2591 2708 2427 2414 2421 2388 2357
194 357 497 710 831 936 820 866 872 885 739 692 758 892 1041 1069 1032 1205 1306 1410 1404 1612 1660 1825 1682 1759 1941 2040 2057 2100 2191 2232 2217 2115 2071 2031 2087 2114 2096 1962 2066 2087 2191 2406 2536 2774 2948 3130 3091 2922 2724 2572 2864 2927 2806 2466 2616 2664 2557 2445 2429 2272 2208
81 232 356 528 589 696 801 788 721 732 740 671 694 795 785 706 772 808 1013 1275 1336 1384 1644 1687 1657 1742 1865 1918 1917 1982 2124 2187 2232 2226 2208 2181 2248 2128 2033 2000 1983 2102 2018 2337 2450 2579 2815 2912 2890 2836 2579 2474 2650 2798 2735 2629 2425 2544 2467 2397 2244 2284 2060
146 205 143 215 394 566 658 694 653 638 672 640 609 687 663 576 644 716 829 1092 1200 1417 1559 1548 1557 1620 1912 1804 1861 2049 2164 2137 2152 2154 2149 2154 2202 2141 2061 2093 2158 2136 2155 2444 2420 2458 2649 2790 2868 2860 2699 2673 2806 2895 2908 2753 2488 2406 2408 2275 2286 2308 2088
162 294 262 202 214 344 486 625 635 589 614 646 549 530 544 522 550 592 696 904 1092 1171 1305 1339 1454 1724 1747 1768 1826 1940 2080 1944 1933 1996 1989 2017 2048 2139 2128 2137 2227 2278 2341 2418 2554 2552 2535 2748 2861 2898 2838 2814 2965 3062 3047 2868 2410 2272 2258 2186 2217 2234 2037
88 480 341 71 66 77 209 478 612 600 705 766 629 615 500 497 480 553 646 780 983 1052 1238 1235 1297 1516 1880 1933 2036 2049 1962 1920 2007 2030 2038 1959 1952 1948 1956 2098 2186 2237 2390 2325 2288 2580 2497 2738 2744 3006 3132 2958 2954 3000 3078 2870 2430 2473 2088 2285 2254 2187 1934
61 352 674 272 36 9 66 271 640 813 978 1015 969 947 618 558 588 552 596 693 833 994 1128 1205 1274 1564 1960 1912 1848 1894 1974 2092 2051 1913 1865 1826 1850 1856 1841 1882 2053 2257 2325 2264 2177 2515 2547 2674 2779 3032 3188 3049 2920 2897 3022 2790 2229 2345 2121 2335 2246 2164 1969
144 519 736 371 358 233 204 58 473 732 1009 1000 1044 888 829 750 690 553 594 648 729 964 1084 1242 1310 1460 1693 1707 1704 1755 1946 1934 1958 1933 1878 1814 1781 1820 1805 1828 1925 2072 2123 2167 2208 2436 2630 2692 2788 2991 3120 3063 3167 3110 2830 2558 2438 2298 2229 2244 2160 2121 1996
294 391 783 926 980 688 328 393 728 701 883 1034 1206 958 996 989 715 594 650 748 717 842 1043 1212 1328 1440 1604 1612 1609 1864 1933 2032 1888 1856 1880 1826 1841 1838 1845 1862 1947 2089 2145 2145 2254 2464 2580 2724 2764 2810 3008 3014 3059 3048 2897 2684 2580 2440 2550 2211 2034 1939 1943
126 542 690 428 833 886 1171 1166 1031 687 832 1004 826 996 1011 896 765 621 926 897 704 772 972 1194 1390 1664 1622 1615 1608 1945 2058 2018 2009 2031 1967 2041 2008 1998 2001 1967 1990 2085 2190 2172 2256 2405 2577 2685 2797 2775 2902 3010 2983 3047 3148 2838 2505 2632 2693 2367 2060 1944 1915
136 49 149 380 452 664 1030 1359 1261 1029 1050 972 962 1109 915 1020 941 916 1060 983 856 807 974 1231 1562 1816 1864 1826 1808 2022 2132 2134 2268 2293 2278 2248 2284 2274 2192 2172 2145 2227 2320 2383 2352 2408 2549 2647 2771 2860 2789 2908 2922 2980 3000 2838 2700 2800 2742 2462 2126 1941 1879
0 0 144 307 821 1056 1015 1132 1401 1233 1054 1045 794 853 955 1031 1015 1288 1359 1044 1122 873 992 1469 1731 1967 1963 2060 2105 2275 2388 2371 2449 2582 2556 2498 2534 2480 2419 2433 2442 2462 2510 2570 2505 2473 2567 2635 2712 2822 2776 2738 2858 2844 2699 2397 2668 2737 2630 2522 2281 2061 1853
0 0 0 18 477 656 1164 1195 1331 1541 1352 1218 896 1204 918 1153 1241 1124 1083 1182 1248 1169 1114 1329 1935 2138 1804 2013 2319 2599 2629 2740 2775 2858 2841 2696 2782 2827 2708 2653 2698 2644 2739 2842 2667 2648 2633 2637 2710 2687 2742 2700 2783 2792 2533 2192 2230 2270 1899 1903 2326 2162 1898
158 170 0 1 188 460 932 1192 1204 1451 1595 1553 1306 1226 1229 1202 1114 1189 988 1081 1066 1344 1260 1472 2118 1751 1835 2002 2319 2452 2666 2709 2750 2708 2778 2850 2892 2827 2799 2844 2830 2818 2903 2844 2783 2675 2715 2712 2689 2593 2632 2674 2644 2506 2324 2071 2046 1960 1732 1651 1616 1967 1994
238 465 493 53 17 38 350 626 961 1148 1320 1157 988 1048 1098 1224 1260 1186 1030 1097 1170 1224 1274 1432 1612 1664 2142 2409 2691 2891 2806 2723 2854 2866 2834 2858 2855 2903 2876 2840 2830 2864 2890 2823 2824 2836 2756 2698 2698 2750 2578 2562 2602 2608 2378 2128 1966 1918 1706 1618 1605 1556 1867
260 454 697 542 335 306 89 55 360 1060 888 926 1012 879 815 1099 1058 1315 1282 1374 1433 1512 1384 1494 1595 1926 2169 2378 2618 2860 2960 3006 2994 2964 2973 2930 2854 2890 2908 2940 2937 2953 2943 2894 2897 2801 2818 2758 2601 2659 2571 2499 2555 2241 2190 2318 1963 1860 1678 1617 1596 1604 1619
176 152 315 492 529 497 597 582 365 333 715 1078 1162 906 776 796 989 1408 1311 1430 1704 1702 1827 1983 1838 2094 2501 2920 3060 3136 3091 3075 2971 3005 3094 3067 2997 2974 2980 2939 2958 2922 2927 2913 2960 2918 2734 2533 2582 2624 2479 2450 2260 2245 2387 2460 2094 1896 1684 1634 1610 1630 1669
1286 1322 1760 1804 1669 1382 1194 930 857 889 860 692 569 796 918 858 963 1295 1407 1547 1676 2016 2222 2439 2227 2386 2621 2866 2960 3122 3210 3266 3181 3207 3202 3254 3181 3096 3020 2978 2970 2985 2904 2828 2852 2848 2756 2570 2394 2391 2560 2401 2361 2444 2282 2364 2096 1958 1733 1668 1617 1619 1641
1849 1758 1703 1998 1998 2108 2224 1870 1141 628 672 719 730 835 954 965 825 869 1056 1242 1564 1943 2363 2492 2550 2646 2902 2990 3032 3141 3238 3220 3299 3342 3344 3255 3187 3140 3104 3107 3173 3133 3056 2844 2752 2748 2800 2501 2464 2557 2579 2486 2546 2303 2266 2470 2060 1897 1787 1710 1664 1609 1622
1671 1850 1627 1788 1734 1809 1985 2081 2149 1863 1038 756 684 706 819 859 907 962 1108 1335 1555 2672 2481 2636 2863 2832 3051 2964 2973 2961 3168 3196 3275 3344 3342 3323 3293 3204 3184 3221 3286 3288 3111 2900 2803 2705 2538 2623 2724 2717 2732 2714 2350 2303 2263 2458 2248 1935 1812 1748 1696 1663 1638
1288 1448 1459 1567 1744 1882 2113 2144 2234 2187 1348 699 822 714 895 950 1226 1612 1978 1953 1892 2198 2416 2752 2699 2862 3000 2882 2905 3076 3196 3346 3370 3357 3358 3365 3331 3308 3254 3240 3363 3297 3182 3083 2949 2616 2772 2605 2531 2754 2735 2448 2419 2352 2368 2571 2511 2065 1887 1788 1724 1685 1686
1069 1083 1284 1415 1548 1724 1858 2186 2570 2190 1438 946 818 1116 1618 1606 1785 2236 2496 2588 2326 2666 2886 2670 2651 2851 2943 3035 3076 3434 3438 3512 3515 3500 3486 3524 3470 3378 3398 3360 3377 3322 3211 3125 3087 2974 3010 2699 2593 2715 2501 2542 2578 2408 2304 2684 2535 2246 1976 1872 1803 1740 1701
939 925 1166 1581 2004 1981 1790 2333 3223 2204 1378 1187 1774 1961 2025 1920 2380 2240 2805 2809 2582 2287 2396 2634 2767 3046 3024 3015 3248 3244 3295 3197 3533 3615 3500 3568 3505 3478 3466 3425 3315 3405 3356 3238 3080 2994 2926 2640 2796 2772 2583 2543 2706 2496 2386 2391 2724 2349 2280 2037 1964 1897 1851
493 542 769 1163 2146 2397 2226 2312 2651 2618 2455 2826 2902 1942 2091 2362 2307 2683 2966 3054 2878 2640 2452 2734 3058 3238 3333 3349 3009 2994 3446 3464 3510 3449 3570 3522 3606 3377 3315 3333 3396 3375 3334 3178 3084 3076 3114 3110 2741 2658 2827 2692 2552 2477 2459 2501 2802 2387 2351 2206 2085 2017 1936
419 380 434 581 1566 2472 2560 2360 2350 2409 2393 2430 2401 2058 2175 2473 2718 3002 3047 2909 2910 3102 2712 3037 3070 3150 3314 3340 3172 3102 3288 3393 3420 3594 3582 3528 3533 3550 3366 3354 3361 3400 3430 3279 3212 3111 3096 3116 3101 3045 2876 2873 2641 2759 2576 2493 2404 2408 2364 2286 2214 2100 2044
225 274 306 487 962 1638 2455 2555 2207 1964 1961 1990 2079 2288 2185 1992 2633 2853 2958 2926 3261 3051 3015 3126 3210 3496 3510 3612 3382 3378 3428 3495 3630 3691 3656 3739 3700 3604 3605 3617 3505 3493 3556 3504 3303 3184 3324 3362 3286 3262 3235 3065 3041 2974 2924 2950 2457 2301 2339 2354 2343 2264 2158
176 319 390 538 620 609 1376 2340 2684 2638 2345 1999 1750 1933 2470 3543 2992 2950 3058 3626 3004 3034 2679 2983 3385 3619 3508 3541 3662 3729 3590 3676 3658 3743 3802 3801 3673 3685 3728 3744 3662 3638 3717 3738 3519 3384 3310 3340 3472 3364 3013 3121 3092 3031 2879 3094 2976 2458 2408 2464 2450 2416 2292
239 376 464 512 633 578 635 954 1920 2664 2856 2741 2433 2209 2004 2396 3235 3152 2845 2569 2940 3487 3570 3085 3124 3395 3538 3416 3354 3540 3580 3798 3842 3892 3846 3855 3880 3852 3887 3959 3840 3760 3800 3722 3574 3502 3457 3367 3273 3312 3222 3145 3070 3256 3460 3266 3128 2586 2516 2544 2566 2501 2468
315 419 504 592 672 781 759 774 857 1126 1489 2286 2866 2982 2790 2621 2429 2302 2310 2432 2521 3100 3668 3743 3304 3178 3297 3373 3507 3596 3560 3656 3669 3916 3888 3948 3844 3968 4032 3892 3815 3732 3799 3685 3577 3574 3448 3437 3164 3212 3230 3139 3102 3246 3357 3207 2829 2651 2548 2538 2541 2543 2570
294 364 441 546 600 785 815 824 904 985 1090 1141 1185 1236 1638 2402 2930 2970 2964 3013 2938 2913 2922 3813 3815 3370 3240 3325 3394 3476 3460 3426 3296 3418 3648 3870 3870 3872 3995 3916 3921 3725 3791 3730 3630 3566 3409 3252 3366 3433 3118 3276 3094 3172 3191 3050 2690 2575 2518 2491 2528 2556 2569
276 374 385 430 527 754 907 907 900 1044 1050 1215 1328 1336 1360 1342 1274 1329 1509 1790 2399 2741 3088 3222 3420 3605 3700 3263 3218 3355 3356 3484 3210 3048 3174 3458 3585 3628 3695 3881 3903 3903 3868 3784 3696 3687 3626 3579 3471 3259 3143 3300 3244 3156 3444 2776 2638 2587 2618 2662 2554 2562 2568
292 354 377 424 455 572 686 850 950 1004 1039 1300 1390 1400 1388 1303 1292 1244 1235 1382 1526 1940 2128 2434 2720 3203 3556 3578 3653 3560 3090 2870 2769 2892 3040 3237 3569 3719 3888 4043 4046 3935 4004 4035 3951 3810 3692 3653 3530 3544 3515 3191 3366 3430 2905 2734 2641 2661 2559 2476 2525 2516 2557
302 398 440 537 666 565 646 882 953 1070 1153 1275 1262 1320 1248 1260 1256 1144 1088 1084 1237 1432 1632 1898 2240 2336 2506 2682 2981 3082 3190 3363 3141 3010 2879 2646 3038 3488 3933 3616 3662 4144 4111 4035 3570 3458 3358 3363 3620 3640 3633 3422 3297 3306 3060 2692 2691 2659 2562 2411 2458 2561 2487
170 239 412 478 571 637 754 895 1024 851 968 1058 1139 1159 1281 1235 1210 1037 946 806 1112 1287 1338 1489 1617 1598 1622 1612 1912 2272 2623 2858 3084 3209 3313 3270 3214 3111 3026 3074 3373 3013 3071 3254 3370 3299 3204 3216 3215 3310 3348 3461 3781 3316 2806 2796 2627 2445 2524 2441 2243 2304 2458
481 579 728 781 910 808 678 739 913 998 1044 1141 1109 1216 1178 1166 1044 915 796 764 834 849 1015 1285 1312 1290 1254 1425 1708 1580 1764 1767 1792 2214 2622 2991 3145 3224 3282 3258 3230 3462 3087 2901 2851 3016 3053 3112 3058 3048 3026 3037 2983 3175 2817 2721 2671 2692 2590 2456 2352 2205 2340

ECMWFFLT1_con_mucape_030.txt.gz
CAPE
1136 1430 1526 1731 1919 1944 2047 2286 2475 2448 2505 2631 2722 2870 2749 2734 2730 2919 2988 3314 3502 3792 3712 3690 3392 3138 3140 3044 3092 3288 3441 3418 3498 3546 3445 3403 2987 2900 3050 2975 3042 3110 2795 2974 3163 3066 3370 3362 3211 3550 3685 4100 3867 3653 3679 3755 3654 3441 3393 3288 3136 2912 2992
919 1110 1376 1634 1853 1987 2054 2197 2509 2417 2462 2666 2780 2857 2682 2747 2841 3017 3085 3325 3518 3599 3770 3630 3596 3430 3292 3088 3058 3140 3235 3504 3746 3652 3469 3448 3290 3072 3128 3243 3108 3315 3219 3006 3084 3447 3459 3776 3543 3740 3793 4047 3807 3576 3468 3502 3348 3392 3187 3385 3145 3039 2912
819 1018 1314 1564 1733 1922 2129 2115 2325 2426 2484 2390 2560 2744 2747 2858 3063 3088 3133 3226 3531 3652 3763 3596 3687 3601 3352 3047 3208 3369 3338 3435 3388 3323 3176 3294 3504 3031 3101 3294 3280 3085 3321 3138 3170 3451 3599 3961 3938 4051 3905 3742 3534 3669 3723 3667 3574 3366 3577 3599 3313 3164 3210
861 1039 1216 1503 1811 2052 2215 2152 2246 2308 2288 2360 2418 2472 2637 2990 3070 3050 3078 3178 3509 3641 3728 3630 3744 3484 3438 3462 3544 3460 3371 3300 3442 3279 3053 3494 3587 3253 3088 3313 3374 3102 3117 3218 3089 3100 3424 3828 4239 4167 3961 3781 3665 3516 3593 3330 3338 3350 3440 3675 3504 2986 3040
735 995 1161 1482 1774 1978 2073 2136 2177 2345 2196 2157 2257 2660 2841 2820 2876 2889 2915 2938 3066 3494 3349 3531 3452 3377 3473 3462 3336 3340 3573 3627 3504 3385 3488 3726 3484 3522 3269 3086 3252 3218 3080 3159 3184 3290 3402 3955 4128 4080 4139 3859 3923 3752 3688 3532 3206 3409 3441 3464 3241 3031 2803
518 1044 1141 1400 1655 1805 1957 2042 2064 2148 2147 2073 2172 2408 2462 2524 2542 2548 2718 2790 2956 3158 3334 3294 3383 3490 3404 3404 3300 3258 3620 3523 3288 3443 3476 3480 3528 3377 3390 3292 3196 3249 2915 3054 3100 3248 3522 3698 3813 3908 3879 3913 3644 3228 3485 3315 3046 3202 3356 3415 3195 2996 2679
142 988 1237 1327 1526 1698 1918 2005 1925 1938 2078 2002 1970 2185 2282 2263 2306 2264 2432 2706 2862 2956 3010 3010 2953 3117 3421 3287 3254 3361 3542 3569 3605 3428 3312 3664 3532 3499 3481 3337 3129 3106 3078 3106 3180 3230 3438 3734 3688 3641 3870 3604 3544 3351 3428 3392 3170 3228 3409 3395 3232 3103 3049
6 542 1394 1483 1319 1482 1677 1916 1887 1878 1894 1984 1788 1890 2053 2017 2104 2118 2274 2446 2481 2421 2752 2769 2752 3014 3269 3236 3158 3279 3539 3449 3536 3538 3709 3595 3539 3398 3384 3322 3209 3262 3312 3132 3263 3388 3352 3728 3719 3542 3771 3468 3505 3557 3430 3565 3401 3226 3259 3410 3156 3030 3034
41 786 1369 1253 1207 1149 1452 1838 1938 1864 1897 1895 1842 1863 1893 1956 1886 2062 2145 2131 2302 2322 2366 2427 2538 2704 3216 3253 3206 3414 3470 3388 3523 3563 3518 3358 3274 3131 3123 3238 3304 3220 3210 3081 3000 3404 3413 3580 3623 3618 3693 3746 3600 3638 3567 3734 3392 3296 3288 3352 3305 3232 3272
90 1232 1656 1215 945 835 1100 1313 1731 1936 1873 2016 2058 2050 1922 1938 1922 1917 1955 1942 1986 2064 2058 2187 2356 2629 3037 3207 3211 3260 3268 3357 3286 3197 3291 3186 3123 3010 3020 3046 3213 3262 3176 3067 2925 3198 3472 3401 3630 3756 3993 3993 3741 3788 3891 4012 3457 3234 3236 3389 3492 3520 3675
1081 1379 1648 1321 1019 916 892 966 1553 2128 2100 2522 2316 1912 2022 1954 1902 1810 1842 1798 1789 1862 1920 2101 2254 2407 2745 2942 2919 2886 3103 3085 3113 3026 3138 3047 2991 2945 2986 2969 2950 3104 3103 3084 2982 2924 3451 3452 3566 3764 4000 3997 3904 3918 4088 4038 3704 3238 3018 3230 3446 3740 3824
1707 1242 1889 1804 1458 1143 915 1115 1518 2254 2365 2548 2261 2032 2097 2132 1912 1755 1657 1711 1658 1703 1898 1990 2106 2258 2521 2793 2808 2847 2978 3010 2909 2787 3005 2859 2910 2757 2798 2730 2703 2852 3081 3101 3052 3056 3186 3614 3555 3655 4002 4103 4042 4007 4050 4122 3726 3245 3120 2959 3170 3698 3917
1018 1602 1491 1230 1867 1645 1453 1443 1505 2168 2775 2449 2108 1965 2014 1902 1840 1699 1792 1716 1620 1589 1723 1967 2110 2303 2319 2614 2689 2827 2862 2862 2949 2920 2724 2898 2775 2726 2592 2575 2483 2550 2879 3044 3068 3072 3071 3430 3794 3664 3904 4228 4174 4142 4252 4140 3750 3494 3251 3211 3355 3710 4023
711 599 1008 1168 1923 2424 2302 2114 1974 2220 2886 2357 2071 2072 1927 1933 1802 1756 1740 1720 1651 1502 1563 1812 2095 2229 2335 2554 2693 2804 2738 2813 3062 3120 3004 2910 3058 2913 2773 2795 2678 2753 2790 3032 3102 3042 3115 3251 3740 3820 3779 4057 4186 4192 4211 4161 3800 3541 3354 3177 3252 3503 3990
0 0 1003 2013 2553 2801 2859 2756 2892 2562 2347 2202 1672 1737 1906 1792 1761 1748 1790 1750 1748 1497 1490 1724 2007 2224 2274 2536 2876 3021 2975 3094 3147 3110 3148 3024 3159 3157 3049 2954 2986 2979 2882 3073 3254 3154 3156 3181 3560 3892 3844 3871 4056 4124 4090 4042 3898 3517 3164 3070 3130 3276 3504
4 0 0 78 2604 3045 3256 2884 2955 3044 2654 2385 1646 1665 1687 1839 2028 1845 1822 1784 1691 1701 1473 1639 2011 2372 2386 2498 2898 3104 3158 3274 3252 3418 3386 3281 3352 3411 3255 3174 3218 3055 3126 3164 3274 3397 3272 3316 3488 3680 3822 3786 3901 4006 4058 3968 4054 3287 2685 2578 3159 3396 3345
0 0 2 102 1412 2056 2563 3258 2823 3205 3144 2787 2272 1848 1849 1885 1964 1830 1680 1608 1599 1740 1570 1547 2102 2287 2446 2648 2898 3180 3403 3511 3548 3700 3697 3588 3482 3599 3556 3339 3262 3332 3342 3253 3397 3546 3500 3410 3478 3542 3701 3752 3790 3830 3912 3914 3838 3202 2775 2532 2560 3125 3508
1 0 2 0 662 984 1893 2192 2884 3057 3172 2867 2672 2230 1955 2169 2012 1878 1613 1566 1632 1696 1640 1580 1854 2266 2738 2722 3179 3403 3622 3834 3856 3897 3954 3853 3702 3751 3763 3582 3538 3484 3453 3484 3501 3726 3593 3484 3574 3688 3581 3666 3714 3678 3779 3928 3455 3112 2733 2445 2407 2636 3276
0 0 0 0 1602 2326 1091 565 888 2668 2258 1957 2320 2150 1968 2065 1879 1986 1968 1868 1775 1837 1730 1587 1734 2308 3044 3056 3374 3600 3931 4196 4172 4250 4188 4129 4015 3948 3904 3853 3662 3692 3628 3479 3614 3679 3753 3789 3656 3696 3664 3567 3768 3631 3679 3780 3310 2888 2688 2555 2463 2488 2734
0 0 0 1 688 1124 1408 1578 1330 1003 1593 2011 1854 1785 1964 1987 1825 1916 2034 1782 1806 1898 2022 1954 1896 2534 3262 3432 3582 3976 4374 4419 4220 4276 4273 4337 4206 4128 4102 3966 3892 3796 3773 3700 3741 3680 3766 3600 3514 3558 3680 3565 3558 3754 3740 3760 3327 2948 2562 2320 2264 2402 2411
0 90 628 726 1204 1114 2087 2641 2604 2594 2250 1620 1228 1390 1776 1820 1731 1780 1932 1852 1720 1951 2843 2456 2513 2680 3321 3673 3638 4032 4480 4377 4230 4296 4383 4403 4352 4227 4193 4076 4042 3933 3775 3667 3762 3724 3591 3513 3262 2962 3456 3278 3124 2931 3550 3608 3250 2968 2566 2305 2248 2254 2264
0 4 290 1242 2906 4232 4368 3495 3318 2672 2317 2076 1747 1374 1413 1696 1658 1437 1593 1777 1755 1972 2383 2770 2763 2630 3122 3720 3624 3979 4288 4320 4253 4160 4028 4088 4210 4196 4180 4138 4133 4060 3985 3704 3643 3658 3556 3567 3571 3275 2971 2860 2748 3060 3134 3028 3018 2792 2590 2468 2362 2264 2164
590 2618 2925 3114 2769 2909 3519 3856 3639 3368 3396 3174 2212 1612 1300 1239 1479 1492 1368 1733 1804 2343 2542 2762 3066 3088 3371 3976 3928 3988 4305 4301 4096 3958 3957 4126 4197 4088 3999 4062 4164 4126 3988 3816 3655 3630 3716 3722 3337 3119 2942 2902 3161 2963 3162 3194 3134 2637 2441 2491 2477 2374 2269
2065 2329 2376 2686 3066 3002 3399 3722 3750 3691 3697 3436 3314 2191 1610 1383 1592 1764 1802 1831 1991 2366 2848 2956 3319 3523 3834 4026 3892 3836 4125 4168 4052 4079 4158 4242 4292 4228 4082 3971 4038 4034 4039 3961 3715 3531 3688 3632 3627 3383 3196 3076 3136 2744 3152 3238 3137 2815 2615 2530 2465 2408 2285
2269 2240 2538 2563 2643 2784 3030 3473 3684 3842 3722 4026 3325 2528 1907 1780 1740 1884 2003 2057 2103 2462 3007 3135 3174 3477 3652 3837 3686 3917 4146 4107 4144 4257 4298 4258 4263 4188 4216 4039 4068 3948 3995 3917 3816 3631 3562 3437 3376 3348 3329 3149 2879 2775 2792 3237 3136 2862 2820 2599 2492 2413 2308
2403 2165 2398 2163 2336 2545 2747 3416 3951 4491 3681 3013 3062 2427 2192 1931 1913 1970 2115 2146 2059 2162 2744 3164 3132 3228 3276 3478 3604 3880 4043 4060 4296 4376 4399 4413 4338 4387 4330 4131 3990 4080 4010 3971 3779 3762 3634 3300 3271 3418 3362 3142 2782 3066 2773 2830 3434 2827 2861 2814 2636 2430 2341
1824 1780 1862 1911 2068 2290 2730 3185 3781 3747 3579 4022 3517 3192 2695 2330 2113 2278 2556 2708 2641 2410 2648 3133 3222 3400 3541 3734 3640 3791 4267 4355 4472 4422 4432 4445 4559 4308 4092 4108 4087 4009 4098 3951 3840 3801 3698 3414 3120 3161 3136 3214 3186 3046 2798 3172 3043 3165 2845 2835 2752 2604 2374
1422 1574 1556 1759 1977 2164 2311 3102 3584 3550 3493 3394 3398 2719 2754 2739 2645 2822 2991 3159 3168 2972 2628 2976 3400 3575 3884 4127 3804 3728 4312 4408 4311 4489 4503 4511 4534 4568 4268 4131 4147 4142 4186 3928 4001 3896 3646 3606 3418 3019 3123 3187 3188 3392 3170 3188 2890 3396 2831 2816 2798 2737 2550
1357 1404 1520 1867 2048 1824 1952 3036 2997 3118 3195 3011 3328 3449 2880 2626 2913 3000 3214 3549 3527 3201 2945 2955 3450 4135 4328 4384 3973 3954 4342 4553 4414 4478 4516 4568 4592 4536 4343 4262 4204 4240 4265 4389 4270 4130 4029 4000 3642 3216 3426 3419 3468 3439 3540 3610 3470 2813 2780 2759 2744 2763 2722
1198 1468 1488 1510 1574 1757 1758 2424 2715 2996 3128 2940 3166 3785 4422 3063 3272 3534 3460 3568 4621 3996 3602 3748 4112 4382 4408 4392 4252 4159 4116 4277 4313 4583 4561 4634 4561 4522 4396 4441 4416 4512 4518 4469 4275 4022 3818 3779 3972 3793 3435 3397 3546 3195 3280 3690 3673 3176 2834 2778 2715 2705 2739
878 1052 1238 1358 1391 1446 1662 2070 2456 2811 2883 2786 2947 3119 3706 4521 4678 4629 4623 4430 4578 4396 3744 3959 4194 4388 4242 4159 4048 4020 3920 4031 4444 4595 4539 4398 4476 4512 4510 4526 4529 4508 4650 4580 4168 3885 3836 3841 3776 3922 3730 3248 3673 3710 3512 3611 3666 3991 3298 3021 2808 2744 2689
819 838 849 1048 1302 1360 1569 1810 2056 2291 2354 2576 2647 2665 2834 3151 3524 3785 3634 3593 3901 4376 4428 4066 3871 4109 4162 4182 4144 4220 4155 4248 4404 4525 4511 4370 4341 4536 4625 4602 4476 4456 4604 4240 3692 4032 4005 3804 3630 3626 3778 3665 3829 3718 3703 3921 3784 3958 4258 3390 3070 2830 2743
942 905 846 982 954 1296 1588 1741 1811 1852 1937 2164 2367 2281 2245 2438 2503 2634 2772 3242 3456 3774 4262 4540 4113 3892 3912 4072 4020 4121 4189 4150 3969 4090 4272 4418 4262 4254 4572 4540 4468 4421 4496 4305 4025 3890 3957 3858 3663 3736 3672 3692 3755 3865 3892 3696 3778 4025 4249 3558 3192 2937 2825
968 914 864 931 1018 1160 1286 1316 1499 1591 1770 1835 1811 2148 2226 2159 2184 2171 2443 2739 3122 3519 3960 4150 4238 4234 4072 3943 3875 4018 4142 4185 3849 3767 3900 4178 4166 4098 4072 4258 4284 4346 4454 4389 4252 4090 3958 3953 3946 3591 3565 3642 3644 3737 3831 3856 3900 3896 3976 3599 3349 3083 2931
831 948 992 1034 1026 1200 1384 1392 1399 1576 1744 1835 1878 1874 1674 1639 1938 2114 2321 2426 2901 3473 3679 3878 4188 4695 4296 4160 4258 4171 4099 4211 4073 3728 3633 3825 3847 3856 4090 4066 3998 4081 4136 4205 4345 3927 3908 4032 3507 3833 3770 3720 3702 3782 3772 3881 3788 3912 3653 3410 3437 3335 3089
694 806 805 978 1093 1222 1157 1399 1467 1475 1673 1851 1781 1684 1556 1467 1396 1670 1911 2168 2530 2838 3193 3349 3444 3369 3747 4061 3861 3893 3851 3800 3590 3615 3549 3528 3536 3667 3361 3294 3377 4670 4820 4195 3916 3882 3808 3612 3791 3729 3320 3314 3580 3692 3733 3923 3938 3538 3450 3461 3408 3257 3184
704 846 950 1006 1188 1293 1305 1326 1362 1377 1525 1616 1650 1652 1550 1365 1329 1419 1512 1727 1911 2210 2712 2820 2750 2836 3199 3130 3290 3014 3545 3585 3799 3629 3893 3723 3710 3621 3430 3486 4084 3324 3249 3291 3422 3643 3898 3832 3683 3514 3456 3349 3969 3870 3382 3395 3456 3432 3502 3466 3343 3293 3192
678 872 988 892 894 861 992 1222 1382 1516 1634 1629 1572 1655 1623 1518 1598 1488 1372 1298 1379 1744 1977 2176 2461 2622 2654 2644 2438 2168 2440 2878 2642 2716 3178 3541 3689 3564 3418 3484 3806 3952 3838 3248 3154 3135 3105 3166 3442 3641 3672 3616 3396 3164 3142 3340 3514 3596 3381 3372 3379 3229 3146

ECMWFFLT1_con_mucape_033.txt.gz
CAPE
290 314 825 1867 2131 2200 2603 2909 2998 2967 2950 3141 3203 2788 2767 2700 2892 3462 3670 4228 4451 4612 4507 4288 4097 4092 3944 3707 3634 3501 3361 3586 3184 3188 2915 2752 2467 2487 2990 3497 3636 3562 2797 2711 2980 2938 2794 2849 2383 2556 2791 3243 3444 3338 3400 3676 3833 3784 3573 3587 3488 3160 3132
23 92 485 888 2053 2301 2434 2956 3176 3061 3079 3254 3352 3090 2740 2898 3064 3286 3604 4180 4390 4700 4561 4538 4292 4254 4064 3908 3588 3660 3753 3676 3449 3310 2984 3064 2997 2817 2792 3378 3456 3613 3288 2547 2758 3097 3010 3064 2782 2710 2857 3213 3620 3624 3441 3584 3914 4040 3291 3695 3428 3375 3158
183 20 293 747 1584 2211 2534 2848 3220 3180 3121 3270 3478 3306 2980 3182 3103 3420 3740 4250 4482 4750 4578 4482 4447 4228 4200 4030 3788 3802 3798 3762 3753 3585 3259 2962 3094 2714 2822 3135 3414 3336 3464 2975 2628 2891 3206 3236 3374 3079 3182 3306 3604 3810 3532 3480 3858 3972 3421 3478 3611 3299 3388
242 29 274 428 806 2279 2546 2766 3253 3246 3172 3237 3484 3539 3249 3393 3226 3418 3679 4203 4515 4721 4684 4596 4470 4297 4192 4046 3996 4072 3995 3887 3648 3642 3389 2956 3161 3170 3021 3140 3415 3302 3340 3301 2695 2467 2875 3322 3534 3608 3602 3621 3698 3701 3631 3312 3382 3704 3582 3525 3433 3240 3494
22 8 40 134 596 1803 2604 2605 3051 3280 3165 3212 3444 3707 3585 3401 3349 3385 3675 3974 4190 4364 4460 4462 4194 4126 4074 4028 3810 3838 3961 3991 3999 3594 3736 3519 3427 3710 3333 2992 3196 3344 3250 3256 3228 2849 2930 3438 3743 3957 3824 3901 3859 3558 3482 3497 3364 3634 3790 3758 3686 3026 3235
0 87 36 95 501 1238 2502 2650 2828 3159 3109 3111 3344 3695 3628 3554 3486 3402 3570 3760 3926 4016 4327 4322 4210 4266 4026 4019 3827 3714 3775 4019 4154 4039 3948 3994 3809 3778 3543 3283 3208 3494 3015 3105 3154 3166 3152 3241 3706 4073 4169 3972 3646 3292 3219 3686 3584 3468 3850 3826 3826 3158 3012
20 151 40 16 150 622 1942 2737 2585 2876 2990 2883 3126 3520 3531 3519 3527 3342 3418 3649 3668 3999 3986 3952 3902 4106 4282 4004 3908 3776 3930 3903 4122 3998 3915 3940 4178 3606 3620 3848 3528 3424 3361 3018 3130 3120 3330 3532 3784 3875 4314 4251 4024 3312 3200 3704 3572 3621 3844 3908 3810 3648 3277
7 221 283 513 310 825 2005 2685 2526 2584 2867 2803 2862 3234 3511 3534 3494 3405 3333 3532 3470 3480 3814 3583 3752 3864 4307 4139 3842 3640 3876 3755 4002 4107 3799 3963 3841 3844 4083 4067 3873 3558 3635 3190 3245 3495 3638 3741 3717 3869 4052 4252 4286 3782 3256 3728 3838 3452 3176 3548 3557 3672 3440
1 124 138 279 742 505 910 1997 2558 2453 2758 2827 2764 3042 3222 3280 3351 3268 3346 3389 3376 3445 3585 3425 3409 3600 4194 4132 3959 3874 3833 3812 4128 4016 3893 3935 3509 3725 3859 4068 3948 3887 3730 3300 3200 3605 3535 3732 3790 4018 4138 4286 4164 4144 3576 3835 3867 3568 3267 3444 3510 3519 3284
36 116 364 319 333 300 570 875 2287 2770 2856 3053 2991 3086 3118 3103 3235 3320 3243 3124 3200 3166 3352 3305 3226 3450 4060 4248 3945 3922 3938 4101 3914 3840 3796 3443 3496 3286 3322 3144 3708 4062 3778 3622 3074 3372 3782 3670 3898 4272 4318 4222 4090 4212 4006 3853 4030 3909 3499 3459 3541 3604 3597
15 482 769 886 991 852 599 506 1940 3187 3057 3809 3669 2714 3075 3143 3153 3100 3138 3006 2986 3051 3018 3260 3147 3184 3836 4161 3728 3663 3871 3840 3612 3746 3488 3284 3089 2815 2775 2790 3347 3850 3858 3702 3073 2706 3504 3869 3990 4398 4462 4288 4178 4059 4168 4120 4172 4176 3769 3458 3516 3614 3551
1185 1439 1520 879 652 612 809 2175 3361 4100 3914 4101 3116 2742 3269 3476 2938 2776 2908 2995 2865 2834 2834 2996 2960 3040 3545 3918 3695 3694 3775 3951 3530 3394 3480 3101 2964 2594 2708 2770 3152 3430 3666 3441 3214 2710 2889 3846 4002 4272 4646 4528 4405 4284 4284 4334 4338 4300 4025 3401 3368 3578 3503
681 1184 1770 1251 1524 1223 1709 2504 3076 3526 3804 3134 2772 2598 2644 2727 2816 2706 2885 2884 2707 2676 2834 3068 2997 3096 3285 3817 3686 3772 3680 3802 3457 3473 3257 3424 2895 2772 2760 2894 2813 2654 2976 3487 3324 3190 2758 3253 4194 4126 4600 4834 4629 4362 4573 4593 4290 4455 4338 3712 3374 3385 3443
105 937 1494 1660 1973 2104 2056 2177 2468 3216 3577 2995 2610 2624 2492 2522 2524 2764 2781 2678 2650 2503 2638 2787 3004 3182 3396 3797 3836 3898 3684 3750 4026 3895 3897 3724 4028 3535 2987 2888 2728 2730 2804 3521 3602 3388 3161 3046 4009 4250 4392 4834 4764 4626 4654 4673 4648 4622 4649 4036 3401 3371 3514
0 50 1080 1085 1934 2821 2690 2453 2762 2885 3173 3173 2578 2535 2584 2490 2417 2768 2803 2654 2664 2445 2423 2635 2949 3110 3186 3682 4052 4221 4168 4416 4234 4249 4163 4064 4349 4010 3645 3722 3640 3560 3359 3912 3867 3682 3454 3248 3610 4392 4515 4531 4820 4854 4600 4692 4723 4780 4631 4336 3865 3353 3404
0 0 96 683 1816 2418 3200 3154 3164 3112 3160 3600 2892 2756 2574 2646 2827 2450 2497 2550 2454 2519 2279 2472 2872 3303 3228 3514 4005 4202 4434 4868 4717 4657 4539 4253 4709 4830 4350 3842 3948 3695 4082 3930 3812 3965 3792 3794 3608 4092 4470 4461 4708 4932 4688 4602 4743 4449 4125 3982 4056 3675 3287
0 0 0 124 3036 2142 2886 3069 3351 3701 3600 3917 3600 2949 2721 2785 2664 2507 2261 2273 2332 2419 2187 2131 3262 2934 3147 3597 3868 4286 4728 4792 4718 4828 4845 4744 4524 4794 4827 4567 4028 4176 4386 4190 3986 4226 4525 4074 3608 3736 4262 4406 4516 4786 4774 4642 4568 4280 4016 3749 3558 3784 3716
0 0 0 0 6 515 3069 3117 3317 4077 3723 3471 3592 3313 2753 3050 2740 2571 2316 2174 2137 2170 2100 2062 2424 2757 3576 3322 4103 4826 4884 4786 4882 4975 5019 4976 4710 4712 4819 4559 4237 4267 4261 3821 3642 4382 4100 4020 3994 4133 4006 4336 4387 4405 4608 4684 4258 4028 3874 3666 3437 3345 3686
0 0 0 0 0 0 280 740 2088 3852 3130 2930 3219 2931 2510 2496 2380 2745 2623 2514 2186 2181 2174 2055 2011 2612 3895 3513 3975 4615 4869 4996 4948 4980 5124 5197 5018 4834 4884 4730 4373 4216 4163 3984 4012 3898 4354 4461 4178 4116 4072 4141 4479 4332 4400 4543 4118 3972 3833 3572 3318 3086 3062
53 58 14 0 0 10 97 86 962 983 118 1452 1623 1841 2761 2409 2096 2332 2398 2243 2273 2240 2612 2510 2208 2670 3444 4008 4322 4728 4843 5129 5056 5131 5155 5244 5106 4873 4842 4750 4626 4311 4120 4050 4152 4057 4256 4292 4379 4311 4374 4258 4447 4582 4394 4520 4024 3987 3806 3571 3276 2980 2812
46 62 58 26 321 2351 5050 3674 3479 2883 2641 1665 473 641 1580 2550 2296 2259 2260 2264 2210 2456 3663 3548 3318 3444 3976 4168 4310 4573 4836 5249 5302 5217 5202 5344 5173 5043 4960 4940 4855 4461 4243 4032 4101 4150 4246 4332 4463 4372 4398 4283 4140 4328 4461 4324 3982 3887 3798 3602 3377 3046 2717
0 0 0 908 3105 2831 4110 3400 3412 2255 2554 3455 2392 1204 1039 1207 2062 2161 2251 2200 2218 2281 2929 3706 3831 3388 3972 4166 4026 4284 4787 5284 5328 5222 5442 5531 5290 5091 4987 4992 4986 4752 4388 4140 4010 4042 4091 4338 4358 4404 4324 4290 4301 4238 4187 4042 3646 3738 3762 3626 3366 3116 2839
0 424 1729 1998 2115 2720 3581 3501 3200 3516 3785 3372 2947 1654 961 862 1028 1781 2085 2254 2211 2881 2662 2990 3606 3300 3963 4080 4008 4132 4722 5142 5322 5454 5568 5574 5332 5095 4971 4918 5044 4910 4645 4254 3972 4056 4156 4276 4288 4477 4504 4560 4402 3894 3680 3968 3809 3507 3586 3618 3516 3198 2881
2251 2268 2610 3176 3055 2712 3037 3856 4471 4258 4347 4147 3962 3367 2950 2018 1292 1726 2586 2451 2449 2402 2582 2846 3028 3169 3714 3563 4074 4271 4752 5202 5390 5507 5482 5561 5438 5164 5043 4958 5002 4981 4646 4452 4041 3840 4128 4221 4362 4403 4226 3946 3858 3721 3988 3997 3777 3389 3307 3426 3519 3409 3165
2655 2765 2561 2592 2508 2742 3433 3774 4032 3876 3634 3863 3327 3762 4446 3958 3104 2164 2565 2847 2590 2684 2758 2881 3000 3166 3177 3524 4344 4716 4852 5124 5342 5431 5446 5528 5499 5240 5201 4976 5019 4981 4799 4512 4256 3970 4040 4106 4280 4340 4216 3858 3782 3650 3691 3756 3656 3441 3290 3173 3342 3391 3296
2460 2327 2461 2128 2359 3180 3014 3602 3874 4844 4606 4248 5078 4905 4453 3941 3423 3039 2716 2743 2578 2470 2645 2904 3150 3340 3368 3465 4006 4783 4978 5069 5553 5520 5437 5484 5526 5379 5245 5045 4817 4872 4841 4697 4437 4264 3975 3784 3911 4153 4279 4260 4026 3881 3354 3596 3973 3324 3366 3264 3126 3174 3266
2050 1990 2163 2142 2501 2759 3048 3108 4080 4390 4469 4806 4690 4364 4170 3895 3162 3022 3177 3219 3110 2819 2814 3039 3276 3690 4141 4039 3706 4380 5015 5054 5214 5391 5513 5477 5427 5063 4858 4790 4698 4593 4784 4705 4418 4406 4326 4127 3787 3715 4183 4066 4287 4078 3883 3726 3649 3634 3383 3389 3322 3209 3134
1821 1920 1730 2286 2605 2910 2880 3029 4308 4378 4195 4257 4034 4408 3652 3689 3748 3293 3260 3252 3169 3097 2798 3284 3764 3918 4192 4386 4226 4260 4712 5084 5226 5459 5417 5366 5253 5148 4815 4742 4731 4658 4710 4334 4466 4546 4536 4532 4180 3898 3970 4201 4302 4307 4159 3857 3454 4068 3327 3270 3279 3266 3186
2053 1870 2122 2242 2471 2731 2422 3363 3858 4140 4186 3893 3850 4455 5141 3536 3574 3609 3371 3399 3486 3244 3098 3100 3610 4160 4360 4602 4563 4672 4543 4936 5203 5258 5398 5304 5134 5176 4894 4856 4855 4808 4790 4790 4671 4728 4702 4866 4626 4373 4128 4133 4192 4089 4358 4572 4498 3379 3275 3244 3152 3141 3157
1877 2047 1959 2083 2216 2506 2207 3290 3717 4034 4144 3668 3817 4452 5112 5174 3851 3835 3902 4067 4161 4022 3806 3513 3687 4338 4404 4454 4591 4561 4422 4734 5117 5422 5230 5118 5158 5252 5252 5090 4856 5042 5089 5093 4882 4673 4817 4803 4738 4495 4155 4089 3899 3874 4019 4280 4225 3674 3325 3277 3178 3139 3063
1332 1630 1834 2001 2180 2364 2276 2837 3023 3628 3641 3494 3795 3999 4589 5162 4274 4099 4970 5432 5313 5520 4990 4048 3809 4280 4628 4724 4804 4780 4575 4693 5236 5311 5304 5234 5257 5257 5284 5281 5108 5024 5109 5068 4832 4690 4618 4698 4327 4345 4083 3986 3500 3457 3818 4018 5081 4511 3893 3459 3436 3343 3172
1259 1570 1603 1753 2052 2169 2316 2707 3024 3199 3319 3190 3179 3393 3504 3846 4112 4494 4318 4297 4440 5198 5350 5030 4871 5060 5038 5156 5165 5012 4638 4593 4918 5145 5178 5227 5121 5303 5438 5306 5094 4909 5045 4811 4496 4340 4272 4428 4049 3978 3681 4132 4210 3636 3567 3466 4056 4343 4242 3834 3614 3500 3410
1330 1368 1372 1446 1686 1810 2380 2531 2816 2843 2969 2816 2736 2805 2922 3060 3110 3223 3150 3792 4006 4148 5017 4888 4674 4299 4792 5006 4906 4972 4898 4707 4612 4777 5052 5208 5004 4941 4876 4667 4652 4563 4700 4628 4248 4272 4361 4216 4066 3761 3373 3874 3915 3941 4259 3531 3599 4016 4243 3914 3856 3740 3546
1244 1356 1559 1437 1284 1706 2062 2162 2332 2422 2438 2403 2434 2529 2644 2516 2852 3024 3150 3177 3581 3998 4599 4680 4656 4640 4754 4827 4814 4720 4964 4949 4474 4418 4524 4798 4758 4604 4441 4460 4210 4114 4334 4308 4250 4258 4310 4277 4152 3908 3477 3402 3779 3823 4252 4113 4102 4048 3551 3800 3843 3868 3889
1234 1260 1319 1668 1563 1542 1800 1856 2010 2108 2144 2356 2122 2290 2342 2249 2604 2447 2578 3293 3650 3998 3814 3878 4566 4925 4908 4645 4742 4746 4637 4648 4620 4357 4526 4594 5038 4646 4744 4462 4217 4414 4468 3790 4260 4402 4282 4442 4070 3994 3901 3871 4043 3947 3988 3693 3914 4288 3761 3502 3685 3571 3714
1061 1118 1327 1438 1429 1664 1678 1759 1848 1980 2092 2096 2223 2054 1752 1944 2008 2123 2203 2475 2718 3076 3636 3965 4200 4552 4306 4534 4426 3926 4058 4077 4291 4318 4040 4236 3883 4253 4536 3825 3719 6708 5169 4480 4264 3984 3986 3895 3882 3924 3851 3792 3803 4056 3611 3472 3414 3416 3450 3449 3484 3516 3504
1260 1373 1537 1666 1805 1890 1893 1929 1832 1873 2106 2222 2229 2007 1886 1906 1723 1768 1910 2336 2336 2799 2722 2950 3390 3282 3633 3313 3480 3475 4352 3986 4002 3918 3822 3695 3300 3294 3317 3430 4852 3543 3657 3926 4246 4213 4074 4078 3962 3855 3702 3676 3802 3742 3747 3824 3820 3602 3419 3474 3521 3486 3462
1340 1289 1288 1229 1262 1648 1758 1886 1911 2074 2155 2191 2115 1872 1970 1807 1848 1865 1890 2054 2274 2138 2330 2544 2850 3152 3007 2720 3180 3364 3340 3292 3295 3452 3649 3974 4025 3724 3976 4212 4587 5178 4376 3531 3424 3550 3758 3939 3966 3872 3690 3602 3508 3443 3462 3446 3457 3441 3386 3404 3386 3424 3401

ECMWFFLT1_con_mucape_036.txt.gz
CAPE
229 1068 834 1074 1130 709 876 1462 1652 1810 1968 2256 2570 2592 2548 2571 3156 3429 3629 3910 3861 3824 3787 3814 3681 3554 3421 3327 3327 3334 3423 3543 3616 3436 3065 2775 2460 2423 3155 3576 3505 3571 3292 3380 3318 3135 3347 3198 2978 2871 3498 3825 3738 3739 4256 4379 4567 4343 4223 4234 4291 3894 3526
115 766 1306 1410 1203 1025 1028 1652 1785 1633 1662 2365 3033 3016 2608 3010 3280 3536 3775 3995 4012 3938 3800 3832 3912 3727 3590 3538 3383 3385 3366 3526 3697 3410 3120 2875 2681 2712 2783 3548 3798 3978 3950 3460 3561 3649 3678 3417 3316 3200 3314 3775 3698 3757 3996 4348 4424 4280 3952 4271 4065 4353 4047
42 0 1254 1026 929 958 1461 1760 1710 1697 2569 2031 2823 2698 2593 3095 3447 3756 4026 4095 4159 4191 3890 3779 3805 3909 3841 3825 3568 3548 3392 3498 3481 3475 3116 2761 2846 2240 2661 3151 3978 4228 4072 3805 3867 3901 3686 3524 3339 3576 3320 3543 3367 3928 3762 4082 4403 4397 4188 4343 4135 4132 4120
278 19 396 1278 1548 1536 1344 1517 1784 1963 1995 2574 2666 2864 2881 3369 3545 3872 4192 4237 4262 4275 4138 3881 3726 3688 3958 3833 3752 3663 3584 3509 3444 3179 2887 2661 2603 2339 2383 2686 3450 3654 4033 3629 3267 3314 3040 3219 3463 3368 3637 3432 3509 3770 3874 3695 3949 4391 4377 4355 4183 4015 4132
400 55 0 1125 1266 1352 1332 1579 1694 2022 1830 1985 2568 3080 3125 3490 3368 3762 4100 4090 4284 4482 4304 4050 3599 3915 3984 3867 3564 3512 3669 3576 3482 3090 2906 2737 2663 2451 2271 2143 2764 3126 3288 3725 3382 3030 3408 3616 3529 3492 3567 3712 3781 4056 4002 3974 3895 4365 4427 4252 4185 3888 4044
400 208 272 1089 1062 1365 1549 1820 1915 1893 2077 2402 2655 3052 2757 2729 2782 3127 3863 4348 4318 4359 4430 4121 3833 4075 4015 3840 3772 3836 3676 3539 3391 3386 3035 2869 3035 2846 2550 2419 2343 2678 2592 3507 3564 3257 3245 3920 3459 3670 3508 3535 3522 3463 3939 3998 3699 4219 4397 4250 4075 3727 3534
313 135 438 1352 1599 1782 1438 1218 1619 1975 2198 2512 2815 3150 2894 2646 2722 2718 3300 4226 4289 4606 4241 3979 4017 3840 3946 3962 3800 3908 3844 3740 3681 3429 3301 3223 2946 2983 2907 2750 2586 2872 2909 3256 3419 3379 3049 3213 3513 3757 3813 3296 3198 3378 3682 3936 3662 3729 4106 4195 4084 3951 3631
330 294 254 538 578 726 1022 1693 2157 2548 2847 2407 2672 2986 3151 2851 2678 2748 3236 3924 4291 4135 4246 4047 4027 3999 4378 4203 3782 3526 3635 3458 3596 3524 3178 3091 2827 2915 2965 3112 2994 3098 3395 3287 3413 3501 3202 3032 3083 3812 4183 3920 3708 3768 4052 4194 3981 3854 4042 4129 4168 4078 3704
426 430 194 129 334 216 868 2119 2050 1940 2671 3314 2376 2996 3296 3048 2835 2877 3055 3388 3720 4101 4054 3991 4013 3871 4171 4066 3840 3490 3609 3655 3604 3342 3006 2672 2442 2261 2258 3034 3318 3206 3421 3208 3069 3433 3312 3307 2937 3303 4220 4278 4294 4179 4009 4112 4008 3721 3781 4068 4101 3998 3564
846 439 297 248 213 254 966 1275 1695 2318 2234 2479 3177 3765 3496 3324 3290 2974 2950 3182 3470 3748 3917 3860 3644 3678 3940 4032 3695 3457 3643 3737 3814 3167 2594 2583 3036 2599 2112 2571 2923 3219 3173 3203 2944 3212 3274 3443 3359 3645 4060 4483 4661 4653 4164 4070 4023 3814 3740 4150 4140 4039 3860
937 716 543 396 799 876 1702 2086 2424 2425 2274 3080 3730 3726 3902 3846 3461 3076 2938 3014 3204 3336 3678 3562 3586 3574 3720 3667 3350 3287 3390 3249 3424 3497 3170 3061 2579 2877 2453 2613 2950 3000 2792 2706 2850 3032 3319 3436 3791 4086 4316 4279 4562 4864 4605 4117 4081 3866 3708 3962 4042 3987 3784
1000 890 612 612 989 959 1261 1707 2014 2106 2333 3350 3692 3465 3953 4076 3622 3200 3150 3030 3050 3206 3310 3469 3403 3351 3652 3784 3659 3362 3454 3538 3012 3012 3391 2889 2634 2620 2468 2860 2447 2835 3472 3333 3091 3010 3134 3664 3909 4154 4367 4255 4318 4655 4767 4371 4137 4093 3895 3610 3591 3755 3666
1892 1348 1039 1044 1288 1275 1855 2164 2312 2087 2306 3702 3562 3192 3657 3862 3452 3198 3731 3584 3007 3058 3086 3682 3324 3510 3423 3859 3371 3380 3389 3363 3012 2935 3071 3236 2960 2598 2873 2812 2391 2591 3227 3106 3078 3120 2896 3662 3899 4004 4450 4482 4379 4429 4636 4577 4185 4180 4188 3870 3471 3653 3684
1451 991 1389 1793 2023 2322 1785 2432 2758 3105 3534 3630 3516 3337 3198 3425 3350 3686 3916 3754 3195 2981 2920 3072 3615 3620 3722 4018 3891 3672 3305 3465 3373 3102 3266 3263 3092 3077 2952 2569 2616 2902 3238 3751 3654 3380 3156 3347 3992 3984 4174 4584 4494 4456 4464 4563 4397 4281 4391 4194 3854 3778 3774
526 517 832 1024 1715 754 2231 2623 4113 4897 4831 4276 3542 3270 3221 3183 3422 3671 3915 3666 3638 3045 2960 3328 3664 3676 3671 4118 4234 4019 3694 3640 3757 3402 3383 3529 3433 3292 3079 2956 3061 2913 3035 3856 3921 3670 3531 3111 3670 4160 4112 4345 4605 4491 4402 4380 4339 4213 4324 4348 4145 3877 3773
191 405 597 1342 2059 1788 2947 3573 5710 5459 5116 4543 3584 3610 3140 3244 3645 3757 3704 3566 3406 3644 3191 3498 3744 3810 3567 4007 4379 4417 4227 4088 4046 3792 3557 3631 3666 3500 3419 3234 3133 2942 3123 3738 4176 3995 3740 3304 2901 3709 4204 4231 4636 4741 4526 4289 4222 3958 3964 3994 4076 3790 3507
16 153 404 911 2582 2294 3703 3980 4521 5453 5495 5050 4461 4121 3576 3268 3456 3417 2963 2809 2789 3521 3344 3425 3966 3886 3720 3856 4449 4674 4644 4520 4443 4275 3993 3818 3840 3818 3604 3434 3338 3282 3400 3595 3958 4120 4059 3911 3527 2973 3616 4137 4274 4638 4581 4370 4213 3965 3856 3850 3756 3728 3479
4 389 598 1124 1480 2946 3482 3772 4101 4656 4847 4549 4260 4474 3899 3932 3573 2951 2749 2804 2627 2627 2668 3117 3743 3941 3947 3856 4642 5016 4985 4783 4730 4666 4435 4172 4076 4161 3957 3616 3583 3642 3620 3585 3643 4096 4221 4118 4038 3639 3362 4141 4279 4404 4759 4637 4160 4147 4129 3896 3772 3516 3408
0 0 15 1095 1226 1755 2094 2611 2823 4343 3430 3172 3466 3327 3136 3912 3044 3157 3045 3044 3148 3042 2773 2479 2690 4088 4298 4043 4668 5154 5212 5087 5009 4986 4881 4616 4320 4330 4418 4125 3793 3788 3808 3639 3686 3954 4340 4337 4187 4029 3701 3873 4528 4503 4665 4861 4402 4235 4276 4108 3945 3721 3380
0 0 0 0 600 1759 3141 3227 3434 3230 2713 3345 3406 2498 2353 2691 2925 3414 3046 2797 3410 3196 2991 2989 2923 3460 4538 4334 4791 5299 5397 5334 5170 5150 5208 5180 4871 4607 4690 4584 4200 3943 3892 3837 3909 4153 4324 4307 4273 4130 4043 3910 4350 4701 4601 4582 4492 4332 4202 4148 4001 3839 3440
41 36 16 137 1259 3712 4285 3970 3410 3257 3095 1356 1124 1855 3167 2772 2311 3114 3023 3019 3055 3235 3809 3652 3358 3343 4948 4535 4834 5473 5583 5562 5366 5301 5374 5515 5369 4962 4826 4845 4641 4358 4172 3981 3994 4034 4306 4387 4364 4355 4203 4096 4092 4574 4850 4362 4423 4400 4251 4160 4103 3938 3644
0 0 394 2816 4305 4258 3744 2843 2457 1314 3130 3903 2083 1058 492 2143 2155 1878 2234 2499 2718 2966 3503 4295 3995 3559 4996 4837 4751 5335 5644 5666 5540 5464 5472 5651 5567 5240 4931 4896 4948 4778 4526 4118 3872 3932 4104 4472 4305 4439 4446 4375 4225 4179 4429 4471 4136 4243 4310 4225 4050 4002 3798
2771 2567 2634 2703 2540 3356 4313 4382 4482 4668 4049 3641 3432 2059 1272 758 1140 2079 1856 2128 2317 3173 3473 3915 4476 3851 4239 5158 4740 4938 5466 5674 5636 5660 5716 5884 5781 5446 5027 4977 5229 5116 4784 4388 4208 4246 4076 3971 4017 4189 4427 4492 4427 4246 4082 4171 4043 3975 4070 4210 4223 4024 3843
2415 2406 2280 2421 3124 3545 4159 4154 3488 2887 2670 2619 2396 2381 2734 2372 2415 3799 4121 2714 2956 3129 3177 3505 4107 4230 4200 5049 4864 4780 5454 5627 5730 5811 5785 5988 5994 5645 5314 5304 5277 5136 4870 4563 4189 3810 3737 3842 3923 3971 4100 4264 4420 4284 4236 4234 4165 3987 3999 4036 4182 4192 4075
2258 2092 1862 2302 3063 2880 2823 3185 3250 3700 4186 3958 4538 5007 3821 4036 4572 4966 5005 4941 2984 3054 3211 3335 3597 4159 4181 4842 5088 5017 5407 5555 5851 5967 5836 5929 6043 5894 5674 5289 5341 5258 5206 4600 4286 3911 4079 4107 4063 4104 4178 4058 4228 4226 4174 4140 4054 3974 3983 4045 4075 4128 4134
2089 2106 1488 1920 2488 2260 2794 3010 3473 4404 3925 4526 5054 4866 4905 4383 4899 4899 5298 5681 4200 2833 3366 3391 3497 3986 4111 4425 5167 5066 5154 5273 5806 6084 5993 5904 5982 6116 5817 5508 5271 5445 5193 4771 4280 4087 3858 4007 4216 4394 4300 4215 4296 4323 4087 4108 4308 3973 4006 4044 4043 4014 4001
2018 1954 1698 1643 1647 2782 2798 2563 3982 4119 4052 4745 4547 4087 4209 4207 4296 4888 4963 5043 5121 3624 2970 3599 3943 4445 4386 4348 4469 5076 5254 5370 5836 6090 6204 6152 6164 5884 5551 5267 5124 4978 5067 4540 4302 4369 4294 3978 3949 4054 4328 4153 4601 4532 4580 4339 4484 4257 4132 3968 3695 3601 3652
1975 2123 2001 1539 2288 2714 2537 2805 3861 3912 4093 4046 3940 4075 5045 5399 4517 5051 4877 4626 4607 4595 3253 5832 4413 4807 4872 4865 4259 4550 5362 5272 5770 6151 6193 6269 6363 6308 5855 5644 5423 5253 5326 4682 4841 4841 4749 4533 4065 4007 4129 4413 4690 4802 4757 4474 4055 4567 4015 3764 3598 3539 3518
1742 1765 1863 2228 2238 2620 2338 2710 3427 3335 4040 3825 3782 3692 4660 5228 5787 4256 4124 4182 4122 4306 4407 5224 5523 5174 5387 5415 4685 4470 5342 5648 5717 6022 6082 6220 6299 6284 5954 5804 5643 5532 5462 5369 5440 5497 5215 5201 4890 4566 4451 4466 4647 4703 5022 5174 4567 3975 3852 3799 3767 3635 3545
1522 1650 1714 1961 2131 2427 2244 2230 3234 3356 3737 3603 3757 4130 4672 5055 5280 3841 4113 5509 6118 4888 4555 4902 4486 5886 5599 5393 5424 5074 5064 6069 5929 6264 6187 6333 6296 6237 6198 5973 5690 5790 5834 5771 5784 5758 5771 5575 5446 5130 4661 4436 4365 4369 4455 5348 5479 4820 4256 4102 3969 3832 3654
1295 1535 1491 1611 1744 1974 1956 2215 2990 3232 3438 3201 3488 3620 4290 4485 5309 5075 5520 5730 5833 5756 6210 6350 5195 5902 6078 5603 5716 5736 5166 5734 6276 6269 6194 6276 6363 6318 6270 6102 5729 5787 5995 6007 5803 5630 5562 5670 5375 5429 5086 4810 4593 4543 4747 4952 5669 5734 4632 4286 4094 3962 3871
1106 1169 1258 1233 1418 1514 1797 2532 2876 2777 3007 2805 2739 2982 4137 4166 4485 4755 4959 4682 4618 5052 5870 6101 5808 5224 5990 5518 5772 6073 5812 5834 5941 6410 5846 6068 5837 6112 6281 5880 5637 5440 6163 5877 5454 5486 5360 5521 5278 5203 5254 5200 5063 4996 4757 5051 4765 4984 4894 4301 4150 3992 3887
1663 1519 1446 1332 1368 1671 1661 2154 2575 2595 2758 2688 2612 2862 2837 3807 3883 4046 4381 4248 3838 4226 4744 5442 5500 5491 5493 5599 6018 6005 5916 5324 4848 4760 5374 5600 5264 5370 5915 5728 5567 5266 5666 5420 5099 5112 5290 5216 5071 4984 4766 4844 4872 4887 4746 4464 4584 4753 5235 3999 3917 3833 3805
1519 1533 1525 1623 1750 1528 1760 1930 2121 2364 2571 2450 2504 2572 2748 2703 3021 3142 3387 3645 3793 4376 4452 4618 4894 5065 5264 5122 5616 6201 6085 6108 5518 4871 4236 4743 4635 4454 4734 5363 5393 5501 5616 5259 5227 5144 5017 4942 4762 4498 4340 4351 4340 4357 4531 4559 4766 4534 3929 3708 3575 3600 3580
1198 1287 1536 1768 1700 1684 1966 2122 2124 2277 2365 2362 2281 2372 2561 2524 2766 2915 3200 3354 3872 4603 4634 5243 4479 4890 4713 4936 5389 5874 5983 5518 5102 4858 5332 5151 5007 5413 5830 5230 5108 5046 5469 5123 5071 4881 4360 4522 4892 4698 4544 4256 4355 4369 4322 4519 4139 3720 3668 3636 3604 3521 3548
1398 1553 1605 2042 2189 2022 1786 1717 2052 2269 2194 2235 2206 2082 2189 2191 2302 2410 2435 2786 3323 3630 4466 4779 5181 4713 4830 4690 4430 4114 4633 4294 4071 4377 4524 4868 5717 5635 5222 5433 6458 6891 5092 4176 4208 4186 4066 3816 4144 4124 3953 3879 4083 3903 3911 3912 3798 3678 3563 3464 3495 3480 3480
1532 1659 1690 1680 2028 2172 2304 2448 2359 2177 2110 2180 1986 1924 1755 2038 1956 2265 2243 3000 3310 3181 3614 3701 4792 4862 4002 3948 3936 3889 4030 3704 4155 4996 5192 5274 4611 5243 4645 4176 4011 4380 4457 4411 3935 3830 3885 3848 3754 3651 3660 3714 3828 3756 3633 3564 3544 3597 3644 3614 3541 3502 3550
1459 1385 1517 1683 1716 1816 1920 2024 2246 2426 2308 2157 2084 2045 2014 1871 1953 2110 2101 2521 2518 2899 3207 3626 3873 3608 3671 3954 3841 3837 3814 3873 4214 4441 4753 4689 4651 4858 4990 5431 4597 3818 3703 4014 4152 4090 3923 3935 3825 3773 3691 3638 3705 3772 3750 3654 3612 3575 3619 3621 3617 3610 3581

ECMWFFLT1_con_mucape_039.txt.gz
CAPE
806 984 1061 1140 1263 1331 1293 1205 1149 1134 1272 1454 1480 1610 1967 2030 2055 2116 2124 1994 1978 1936 1916 1889 2101 2057 1744 1688 1812 1844 1908 1964 1990 2108 2034 1907 1953 2325 2141 2120 1967 2296 2022 2546 2435 2515 2486 2434 2392 2355 2639 3024 3119 3295 3430 3376 3339 3276 3168 3021 2992 2928 2724
877 1066 1158 1260 1350 1429 1371 1278 1223 1136 1371 1578 1654 1698 1848 2105 2104 2122 2200 2116 2028 2005 2037 2002 2089 2202 1986 1831 1845 2011 2019 2034 2048 2107 2081 1968 1989 2254 2320 2245 2099 2011 2383 2355 2587 2613 2644 2599 2406 2292 2655 2907 2939 3035 3351 3308 3462 3357 3243 3236 3041 2823 2784
863 1080 1100 1134 1206 1286 1401 1354 1242 1164 1551 1667 1687 1688 1722 1925 2147 2179 2271 2240 2138 2071 2127 2115 2107 2210 2178 1985 1879 2078 2152 2119 2140 2125 2110 1961 1944 2006 2404 2400 2232 2096 2200 2496 2464 2767 2754 2637 2487 2267 2655 2872 2882 2854 3115 3304 3397 3547 3227 3323 3214 3021 2886
689 1000 1061 1100 1169 1217 1271 1326 1298 1216 1538 1710 1699 1699 1681 1757 2019 2296 2470 2388 2290 2183 2222 2241 2185 2197 2270 2122 1948 2037 2210 2229 2236 2234 2202 2048 1886 1806 1990 2560 2482 2356 2306 2518 2685 2608 2802 2681 2395 2164 2806 2842 2865 2829 2851 3298 3376 3495 3357 3270 3116 3152 3153
444 694 830 998 1130 1248 1396 1415 1441 1314 1383 1592 1643 1669 1659 1671 1984 2293 2660 2667 2473 2347 2320 2355 2342 2260 2284 2243 2088 2052 2198 2301 2335 2340 2313 2190 1969 1771 1626 1883 2635 2679 2614 2598 2838 2816 2630 2739 2559 2371 2348 2666 2810 2813 2778 2923 3397 3418 3387 3309 3132 3052 3233
550 656 766 1024 1043 1085 1171 1326 1502 1455 1436 1520 1662 1686 1580 1600 2104 2483 2726 2962 2788 2591 2481 2464 2448 2437 2312 2249 2201 2123 2148 2268 2335 2391 2378 2271 2068 1867 1626 1524 1874 2724 2956 2859 2849 3012 2783 2623 2643 2526 2542 2537 2733 2781 2828 2774 3138 3392 3354 3382 3198 3073 3048
774 754 952 1086 1091 1081 1112 1170 1360 1465 1479 1544 1649 1785 1795 1846 2261 2549 2778 3028 3065 2904 2722 2647 2614 2584 2537 2420 2319 2254 2170 2143 2218 2349 2396 2308 2086 1908 1720 1525 1530 2068 2772 3104 2923 2861 3027 2746 2629 2534 2588 2647 2699 2781 2899 2874 2931 3294 3378 3386 3318 3166 3089
922 733 889 1087 1059 1065 1057 1096 1199 1266 1356 1456 1677 1934 1878 1872 2285 2692 2845 3032 3210 3176 3018 2854 2762 2704 2728 2691 2548 2403 2309 2206 2163 2234 2319 2254 2080 1938 1808 1601 1519 1651 2140 2861 3111 2804 2684 2893 2726 2618 2437 2626 2740 2749 2937 3001 2954 3126 3368 3405 3324 3250 3134
668 782 680 882 974 973 1024 1135 1236 1268 1327 1420 1596 2180 2250 2205 2380 2649 2961 3053 3230 3268 3219 3069 2916 2802 2793 2830 2767 2617 2467 2373 2257 2204 2221 2183 2092 1960 1815 1642 1510 1528 1769 2126 2780 2974 2637 2376 2753 2785 2587 2456 2626 2748 2954 3083 3048 3062 3286 3387 3331 3244 3137
119 762 679 817 949 1008 1020 1139 1382 1424 1420 1448 1728 2347 2631 2607 2616 2651 2888 3157 3338 3379 3332 3206 3062 2891 2797 2829 2845 2759 2609 2504 2406 2326 2274 2199 2081 2006 1905 1749 1525 1487 1660 1788 2074 2785 2878 2504 2281 2867 2918 2644 2511 2595 2779 3111 3152 3064 3140 3324 3338 3239 3108
144 836 919 868 978 1004 1006 1100 1255 1484 1573 1512 1571 1945 2603 2817 2718 2701 2704 3075 3502 3578 3604 3500 3296 3034 2883 2891 2893 2815 2696 2574 2505 2425 2330 2241 2121 2001 1952 1864 1745 1612 1633 1832 1918 2214 2697 2763 2386 2284 2972 3040 2743 2582 2564 2891 3190 3131 3044 3140 3259 3225 3102
139 1089 1002 1046 1106 1051 1074 1155 1226 1477 1684 1721 1790 1878 2228 2743 2860 2758 2687 2732 3374 3785 3752 3735 3616 3262 2937 2928 2926 2861 2758 2667 2556 2473 2390 2283 2156 2033 1924 1837 1864 1877 1795 1900 2092 2193 2435 2647 2615 2301 2276 3015 3160 2916 2688 2744 3105 3195 3084 3019 3130 3179 3124
242 771 1090 1132 1186 1140 1146 1346 1490 1688 1876 2044 2153 2155 2334 2551 2658 2732 2709 2652 2894 3695 3971 3864 3699 3470 3165 2947 2912 2878 2794 2669 2583 2484 2412 2306 2147 2001 1935 1783 1705 1935 2044 2019 2141 2290 2426 2563 2616 2539 2252 2327 2974 3309 3162 2945 3026 3202 3175 3040 3033 3126 3114
582 724 1102 1154 1171 1121 1265 1586 1555 1742 2103 2402 2430 2363 2514 2752 2872 2830 2745 2713 2655 3284 3825 3998 3854 3662 3410 3157 2962 2845 2788 2657 2538 2483 2439 2330 2151 1942 1832 1725 1562 1649 2051 2145 2116 2205 2315 2518 2567 2625 2568 2401 2467 2983 3425 3384 3162 3142 3185 3076 2965 3086 3120
445 276 920 955 1166 1313 1624 1810 1904 2051 2323 2622 2668 2505 2810 3010 2986 2957 2870 2830 2750 3049 3429 3745 3856 3755 3585 3380 3124 2881 2750 2631 2510 2457 2463 2378 2152 1936 1871 1860 1660 1638 1921 2169 2127 2084 2150 2305 2519 2543 2634 2728 2694 2725 3110 3542 3521 3260 3166 3100 2957 2984 3142
377 897 1165 1310 1496 1673 1772 1868 2086 2391 2640 2879 2960 2885 3035 3281 3310 3217 3083 2943 2874 2818 3160 3514 3710 3694 3558 3398 3226 3000 2752 2610 2476 2402 2466 2531 2304 2009 1906 1972 1926 1834 1936 2228 2216 2067 2038 2080 2356 2575 2621 2771 2947 2966 3004 3262 3609 3578 3326 3166 3035 2938 2988
829 1007 1050 1265 1598 1952 1824 2065 2199 2215 2086 2394 2536 2749 2982 3514 3499 3424 3328 3210 3156 3106 2967 3184 3503 3610 3527 3396 3336 3182 2886 2598 2451 2366 2363 2490 2542 2311 2044 1966 2012 2020 1991 2214 2525 2423 2265 2188 2159 2452 2708 2786 2980 3142 3142 3159 3315 3585 3611 3379 3204 3045 2940
952 1040 1154 1618 2783 3396 3166 2960 2819 2505 2250 2581 2912 2936 2983 3334 3583 3571 3505 3443 3368 3255 3169 3052 3222 3460 3472 3393 3427 3428 3196 2827 2570 2495 2340 2279 2430 2480 2284 2074 2053 2115 2106 2162 2637 2779 2643 2523 2344 2391 2723 2865 2907 3118 3284 3291 3231 3333 3586 3584 3400 3215 3080
1288 1495 1839 2645 2966 3425 3853 4162 4018 3871 3394 3164 3147 3276 3110 3084 3380 3552 3509 3476 3500 3475 3341 3232 3112 3208 3419 3370 3348 3524 3422 3185 2826 2737 2550 2291 2278 2435 2412 2242 2144 2141 2130 2154 2430 2958 3018 2892 2748 2561 2666 2962 2980 2970 3167 3332 3320 3347 3436 3584 3556 3406 3193
752 1561 2695 3321 3237 3218 2980 3640 4128 4230 4118 4009 3757 3764 3553 3433 3039 3371 3431 3428 3425 3445 3468 3360 3229 3142 3338 3364 3273 3507 3551 3364 3106 2924 2862 2606 2351 2396 2508 2397 2255 2175 2162 2184 2254 2730 3165 3194 3071 2915 2722 2800 3093 3146 3076 3185 3330 3418 3428 3475 3551 3532 3376
2347 2981 3270 2975 2762 2410 2394 2879 3414 3678 3335 2731 2855 3267 3097 2907 3132 3172 3180 3286 3310 3254 3242 3290 3291 3213 3351 3349 3299 3534 3690 3570 3317 3137 3081 2959 2687 2530 2577 2608 2459 2299 2259 2258 2269 2416 2876 3223 3225 3142 3023 2822 2747 3035 3244 3230 3290 3457 3506 3485 3504 3526 3498
3128 3811 4178 4289 4205 4109 4096 4012 3697 3535 3695 3594 3130 2350 1729 2626 2692 2756 3032 2815 2855 3026 3090 3070 3128 3174 3422 3464 3348 3590 3842 3791 3601 3408 3345 3276 3075 2822 2737 2751 2706 2525 2391 2356 2352 2370 2464 2814 3124 3224 3176 3084 2896 2726 2880 3291 3426 3513 3615 3638 3589 3548 3523
3063 3422 3195 3064 3334 3653 3052 3010 2728 2802 2654 2175 2611 2813 2489 2128 2063 2304 2602 2866 2748 2499 3006 3039 2906 2938 3375 3666 3491 3612 4012 4014 3864 3687 3599 3572 3456 3228 2994 2923 2936 2833 2622 2528 2488 2490 2493 2528 2748 3002 3174 3219 3175 3035 2860 2932 3348 3715 3837 3863 3826 3737 3642
2052 2391 2560 2305 2168 2359 2573 3182 3448 3681 3825 3361 3999 4657 4622 4073 3238 3696 5004 2741 2620 2632 2696 3064 3220 3013 3009 3960 3732 3698 4160 4262 4124 3961 3873 3868 3807 3638 3414 3221 3209 3219 3063 2816 2687 2634 2660 2675 2732 2878 3028 3168 3240 3208 3124 2996 3035 3470 3906 4116 4239 4196 4081
1616 1536 1506 1712 2339 2593 3245 3726 3810 4087 4546 4934 4706 4727 4677 4246 4487 4548 4603 4666 4162 2420 2505 2624 2925 3365 3160 3951 4079 3943 4340 4495 4392 4212 4096 4102 4097 4045 3916 3701 3570 3563 3599 3382 3085 2892 2853 2910 2914 2942 3049 3183 3277 3340 3309 3234 3167 3225 3492 3893 4165 4295 4324
1764 1588 1438 2006 2406 2465 2928 4068 3956 3941 4121 4082 4474 4807 4797 4948 4510 4381 5150 5323 4714 4044 2611 2418 2517 3108 3447 4003 4342 4231 4486 4680 4630 4467 4324 4276 4307 4335 4292 4179 4011 3962 3978 3908 3658 3424 3222 3161 3176 3158 3142 3169 3297 3443 3548 3533 3480 3451 3437 3495 3741 4045 4231
1561 1588 1880 2494 2751 2614 2907 3466 3558 3740 3965 4009 4046 3996 4514 4862 5187 5107 4316 4987 4882 4386 4278 3179 2578 3018 3522 3868 4497 4346 4571 4803 4813 4697 4559 4484 4517 4602 4604 4510 4348 4256 4263 4224 4072 3865 3672 3483 3403 3404 3403 3383 3348 3346 3427 3580 3689 3710 3688 3666 3641 3664 3732
1560 1662 1715 2120 2963 2517 2396 3344 3001 3076 3858 3925 3754 3730 4295 4930 5020 5249 5003 4723 4921 4974 4890 4289 3108 3264 3526 3919 4552 4470 4596 4809 4920 4876 4797 4784 4832 4910 4914 4850 4646 4504 4464 4388 4301 4147 3964 3792 3611 3492 3514 3597 3691 3597 3516 3530 3641 3727 3767 3792 3786 3734 3691
1452 1662 1755 1853 1973 2035 2018 2617 3410 2962 3862 3602 3510 3879 4009 4186 4690 5087 4958 5361 5417 5707 5974 5745 3928 3374 3570 3783 4484 4494 4599 4727 4975 5050 5148 5129 5095 5135 5130 5137 4962 4757 4642 4582 4474 4348 4174 4013 3872 3702 3546 3491 3628 3844 3901 3852 3812 3911 3958 3964 3976 3965 3905
1257 1340 1503 1576 1609 1690 1710 2496 2891 3346 3872 3577 3644 3521 4025 4394 4979 5554 4942 4545 4780 4858 5369 5580 5922 4339 3794 3636 4126 4505 4556 4736 5070 5230 5400 5364 5302 5271 5258 5255 5114 4946 4780 4682 4602 4479 4381 4233 4092 3933 3753 3565 3432 3741 4104 4265 4299 4242 4126 4109 4122 4099 4061
1450 1348 1300 1305 1445 1654 1562 2237 2885 3293 3226 3190 2986 3181 4051 4358 4740 4657 4731 4553 4604 4491 4692 5107 5389 5964 4413 3998 3877 4660 4654 4819 5222 5429 5544 5574 5566 5427 5407 5333 5199 5066 4891 4702 4636 4566 4512 4498 4410 4296 4140 3955 3765 3646 3956 4206 4512 4792 4596 4508 4467 4414 4342
1376 1268 1575 1372 1548 1732 1507 2650 2702 2752 2862 2828 2662 2552 3778 4231 4215 4269 4301 4330 4482 4434 4473 4778 5382 6501 5246 4894 4418 4745 5191 4954 5206 5528 5573 5701 5715 5644 5618 5491 5383 5209 5170 5012 4871 4751 4694 4763 4777 4652 4515 4316 4121 3936 3954 4187 4439 4883 5138 4887 4739 4581 4500
1202 1279 1545 1360 1719 1814 1638 2338 2511 2541 2558 2552 2455 2499 2733 3618 3947 3958 4126 4143 4254 4283 4631 4856 5398 5751 5842 5639 5424 5150 5603 5441 5317 5533 5562 5814 5770 5809 5768 5676 5605 5429 5321 5319 5196 5065 4943 4941 5092 5070 4950 4854 4724 4540 4460 4350 4385 4230 4184 4189 4321 4366 4312
1437 1462 1462 2024 2222 2200 2125 2001 2521 2514 2448 2226 2381 2511 2696 2262 3055 3570 3736 3908 3832 3817 4279 4701 5029 5186 5418 5827 5916 5496 5131 5694 6485 5992 5586 5840 5819 5883 5904 5794 5787 5610 5366 5352 5308 5254 5168 5042 5054 5074 5055 5003 4950 4858 4775 4582 4476 4325 4175 3981 3861 3822 3803
1406 1542 1771 2037 2152 2548 2257 2077 2437 2484 2321 2170 2195 2058 2361 2447 2116 2381 2671 2968 3528 3856 4403 5229 4979 5006 4701 4857 5924 5868 5619 5352 5588 5808 5639 5712 5634 5631 5766 5873 5842 5645 5451 5234 5322 5214 5153 5101 4956 4834 4762 4696 4639 4564 4606 4618 4551 4442 4261 4141 4018 3875 3771
1512 1656 1664 1812 2132 2194 2244 2517 2662 2296 2214 1978 1943 1924 1738 2239 2314 2403 2647 3003 3687 4005 4010 4511 4854 4818 4443 4472 4528 4774 5239 4925 4742 4849 5073 5515 5382 5283 5185 5314 5476 5418 5291 5128 5058 5093 4992 4880 4843 4729 4664 4510 4371 4235 4101 4156 4109 4042 4032 3969 3887 3821 3740
1614 1454 1550 1792 1868 1905 2009 2262 2529 2667 2631 2375 2218 1925 1858 1659 1725 2057 2726 3087 3576 3814 3814 3960 4138 4361 4013 4092 4248 4354 4575 4568 4678 4642 5040 5089 5075 4879 4785 4721 4911 5050 5072 5012 4866 4773 4733 4635 4428 4373 4400 4319 4249 4026 3905 3871 3841 3845 3840 3785 3698 3664 3646
1356 1654 1657 1708 1838 1926 2041 2321 2433 2410 2473 2462 2502 2518 2368 2212 2049 2112 2528 2945 3279 3506 3666 3739 3944 4396 4121 3906 4012 4073 4186 4358 4379 4512 4604 4682 4675 4563 4634 4743 4735 4704 4630 4628 4641 4646 4563 4493 4231 4057 4016 4088 4086 4083 3985 3873 3785 3733 3697 3633 3581 3587 3575

ECMWFFLT1_con_mucape_045.txt.gz
CAPE
214 364 672 787 798 800 792 788 783 775 776 776 760 757 874 1010 1088 1105 1111 1147 1193 1225 1245 1300 1367 1397 1419 1421 1387 1329 1250 1181 1129 1102 1074 1089 1080 1063 1072 1062 960 943 1202 1452 1616 1700 1734 1789 1915 1986 2016 2176 2414 2555 2629 2718 2818 2880 2874 2800 2710 2628 2528
189 264 534 759 834 833 826 822 810 796 782 782 786 784 807 981 1092 1118 1129 1125 1161 1202 1237 1281 1336 1376 1414 1416 1366 1314 1264 1203 1151 1135 1096 1093 1114 1085 1041 994 898 817 941 1302 1472 1621 1670 1722 1850 1945 2011 2118 2326 2521 2703 2783 2841 2899 2931 2944 2918 2837 2640
181 249 418 664 818 830 838 858 832 799 775 781 795 810 820 941 1060 1138 1165 1159 1159 1201 1228 1266 1318 1366 1393 1398 1357 1333 1300 1252 1194 1158 1133 1096 1094 1118 1103 1050 963 816 759 1070 1366 1517 1628 1685 1748 1891 1969 2069 2244 2395 2615 2810 2885 2923 2949 2982 2996 2934 2712
66 215 348 587 736 804 837 865 855 819 801 790 804 812 829 929 1028 1117 1174 1198 1196 1227 1258 1272 1308 1346 1380 1391 1387 1370 1334 1296 1227 1193 1165 1130 1089 1058 1090 1090 1059 937 758 793 1175 1412 1592 1677 1717 1809 2124 2007 2162 2304 2409 2616 2814 2900 2934 2919 2908 2901 2812
67 191 377 545 682 780 820 858 846 829 821 799 784 802 832 912 1018 1082 1129 1184 1208 1234 1269 1290 1299 1337 1358 1380 1390 1369 1352 1307 1273 1246 1207 1168 1091 1025 1076 1112 1118 1086 960 768 949 1289 1511 1666 1721 1759 1868 1967 2066 2243 2346 2422 2604 2769 2840 2836 2817 2815 2816
83 210 382 544 659 758 827 847 856 849 831 822 801 804 841 890 988 1054 1089 1134 1191 1212 1242 1280 1299 1315 1346 1353 1355 1349 1329 1317 1285 1277 1251 1188 1108 1028 1053 1109 1109 1109 1088 1056 994 1258 1441 1607 1663 1717 1772 1905 1997 2137 2302 2378 2452 2590 2721 2771 2761 2739 2727
98 304 469 570 688 775 822 850 864 851 843 836 816 798 829 874 963 1028 1064 1092 1145 1193 1212 1238 1270 1288 1306 1305 1322 1314 1305 1296 1290 1293 1260 1196 1120 1070 1025 1112 1149 1097 1085 1153 1179 1272 1460 1596 1660 1692 1712 1794 1908 2000 2171 2322 2397 2459 2575 2682 2716 2727 2722
96 300 468 585 717 808 846 853 860 864 890 877 868 820 841 862 899 989 1037 1065 1086 1148 1166 1177 1240 1271 1300 1303 1299 1304 1290 1266 1274 1280 1275 1240 1160 1104 1082 1070 1216 1267 1172 1124 1282 1391 1486 1590 1680 1723 1726 1732 1794 1870 1975 2142 2279 2393 2486 2561 2628 2678 2725
94 217 430 554 695 828 887 899 897 906 940 956 919 851 884 894 905 942 983 1007 1040 1118 1154 1164 1187 1236 1279 1293 1300 1293 1278 1248 1233 1237 1230 1200 1142 1139 1156 1125 1125 1293 1386 1293 1223 1469 1599 1626 1678 1731 1746 1731 1721 1790 1874 1972 2091 2225 2386 2498 2560 2612 2640
92 184 299 516 661 799 915 969 950 941 967 985 936 869 969 1004 946 960 990 1007 1014 1083 1142 1138 1144 1194 1252 1288 1284 1259 1242 1215 1193 1176 1172 1167 1162 1186 1215 1209 1189 1220 1424 1489 1409 1365 1655 1782 1784 1782 1789 1770 1745 1750 1842 1933 2003 2072 2194 2364 2498 2564 2602
152 242 306 465 619 773 902 976 1015 1034 1043 1053 1000 926 956 1090 1093 1064 1091 1091 1085 1114 1150 1148 1120 1137 1220 1296 1308 1282 1245 1221 1195 1181 1182 1194 1224 1249 1261 1287 1284 1273 1387 1531 1585 1518 1501 1761 1919 1951 1921 1887 1846 1818 1829 1919 2015 2076 2120 2212 2362 2491 2557
242 410 386 491 618 747 877 999 1078 1116 1119 1088 1048 1008 980 1091 1210 1245 1234 1242 1246 1243 1218 1219 1190 1182 1200 1282 1373 1388 1343 1297 1260 1245 1254 1262 1285 1302 1313 1328 1347 1345 1356 1485 1657 1726 1657 1637 1828 1977 2038 2031 1983 1916 1879 1888 1973 2076 2136 2175 2236 2357 2469
314 498 557 594 662 787 917 1007 1117 1159 1150 1137 1102 1056 1084 1116 1235 1369 1412 1430 1452 1434 1379 1354 1340 1318 1293 1298 1371 1447 1468 1439 1394 1353 1348 1385 1393 1381 1382 1388 1392 1380 1368 1372 1506 1723 1831 1798 1776 1879 1970 2046 2074 2047 1994 1946 1938 1997 2096 2162 2189 2249 2359
581 524 593 648 716 836 970 1077 1131 1163 1182 1177 1163 1146 1142 1186 1252 1413 1530 1598 1632 1648 1608 1544 1497 1480 1455 1422 1418 1466 1534 1546 1522 1481 1454 1458 1488 1485 1482 1471 1456 1445 1391 1340 1325 1420 1704 1930 1936 1921 1954 1984 1993 2036 2040 2020 1989 1980 2006 2067 2140 2180 2233
453 501 580 665 778 894 1046 1121 1167 1183 1186 1202 1215 1204 1211 1254 1287 1397 1578 1706 1808 1859 1849 1792 1715 1667 1636 1603 1570 1552 1559 1596 1612 1609 1572 1548 1554 1573 1578 1570 1555 1532 1490 1413 1334 1265 1306 1579 1938 2057 2062 2055 2043 2007 1961 1931 1938 1971 2000 2029 2089 2140 2178
430 485 562 711 827 935 1054 1155 1218 1232 1221 1233 1243 1248 1326 1373 1375 1415 1544 1727 1911 2013 2040 1991 1929 1872 1841 1809 1768 1720 1676 1659 1689 1703 1696 1670 1638 1623 1621 1628 1634 1619 1588 1534 1449 1352 1266 1238 1386 1772 2040 2121 2123 2114 2104 2056 1980 1961 2001 2052 2104 2159 2189
378 458 579 729 849 962 1067 1153 1218 1244 1248 1266 1289 1304 1390 1470 1497 1493 1525 1650 1858 2090 2220 2200 2155 2076 2046 1995 1954 1928 1892 1859 1844 1824 1806 1779 1720 1686 1661 1666 1678 1683 1670 1633 1572 1494 1398 1300 1234 1246 1494 1840 2024 2074 2084 2136 2168 2140 2098 2122 2182 2202 2246
363 459 566 710 859 982 1058 1125 1181 1246 1293 1316 1334 1352 1428 1514 1568 1585 1589 1624 1776 2023 2280 2383 2357 2289 2229 2188 2154 2133 2102 2063 2019 1980 1949 1891 1841 1786 1796 1714 1700 1699 1699 1686 1654 1595 1518 1438 1341 1262 1229 1327 1602 1843 1936 1967 2049 2202 2270 2262 2261 2292 2287
383 462 546 705 836 945 1027 1096 1156 1248 1330 1377 1392 1407 1469 1551 1602 1648 1664 1668 1729 1939 2222 2441 2521 2487 2428 2373 2332 2296 2236 2204 2170 2141 2093 2049 2003 2049 2115 2045 1890 1739 1719 1706 1681 1652 1618 1546 1455 1380 1291 1222 1249 1438 1703 1863 1892 1968 2144 2307 2365 2376 2356
438 481 555 680 826 954 1054 1083 1146 1224 1328 1417 1453 1464 1504 1575 1658 1682 1679 1688 1748 2030 2272 2492 2622 2661 2653 2615 2570 2511 2448 2395 2361 2329 2290 2250 2274 2361 2399 2363 2262 2094 1903 1753 1711 1689 1650 1602 1563 1495 1431 1353 1284 1279 1349 1537 1735 1882 1952 2065 2228 2336 2356
505 527 560 670 799 928 1026 1095 1135 1207 1304 1415 1492 1522 1521 1634 1756 1739 1734 1743 1869 2125 2395 2607 2741 2793 2806 2805 2773 2723 2660 2609 2567 2536 2517 2518 2579 2614 2611 2559 2481 2385 2298 2165 1953 1782 1710 1667 1640 1596 1535 1459 1382 1319 1304 1350 1457 1660 1837 1950 2022 2149 2304
1634 1323 1119 914 890 928 1021 1073 1110 1182 1266 1348 1449 1540 1589 1730 1934 2039 2066 2055 2092 2200 2451 2738 2892 2944 2963 2970 2967 2935 2877 2819 2787 2759 2756 2784 2810 2814 2792 2740 2740 2734 2658 2569 2420 2217 2008 1806 1709 1647 1591 1547 1489 1436 1401 1382 1416 1545 1689 1821 1916 1975 2055
2383 2282 2149 1945 1721 1609 1510 1531 1596 1840 2028 1713 1640 1557 1610 1670 1911 2144 2263 2320 2352 2372 2454 2725 2974 3101 3161 3173 3169 3148 3101 3044 3004 2982 2981 2995 2990 2983 2961 2954 2973 2978 2952 2928 2820 2616 2402 2159 1917 1743 1640 1585 1568 1548 1511 1443 1429 1525 1685 1811 1907 1993 2034
3042 3039 2972 2913 2919 2958 3024 3132 3280 3403 3236 3346 3413 3187 2336 1923 1943 2004 2259 2439 2527 2564 2574 2647 2893 3145 3312 3396 3382 3378 3338 3289 3230 3197 3173 3151 3142 3126 3133 3143 3163 3168 3150 3128 3045 2930 2750 2513 2254 1983 1764 1642 1571 1544 1526 1500 1486 1513 1596 1738 1904 2030 2105
3131 3142 3126 3104 3092 3147 3242 3336 3450 3539 3608 3704 3853 3865 3514 2588 2350 2345 2407 2478 2511 2684 2790 2813 2817 2946 3250 3495 3587 3587 3560 3516 3465 3416 3369 3326 3294 3282 3296 3301 3315 3299 3276 3256 3205 3143 3043 2901 2714 2460 2154 1851 1612 1505 1510 1510 1521 1553 1589 1618 1743 1908 2039
3262 3242 3178 3163 3210 3265 3336 3414 3463 3484 3541 3658 3857 4122 4146 4106 3757 3547 3171 3066 2719 2560 2658 2781 2825 2794 2882 3070 3430 3663 3696 3674 3627 3579 3529 3494 3464 3442 3434 3423 3406 3402 3375 3335 3284 3241 3184 3089 2983 2817 2609 2408 2168 1967 1700 1580 1623 1666 1691 1712 1733 1818 1922
2867 2961 2987 2908 2912 3007 3108 3143 3099 3135 3203 3349 3697 4051 4205 4085 3995 4019 4042 3891 3694 3852 4260 4575 3779 3167 3158 3124 3205 3273 3484 3680 3721 3707 3670 3623 3592 3562 3550 3525 3509 3470 3439 3399 3345 3300 3257 3200 3134 3035 2891 2703 2538 2424 2300 2172 1990 1901 1982 2000 1991 1987 2026
2329 2587 2925 2891 2665 2448 2515 2564 2813 3080 3277 3263 3308 3574 3816 3936 3905 3755 3681 3619 3654 3866 3981 4093 4220 4585 4077 3507 3523 3535 3551 3575 3579 3554 3679 3673 3654 3642 3628 3593 3557 3522 3491 3435 3387 3351 3295 3223 3178 3112 3043 2918 2776 2656 2596 2549 2476 2430 2356 2246 2337 2347 2348
2131 2216 2613 2771 2674 2581 2462 2382 2387 2463 2684 3266 3554 3410 3279 3367 3547 3606 3500 3412 3536 3775 3876 3924 4056 4335 4791 3896 3506 3587 3639 3663 3658 3660 3639 3623 3574 3647 3633 3604 3592 3568 3513 3480 3444 3395 3339 3283 3218 3166 3117 3062 2983 2885 2795 2744 2718 2681 2651 2574 2490 2512 2662
2016 2300 2511 2589 2616 2512 2421 2376 2304 2247 2098 2161 2564 3466 3542 3341 3274 3435 3424 3398 3569 3748 3817 3941 4013 4152 4695 4573 3779 3239 3151 3308 3450 3526 3558 3588 3600 3605 3639 3624 3609 3579 3548 3523 3488 3458 3408 3338 3281 3224 3181 3143 3106 3048 2995 2938 2925 2900 2876 2849 2797 2763 2720
2027 2238 2285 2394 2442 2426 2382 2319 2225 2077 1944 1858 1638 1761 2264 3331 3562 3561 3404 3427 3409 3691 3819 3880 4079 4110 4392 4746 4129 3538 3127 3084 3248 3363 3454 3530 3604 3652 3665 3662 3647 3636 3614 3584 3549 3509 3466 3418 3361 3327 3275 3217 3199 3165 3131 3107 3068 3075 3081 3098 3112 3112 3106
1762 1865 2096 2208 2228 2235 2223 2100 1969 1847 1688 1637 1669 1610 1682 1784 2202 3193 3344 3478 3589 3674 3838 3888 4082 4157 4327 4680 4492 3805 3339 3231 3300 3378 3468 3551 3602 3640 3659 3663 3662 3668 3666 3628 3593 3556 3516 3483 3434 3406 3386 3353 3327 3310 3288 3287 3295 3364 3408 3455 3496 3500 3470
1517 1752 1906 1903 1911 1944 1833 1609 1468 1464 1492 1527 1544 1604 1675 1727 1750 1860 2124 2901 3499 3695 3762 3839 4658 4205 4309 4842 4634 4054 3534 3535 3588 3630 3654 3677 3695 3690 3690 3697 3709 3706 3688 3678 3648 3611 3579 3552 3531 3513 3502 3488 3480 3488 3500 3530 3596 3681 3752 3807 3856 3878 3820
1258 1534 1809 1985 1932 1819 1690 1654 1616 1581 1546 1524 1507 1543 1583 1683 1764 1992 2300 2596 2883 3042 3470 3823 4386 3968 4306 4728 4802 4307 3801 3769 4511 4215 3943 3953 3970 3936 3899 3846 3835 3814 3789 3766 3750 3729 3714 3710 3689 3686 3699 3702 3712 3752 3802 3900 3989 4033 4063 4101 4132 4104 4043
1324 1538 1818 1990 1988 1880 1793 1731 1685 1633 1572 1515 1472 1440 1462 1553 1698 2019 2387 2635 2896 3128 3275 3614 3758 3919 4228 4646 4893 4539 4246 4017 4944 4404 4259 4246 4228 4198 4171 4214 4210 4162 4041 4007 3995 3978 3967 3967 3962 3989 4015 4055 4083 4122 4151 4226 4304 4340 4341 4325 4301 4258 4276
1274 1523 1712 1884 1970 1966 1915 1800 1702 1622 1589 1542 1414 1367 1395 1466 1550 1941 2386 2590 2789 3007 3314 3449 3649 3871 4094 4549 4838 4730 4405 4505 5004 4550 4446 4425 4405 4375 4353 4385 4416 4459 4470 4461 4335 4329 4342 4371 4402 4430 4454 4458 4436 4464 4538 4605 4596 4550 4515 4479 4435 4433 4446
1115 1300 1522 1729 1810 1823 1880 1846 1778 1673 1604 1545 1382 1330 1436 1507 1581 1802 2299 2644 2776 2897 3115 3384 3614 3777 4012 4411 4740 4896 4688 4866 4950 4738 4637 4545 4507 4439 4405 4375 4584 4722 4757 4742 4813 4752 4713 4747 4752 4772 4826 4823 4885 4866 4819 4756 4744 4725 4736 4726 4681 4654 4660
1168 1292 1336 1494 1699 1734 1745 1746 1662 1645 1677 1686 1574 1370 1458 1605 1640 1772 2000 2361 2564 2689 2883 3125 3428 3678 3896 4262 4586 4944 5023 5032 4961 4836 4747 4663 4601 4562 4518 4465 4434 4627 4859 4948 5054 5095 5154 5166 5153 5134 5106 5082 5108 5143 5189 5127 4989 4882 4872 4785 4715 4638 4598

ECMWFFLT1_con_mucape_048.txt.gz
CAPE
411 504 518 508 517 540 552 536 508 497 491 502 518 547 625 685 785 868 937 958 968 1000 1028 1089 1128 1095 1060 1040 1001 978 938 920 877 906 920 990 1034 1046 1051 1067 1084 1099 1162 1341 1462 1552 1658 1728 1807 1894 1928 2004 2128 2131 2168 2436 2567 2646 2548 2509 2528 2515 2490
122 384 498 528 529 555 567 571 570 561 554 544 554 555 582 679 752 838 924 967 997 1011 1027 1073 1147 1165 1170 1153 1139 1123 1094 1066 1017 1042 977 1002 1028 1036 1040 1066 1069 1088 1091 1218 1346 1446 1531 1630 1757 1804 1865 2008 2161 2206 2237 2359 2518 2642 2615 2563 2561 2542 2532
42 118 354 486 550 574 602 593 598 598 591 593 595 582 611 661 742 818 897 959 995 1009 1014 1032 1114 1177 1195 1201 1187 1189 1184 1158 1112 1020 1027 1032 1034 1052 1070 1072 1083 1077 1083 1066 1170 1321 1501 1554 1646 1729 1840 1872 2054 2196 2333 2410 2504 2570 2637 2572 2573 2571 2590
38 69 161 381 512 572 606 625 639 641 639 637 621 622 626 651 761 815 871 934 980 1001 1008 1012 1075 1142 1186 1222 1220 1218 1217 1195 1143 1094 1065 1068 1070 1068 1063 1060 1060 1057 1055 1053 1051 1238 1465 1495 1555 1658 2076 1825 1941 2107 2273 2465 2535 2552 2567 2565 2574 2616 2643
36 56 86 254 423 523 576 617 641 658 670 673 664 656 655 660 780 840 866 914 955 995 1012 1038 1070 1136 1176 1214 1253 1269 1271 1234 1201 1169 1148 1148 1146 1117 1072 1065 1057 1039 1031 1007 968 1232 1399 1461 1478 1564 1773 1839 1881 1970 2170 2324 2508 2598 2503 2521 2566 2598 2654
20 54 66 113 280 469 577 614 639 672 687 691 702 697 697 700 750 866 895 974 952 978 1018 1048 1083 1221 1196 1218 1243 1264 1260 1255 1235 1232 1241 1249 1228 1182 1120 1078 1063 1060 1020 980 935 972 1214 1405 1452 1512 1612 1764 1826 1892 2056 2194 2340 2503 2611 2498 2526 2542 2580
20 45 73 87 156 387 556 628 645 655 680 703 696 708 722 729 764 878 919 956 968 992 1032 1056 1080 1128 1189 1220 1243 1255 1261 1258 1248 1270 1278 1285 1244 1190 1141 1104 1072 1056 1029 992 959 900 1059 1297 1412 1468 1546 1642 1768 1821 1931 2110 2228 2347 2531 2499 2507 2511 2518
12 14 43 82 121 286 494 628 670 671 667 708 735 734 738 744 748 879 952 979 997 1000 1032 1073 1104 1128 1180 1219 1255 1279 1288 1279 1280 1281 1286 1264 1230 1198 1174 1157 1113 1062 1026 1001 979 937 972 1160 1321 1425 1472 1546 1636 1747 1851 1968 2122 2219 2386 2550 2511 2547 2456
15 15 32 58 96 164 383 561 660 690 700 732 781 804 764 763 776 855 947 989 1032 1041 1049 1069 1112 1133 1175 1212 1251 1279 1301 1306 1289 1284 1267 1244 1229 1215 1215 1201 1168 1116 1065 1030 982 954 926 1046 1181 1339 1412 1459 1537 1618 1710 1836 2006 2160 2302 2415 2507 2566 2517
8 14 14 46 80 137 260 458 596 649 710 760 792 792 791 795 801 803 919 1002 1055 1082 1084 1083 1113 1134 1163 1199 1226 1260 1295 1313 1305 1270 1257 1256 1252 1248 1247 1221 1203 1172 1141 1114 1022 966 1085 1082 1154 1282 1370 1412 1493 1503 1604 1704 1844 2008 2174 2331 2413 2476 2526
0 8 23 34 83 179 273 410 534 636 719 783 810 802 796 794 815 821 903 979 1050 1098 1112 1112 1135 1149 1179 1188 1214 1241 1283 1311 1296 1284 1264 1268 1266 1278 1250 1229 1216 1182 1171 1142 1066 966 1119 1253 1258 1302 1374 1426 1482 1513 1529 1611 1704 1850 1988 2172 2308 2393 2441
0 0 8 31 67 156 315 463 573 637 706 758 792 798 794 804 822 824 898 976 1019 1078 1123 1147 1156 1186 1192 1204 1226 1245 1268 1302 1303 1291 1282 1265 1272 1267 1253 1221 1185 1174 1169 1131 1108 1070 1039 1229 1361 1402 1414 1458 1505 1525 1535 1559 1625 1719 1840 1962 2109 2272 2374
0 0 0 10 52 138 380 506 591 658 720 755 779 784 786 802 816 857 895 961 1010 1056 1118 1154 1170 1181 1201 1225 1237 1248 1269 1288 1296 1287 1252 1248 1245 1239 1231 1221 1204 1178 1154 1109 1219 1256 1205 1168 1336 1510 1533 1532 1535 1544 1567 1552 1560 1675 1771 1868 1985 2153 2281
1 0 0 1 38 136 400 567 642 696 749 782 778 789 790 809 839 860 898 966 1000 1046 1094 1138 1154 1186 1194 1234 1256 1266 1280 1273 1273 1250 1236 1219 1215 1229 1222 1218 1195 1172 1136 1089 1186 1241 1297 1324 1286 1398 1562 1624 1626 1650 1656 1623 1606 1630 1734 1839 1968 2059 2124
0 0 0 0 8 138 400 606 695 738 789 808 808 806 818 833 852 875 900 953 1006 1052 1090 1128 1156 1174 1195 1217 1254 1278 1265 1255 1247 1238 1222 1209 1214 1225 1213 1196 1167 1140 1128 1135 1205 1220 1282 1364 1387 1377 1440 1576 1667 1722 1743 1731 1703 1676 1696 1783 1966 2042 2104
0 0 0 0 2 135 394 638 754 817 851 844 839 835 853 876 904 928 942 972 1028 1050 1060 1100 1148 1172 1188 1204 1235 1251 1256 1250 1247 1235 1232 1222 1231 1211 1186 1158 1141 1142 1142 1152 1146 1159 1270 1336 1463 1528 1514 1541 1628 1687 1727 1771 1812 1748 1676 1669 1863 1974 2035
0 0 0 0 22 136 376 601 781 889 902 903 889 894 898 924 961 992 992 1010 1066 1075 1086 1092 1133 1161 1182 1201 1198 1224 1251 1264 1274 1254 1249 1248 1210 1195 1176 1166 1161 1267 1262 1248 1194 1199 1196 1197 1246 1474 1632 1686 1710 1728 1736 1764 1765 1708 1736 1766 1764 1820 1978
0 0 0 9 47 159 353 604 792 927 993 998 982 963 967 984 1010 1043 1142 1152 1190 1193 1196 1172 1187 1191 1200 1189 1187 1192 1236 1283 1354 1351 1297 1262 1258 1238 1227 1272 1333 1361 1362 1343 1290 1274 1250 1254 1232 1227 1354 1568 1739 1808 1832 1875 1721 1719 1728 1746 1789 1816 1905
0 1 18 51 108 241 362 648 850 986 1056 1079 1056 1050 1048 1065 1067 1113 1240 1307 1336 1427 1468 1424 1417 1344 1398 1373 1380 1394 1384 1402 1451 1493 1497 1394 1366 1333 1321 1332 1340 1448 1404 1359 1416 1354 1350 1339 1298 1281 1245 1224 1373 1566 1770 1912 1796 1808 1836 1840 1831 1825 1828
0 0 17 73 170 288 449 720 898 1019 1097 1153 1164 1149 1131 1119 1145 1169 1233 1344 1520 1596 1691 1677 1652 1626 1604 1596 1598 1590 1568 1546 1542 1562 1590 1590 1493 1487 1476 1469 1477 1461 1458 1459 1506 1481 1468 1437 1414 1376 1352 1303 1243 1203 1319 1506 1606 1734 1834 1903 1934 1958 1952
0 0 0 34 158 320 550 818 943 1037 1144 1208 1230 1214 1178 1182 1170 1168 1233 1387 1598 1744 1892 1909 1927 1887 1859 1845 1820 1810 1787 1760 1719 1698 1691 1688 1644 1610 1612 1614 1599 1595 1608 1611 1609 1613 1599 1565 1530 1498 1464 1409 1346 1296 1252 1196 1166 1305 1524 1700 1819 1905 1958
10 0 0 27 225 358 666 858 983 1110 1211 1244 1244 1261 1267 1284 1271 1280 1335 1400 1593 1785 1992 2117 2144 2102 2075 2074 2039 2010 1981 1946 1922 1892 1878 1839 1814 1743 1738 1745 1750 1757 1745 1753 1810 1895 1929 1929 1821 1659 1541 1497 1460 1430 1381 1322 1264 1220 1196 1330 1521 1658 1764
1517 14 6 19 106 682 802 919 1052 1158 1236 1265 1292 1295 1316 1330 1366 1388 1400 1415 1547 1759 1989 2180 2281 2286 2290 2292 2228 2203 2168 2130 2104 2094 2068 2050 1947 1920 1925 1921 1947 2033 2098 2175 2214 2257 2256 2249 2196 2103 1995 1859 1687 1560 1482 1414 1376 1345 1304 1259 1212 1380 1539
2084 1452 536 430 568 734 856 964 1083 1214 1295 1342 1346 1353 1362 1385 1434 1474 1501 1529 1576 1713 1926 2139 2309 2389 2438 2443 2423 2407 2354 2320 2298 2283 2271 2241 2120 2111 2101 2197 2256 2367 2429 2473 2507 2526 2518 2490 2461 2416 2344 2242 2138 1987 1806 1651 1489 1429 1408 1379 1341 1312 1323
2382 2330 1946 1064 894 913 943 1004 1110 1238 1296 1350 1381 1397 1418 1437 1500 1557 1586 1630 1636 1724 1944 2131 2244 2378 2477 2562 2573 2582 2564 2518 2488 2384 2241 2345 2429 2486 2552 2632 2638 2682 2704 2739 2743 2786 2801 2811 2807 2762 2704 2625 2512 2384 2260 2119 1961 1795 1606 1470 1434 1406 1382
2489 2471 2465 2434 2205 1755 1848 2078 2011 1481 1342 1393 1426 1436 1438 1546 1645 1853 1774 1800 1712 1772 1935 2141 2291 2401 2506 2594 2690 2763 2774 2743 2534 2520 2585 2669 2722 2734 2806 2831 2862 2912 2938 2951 2964 2982 2997 3009 3027 3029 3020 2971 2890 2793 2654 2496 2337 2169 1998 1780 1573 1486 1469
2484 2538 2535 2550 2609 2804 2496 2380 2223 2174 2107 2206 2228 1591 1503 1629 1743 2104 2197 2041 1949 1980 2020 2109 2267 2472 2644 2760 2834 2903 2982 2981 2952 2669 2716 2735 2799 2822 2892 2960 2981 3035 3058 3077 3097 3111 3143 3163 3176 3180 3170 3149 3130 3092 3015 2883 2724 2528 2334 2121 1897 1675 1531
2598 2600 2625 2629 2633 2595 2616 2662 2781 2904 3057 3147 3126 2299 1736 1714 2062 2407 2488 2219 2157 2344 3040 3126 2611 2401 2565 2812 2994 3086 3151 3194 3202 3159 2854 2922 2942 3000 3054 3078 3109 3153 3182 3189 3202 3227 3238 3254 3268 3280 3271 3244 3237 3214 3176 3087 2976 2838 2665 2484 2275 2146 2033
2770 2792 2818 2812 2740 2807 2953 3085 3163 3195 3218 3223 3050 2796 2586 2586 2798 2874 2778 2556 2707 3070 3406 3653 3690 3375 2594 2633 2753 3109 3316 3390 3426 3315 3183 3158 3210 3254 3289 3299 3306 3322 3306 3323 3329 3338 3362 3363 3370 3358 3351 3325 3304 3266 3215 3149 3083 3019 2917 2771 2559 2496 2444
2760 2841 2855 2829 2870 2955 3125 3308 3504 3557 3516 3306 3066 2843 2739 2666 2726 2752 2763 2863 3228 3442 3582 3689 3786 3878 3582 2975 2922 3015 3116 3202 3583 3592 3567 3481 3344 3352 3351 3383 3420 3444 3456 3457 3432 3444 3449 3460 3452 3435 3425 3401 3365 3312 3245 3180 3120 3069 3032 2951 2808 2779 2753
2752 2779 2800 2771 2810 2828 2927 3057 3253 3478 3554 3485 3306 3145 3035 3024 3105 3142 3051 3170 3498 3692 3755 3837 3910 4186 4530 4080 3280 3235 3332 3367 3387 3490 3626 3640 3616 3593 3562 3531 3510 3494 3496 3485 3500 3505 3535 3532 3515 3512 3491 3457 3416 3355 3280 3224 3168 3141 3092 3039 2999 2967 2947
2454 2604 2675 2625 2595 2615 2655 2742 2850 3046 3189 3298 3380 3340 3289 3268 3282 3354 3310 3433 3536 3529 3695 3615 3690 3802 4099 4357 4495 4034 3584 3405 3314 3274 3397 3544 3609 3637 3624 3599 3598 3589 3595 3584 3583 3577 3576 3561 3531 3534 3516 3484 3443 3396 3335 3291 3259 3239 3223 3178 3187 3166 3172
2192 2255 2379 2450 2423 2452 2493 2524 2627 2772 2891 2971 2968 2975 3159 3205 3142 3129 3145 3307 3449 3470 3570 3726 4053 3758 3728 4189 4199 4303 4207 3873 3544 3380 3309 3286 3372 3504 3572 3612 3631 3627 3627 3615 3609 3596 3577 3548 3519 3511 3507 3485 3454 3426 3383 3353 3338 3351 3377 3412 3386 3416 3445
1965 1979 1983 1999 2079 2111 2225 2141 2062 1938 1930 1926 1727 1808 2040 2305 2463 2603 2863 3193 3294 3434 3706 4185 3643 3647 3889 4172 4338 4178 4005 3938 3733 3481 3339 3250 3251 3350 3462 3554 3600 3620 3621 3601 3596 3573 3543 3518 3496 3475 3464 3450 3428 3444 3487 3490 3518 3582 3637 3664 3702 3695 3692
1832 1818 1857 1845 1747 1652 1782 1605 1465 1275 1295 1362 1549 1856 2092 2252 2386 2544 2763 2876 3140 3270 3428 3539 3602 3756 3882 4298 4484 4439 4125 3923 3888 3529 3242 3154 3186 3294 3405 3517 3568 3607 3619 3593 3608 3595 3598 3573 3537 3511 3567 3681 3787 3862 3886 3860 3877 3911 3923 3963 3994 3982 3998
1495 1533 1507 1407 1468 1454 1396 1327 1214 1157 1202 1225 1360 1600 1969 2324 2465 2564 2670 2822 3048 3265 3427 3514 3642 3770 3977 4317 4551 4450 4269 3914 3947 3532 3311 3226 3233 3278 3351 3426 3538 3609 3624 3675 3606 3622 3658 3645 3698 3803 3955 4056 4131 4104 4077 4122 4112 4105 4204 4230 4211 4220 4198
1114 1174 1463 1543 1471 1346 1314 1332 1353 1318 1226 1304 1358 1529 1795 2097 2369 2486 2550 2630 2761 2977 3294 3518 3656 3814 3986 4269 4565 4562 4401 4083 4023 3833 3685 3548 3473 3412 3433 3421 3526 3645 3703 3668 3764 3803 3829 3904 4016 4125 4183 4223 4258 4301 4354 4406 4401 4384 4358 4399 4398 4370 4335
968 1000 1002 1276 1265 1205 1106 1108 1254 1357 1319 1345 1471 1607 1854 2092 2298 2415 2451 2477 2536 2703 2920 3340 3635 3819 4014 4291 4637 4761 4518 4235 4161 4089 3984 3885 3804 3737 3668 3638 3617 3804 3913 3989 4052 4162 4202 4296 4388 4415 4420 4425 4457 4519 4606 4614 4625 4629 4551 4472 4441 4451 4399

ECMWFFLT1_con_mucape_051.txt.gz
CAPE
1066 1079 1019 950 905 855 849 912 959 954 1015 1141 1140 1077 1136 1151 1293 1420 1470 1584 1591 1713 1716 1716 1706 1622 1682 1711 1750 1846 1835 1873 1859 1777 1830 1859 1735 1971 2098 2049 2239 2506 2338 2489 2585 2836 3146 3217 3191 3230 3309 3422 3437 3518 3619 3650 3665 3618 3536 3301 3177 3272 3426
928 1003 1031 991 958 890 864 953 991 976 1075 1107 1100 1138 1094 1187 1351 1583 1561 1762 1761 1814 1778 1692 1724 1716 1715 1742 1768 1866 1875 1852 1892 1850 1854 2005 2110 2289 2118 2243 2260 2623 2702 2572 2753 2996 3175 3138 3131 3285 3354 3432 3326 3516 3496 3577 3643 3678 3474 3364 3080 3015 3037
703 903 1017 1018 967 931 982 900 1004 956 996 988 1063 1064 1082 1323 1578 1531 1638 1712 1781 1818 1799 1712 1830 1786 1744 1870 1826 1883 1868 1838 1830 1876 1841 1832 1911 1635 1914 2185 2260 2349 2430 2575 2854 2878 2886 2996 3148 3250 3332 3292 3150 3452 3516 3524 3641 3636 3698 3702 3215 2849 3042
482 705 941 1030 1056 1076 1054 1027 973 891 932 935 1006 1110 1207 1575 1550 1646 1744 1613 1749 1869 1914 1812 1838 1741 1787 1905 1890 1922 1870 1856 1854 1720 1627 1665 1778 1741 2003 2194 2179 2038 2344 2393 2439 2529 2544 2772 3069 3229 3262 3337 3380 3428 3482 3402 3469 3646 3719 3750 3264 3006 3005
406 603 824 1026 1053 1135 1140 1007 1008 956 911 885 941 1118 1190 1465 1359 1540 1570 1516 1540 1713 1752 1791 1704 1772 1899 1899 1815 1842 1880 1877 1883 1762 1737 1730 1896 1990 2058 1857 1966 1920 1993 2103 2325 2677 2760 2827 2739 2975 3207 3272 3374 3493 3550 3586 3547 3781 3798 3661 3135 2927 2822
264 568 741 969 1034 1053 1048 1057 1024 931 868 852 910 1055 1182 1253 1218 1321 1416 1623 1591 1631 1788 1813 1754 1913 1959 1896 1824 1806 1918 1960 1984 1966 1941 1913 2092 2004 1931 1900 1920 1896 1810 2064 2140 2260 2611 2598 2594 2765 2799 2895 2942 2933 3131 3410 3460 3557 3705 3447 3010 2929 2883
217 484 647 856 933 1009 1071 1054 998 977 948 890 894 1005 1074 1059 1172 1210 1308 1477 1510 1650 1684 1721 1729 1850 2125 1991 1927 2050 2065 1987 2032 1998 1922 1950 2016 1946 1920 1971 1987 1875 1850 2050 2016 2046 2244 2494 2581 2697 2747 2647 2806 2729 3008 3387 3408 3529 3701 3518 3106 2785 2830
351 537 616 706 740 897 1007 1070 1021 985 988 955 922 971 917 968 1059 1160 1276 1379 1498 1577 1671 1647 1672 1935 2078 1975 2006 2041 2065 1958 1930 1945 1912 1908 1890 1969 1944 1980 2006 2038 1996 2019 2020 2013 2025 2324 2429 2615 2676 2566 2750 2914 3016 3392 3613 3479 3578 3570 3299 2946 2667
294 586 538 554 701 808 973 1107 1094 1021 1086 1093 1047 1098 1013 1000 1097 1163 1252 1333 1447 1504 1589 1575 1650 1760 2067 2119 2178 2209 2094 1974 2021 2009 1977 1888 1884 1858 1803 1903 1984 1995 2022 1832 1791 1951 1910 2122 2156 2532 2720 2612 2673 3014 2994 3313 3362 3344 3431 3533 3553 3395 3129
299 598 710 536 552 613 848 1071 1207 1224 1255 1279 1266 1260 1092 1099 1164 1185 1260 1316 1393 1444 1543 1528 1579 1702 2075 2106 2065 2084 2144 2136 2074 1914 1911 1849 1833 1831 1768 1762 1867 1979 1924 1826 1752 1847 1923 1966 2110 2490 2868 2679 2756 2946 3003 3140 3154 3200 3319 3499 3590 3583 3535
264 761 912 613 626 694 934 1103 1271 1464 1542 1612 1550 1234 1239 1208 1220 1211 1360 1351 1390 1444 1501 1575 1652 1735 1920 1888 1889 1943 2104 2076 2010 1961 1926 1848 1820 1858 1805 1764 1774 1869 1802 1785 1749 1831 1931 2040 2141 2435 2699 2512 2626 2832 2884 2991 3073 3198 3126 3223 3356 3502 3430
177 652 1027 782 796 805 856 1351 1532 1662 1806 1767 1476 1240 1413 1465 1332 1289 1376 1427 1407 1476 1525 1581 1648 1725 1855 1823 1786 1914 1996 2084 1978 1914 1914 1868 1855 1860 1862 1807 1784 1822 1818 1778 1797 1860 1890 2086 2108 2203 2494 2484 2525 2707 2880 2951 3064 3136 3092 2942 3050 3291 3373
4 249 680 635 898 846 1191 1546 1797 1880 2000 1612 1353 1293 1430 1361 1326 1312 1552 1561 1480 1527 1552 1641 1682 1851 1794 1798 1773 1974 2023 2032 2010 2026 1925 1952 1898 1909 1925 1863 1804 1784 1829 1810 1841 1876 1910 1995 2251 2255 2332 2503 2537 2526 2737 2931 2912 3081 3129 3022 3046 3240 3407
6 29 143 607 764 1003 1261 1623 1837 1991 1986 1587 1375 1374 1353 1307 1302 1369 1635 1636 1574 1568 1622 1701 1785 1898 1946 1896 1934 2061 2047 2054 2140 2159 2104 2042 2104 2088 1988 1957 1887 1896 1872 1950 1927 1896 1949 1984 2181 2372 2290 2373 2475 2550 2628 2854 2869 2996 3103 3077 3022 3155 3244
0 0 39 184 778 1244 1312 1340 1693 1994 1830 1684 1427 1426 1406 1350 1370 1436 1744 1654 1653 1617 1709 1833 1867 1968 1941 1987 2041 2217 2215 2200 2200 2269 2282 2189 2269 2205 2124 2094 2079 2028 2021 2079 2044 1994 2027 2018 2037 2211 2252 2226 2360 2446 2505 2567 2650 2704 2886 2957 3065 3060 3021
2 0 0 6 326 696 1402 1494 1552 2018 2104 2002 1514 1561 1453 1492 1583 1599 1695 1646 1644 1748 1773 1927 2015 2107 1985 2014 2149 2332 2334 2392 2390 2445 2472 2378 2476 2468 2296 2200 2225 2168 2194 2227 2154 2155 2130 2119 2121 2098 2170 2245 2376 2472 2476 2454 2478 2457 2162 2346 2820 3040 2869
338 0 0 0 271 584 1055 1313 1591 1871 2040 1915 1711 1744 1550 1626 1619 1595 1530 1618 1690 1808 1787 1912 2138 2087 2005 2136 2244 2387 2511 2702 2610 2550 2489 2454 2470 2488 2455 2363 2310 2283 2325 2248 2242 2155 2286 2255 2188 2118 2096 2154 2256 2385 2392 2456 2430 2143 1907 1778 1814 2406 2946
1658 810 0 0 0 123 806 1174 1674 1801 1820 1682 1617 1676 1608 1809 1529 1481 1427 1614 1667 1707 1774 1953 2078 2005 2121 2106 2322 2511 2658 2507 2496 2459 2492 2511 2475 2477 2432 2369 2319 2338 2366 2289 2247 2350 2235 2260 2197 2289 2132 2107 2175 2209 2309 2408 2146 1975 1813 1674 1596 1616 2367
1808 1729 966 37 0 0 265 738 1315 1715 1570 1540 1499 1487 1554 1754 1529 1619 1572 1672 1634 1741 1813 1825 1889 1978 2214 2219 2490 2756 2626 2541 2598 2553 2524 2498 2496 2466 2458 2427 2387 2348 2300 2213 2242 2257 2362 2282 2198 2282 2251 2176 2318 2231 2213 2303 2029 1832 1694 1634 1576 1584 1668
1566 1871 1415 339 1 0 0 925 1285 1623 1616 1650 1637 1542 1528 1555 1522 1591 1544 1699 1758 1754 1854 1909 1911 2088 2302 2291 2480 2659 2664 2728 2598 2530 2541 2548 2500 2508 2468 2414 2412 2323 2235 2164 2238 2340 2367 2254 2282 2316 2424 2352 2366 2493 2372 2286 2126 1859 1669 1564 1544 1574 1595
1570 2002 2077 807 29 0 288 1377 1573 1800 1788 1663 1542 1550 1537 1545 1577 1669 1607 1768 1783 1813 2144 2109 2096 2291 2342 2520 2673 2684 2679 2688 2614 2637 2639 2627 2554 2523 2497 2438 2444 2356 2236 2147 2209 2406 2445 2332 2296 2310 2378 2313 2254 2339 2361 2213 2027 1935 1735 1592 1537 1534 1572
1480 1826 2160 1611 357 262 960 791 1386 1619 1782 1598 1569 1550 1568 1610 1595 1626 1616 1716 1730 1815 2182 2400 2381 2514 2424 2453 2387 2519 2586 2609 2707 2712 2730 2684 2609 2561 2528 2541 2572 2538 2409 2263 2212 2280 2304 2368 2270 2324 2399 2348 2293 2169 2178 2142 1690 1651 1644 1604 1563 1546 1576
1684 2017 2259 1726 838 782 1457 1352 1696 1407 1884 1545 1503 1622 1532 1510 1556 1572 1636 1633 1724 2002 2068 2090 2390 2278 2496 2542 2386 2390 2448 2454 2581 2689 2728 2726 2688 2628 2569 2605 2680 2656 2568 2452 2310 2259 2331 2397 2371 2416 2424 2450 2396 2328 2306 2257 1932 1514 1367 1339 1390 1440 1498
2032 2324 2296 1198 786 1466 1684 1584 1598 1964 1592 1710 1579 1537 1529 1581 1639 1711 1834 1768 1967 2135 2053 2220 2316 2418 2646 2365 2361 2391 2454 2538 2617 2724 2717 2780 2798 2766 2697 2667 2679 2648 2621 2544 2384 2301 2408 2456 2523 2504 2508 2453 2488 2411 2451 2374 2238 1758 1512 1376 1306 1248 1448
2188 2392 2447 1527 1092 1141 1279 1794 1653 1650 1768 1768 1598 1659 1784 1720 1720 2004 2188 2157 2226 2172 2241 2422 2364 2511 2562 2457 2447 2604 2701 2732 2756 2797 2828 2914 2870 2763 2757 2734 2762 2660 2632 2568 2498 2478 2569 2523 2554 2611 2631 2523 2468 2254 2203 2435 2298 2004 1951 1844 1723 1604 1627
2136 2397 2572 2296 1509 1438 1973 2363 2210 1740 1797 1710 1938 1934 2065 1830 2075 2159 2256 2443 2302 2319 2591 2496 2535 2584 2632 2621 2682 2897 3009 2857 2938 2906 2863 3008 2944 2819 2855 2864 2733 2780 2790 2709 2615 2652 2663 2671 2652 2696 2728 2689 2574 2376 2343 2334 2451 2314 2269 2213 2141 2043 1940
1882 2114 2386 2582 2676 2426 2066 2136 1921 1739 1630 1950 2422 1817 1928 2136 2017 2353 2810 2708 2593 2571 2536 2641 2870 3074 3091 3042 2943 3010 3017 2825 3000 3031 3068 3110 3120 2914 2844 2894 2927 2885 2945 2824 2712 2786 2908 2872 2818 2601 2808 2582 2631 2655 2659 2647 2612 2810 2575 2513 2432 2332 2230
1858 1908 1926 2270 2485 2906 2469 1793 2118 1864 1762 2816 2331 2142 2323 2484 2637 3090 3054 2648 2562 2653 2570 2926 3363 3485 3623 3646 3281 3060 3154 3216 3292 3238 3269 3317 3256 3293 3214 3180 3107 3084 3087 2912 2982 3045 3129 3137 2814 2772 2802 2836 2869 2890 2910 2921 2903 2910 2892 2860 2764 2674 2562
1919 1788 1872 2176 2261 2298 2669 3007 2794 2348 2232 2052 1983 2125 2177 2171 2859 2910 3008 2826 3002 2792 2929 3278 3290 3481 3585 3564 3372 3432 3471 3529 3533 3514 3511 3520 3463 3530 3476 3494 3411 3407 3458 3386 3318 3369 3359 3439 3306 3022 2939 3156 2993 3006 3020 3032 3047 3048 3075 3084 3036 2970 2878
2114 2067 1878 1935 1864 1970 2442 2723 2914 3043 3135 2201 2138 2287 2340 2572 3372 3328 3203 3200 3347 2938 3221 3421 3639 3807 3649 3747 3747 3854 3753 3764 3765 3792 3696 3795 3767 3706 3704 3736 3730 3710 3752 3715 3576 3574 3571 3419 3337 3043 3063 3090 3091 3099 3267 3152 3172 3168 3173 3161 3118 3087 3007
2479 2448 2409 2380 2233 2142 2098 2430 2618 2636 2729 2881 3492 3642 3116 3098 3571 3673 3489 4393 4481 4176 3907 3859 3987 4022 3921 3746 3805 3960 3820 3952 3946 3954 3986 3938 3888 3906 3945 4026 3969 3963 3952 3892 3716 3636 3536 3529 3317 3327 3196 3229 3226 3258 3305 3264 3277 3303 3264 3235 3168 3104 3023
2481 2530 2636 2655 2655 2467 2239 2190 2289 2440 2472 2559 2785 3272 4022 4124 3957 4115 4479 3991 4462 4720 4606 4566 4385 4222 3960 3857 3944 4158 4142 4331 4200 4218 4085 4124 4086 4156 4230 4102 4054 4014 4228 4007 3766 3723 3630 3756 3536 3341 3327 3327 3562 3387 3686 3608 3457 3380 3337 3294 3226 3112 3022
2445 2507 2695 2797 2728 2773 2725 2540 2363 2227 2364 2480 2603 2837 3168 3629 3766 3739 3513 3778 3964 4422 4979 5103 5046 4933 4748 4476 4170 4183 4095 4147 4020 4122 4178 4332 4267 4280 4386 4258 4244 4126 4287 4179 3935 3868 3781 3549 3491 3433 3423 3432 3674 3884 3754 3773 3720 3514 3353 3328 3267 3168 3092
2266 2413 2510 2560 2640 2917 3032 2906 2730 2554 2405 2357 2302 2498 2737 2883 3024 3273 3538 3540 3683 3964 4570 4896 5093 4975 5020 4981 4885 4728 4651 4552 4180 4266 4318 4474 4417 4375 4344 4370 4396 4443 4492 4279 4132 4148 3930 3908 3647 3522 3654 3816 3802 3917 3864 3778 3808 3692 3338 3327 3286 3240 3222
2131 2264 2398 2379 2489 2644 3050 3145 3051 2938 2838 2729 2650 2612 2592 2582 2683 2904 3516 3914 4346 4918 5181 5064 4720 4707 5254 5504 5292 5077 4827 4456 4107 4110 4253 4563 4208 4174 4291 4433 5055 4752 4694 4529 4485 4425 4512 4396 3939 3950 3921 3992 3916 3853 3985 3784 3757 3858 3371 3372 3371 3370 3366
1864 2066 2226 2266 2315 2345 2696 2984 3094 3180 3192 3095 3006 2986 2994 2958 2969 3087 3225 3364 3830 4722 5416 5064 4735 4775 4950 4941 4955 4657 4549 4364 4200 4196 3868 3456 3460 3602 3704 3816 4008 4038 4161 4139 3769 3716 3662 3616 4032 3806 3950 3892 3948 3660 3798 3894 4045 3517 3596 3608 3594 3584 3532
1836 1971 2043 2137 2095 2213 2306 2537 2767 2915 3141 3194 3251 3188 3170 3170 3212 3293 3362 3419 3416 4191 4900 4725 4852 4981 4998 5030 4950 4574 4260 4102 4343 4082 3929 3670 3554 3442 3344 3363 3480 3557 3632 3620 3662 3618 3576 3592 3563 3515 3476 3480 3881 3662 3666 3692 3740 3776 3736 3713 3747 3782 3777
1688 1758 1882 1896 1917 1962 2178 2332 2384 2574 2784 2832 2912 3016 3088 3216 3220 3149 3141 3138 3134 3627 4220 4752 4944 5074 5144 5326 5090 4303 4400 3994 3772 3854 3786 3760 3660 3638 3445 3363 3311 3331 3403 3503 3526 3507 3594 3596 3585 3552 3542 3684 3777 3919 3987 3962 3950 3963 3960 3934 3935 3926 3951

ECMWFFLT1_con_mucape_054.txt.gz
CAPE
1019 1388 1662 1920 2059 1996 2019 2096 2153 2056 2060 2132 2198 2104 2045 1957 1949 2148 2247 2569 2748 2954 2952 2813 2824 2807 2575 2563 2549 2668 2719 2750 2778 2706 2673 2629 2290 2193 2298 2080 2004 2122 1789 1708 1943 2164 2599 2678 2436 2633 2848 3188 3040 3097 3290 3421 3452 3149 2896 3141 2902 2462 2400
625 963 1340 1617 1908 2030 2041 2199 2257 2123 2136 2171 2242 2304 2096 2117 2210 2249 2413 2600 2808 2961 2997 3022 2836 2779 2592 2440 2276 2324 2569 2467 2702 2745 2680 2714 2584 2398 2462 2541 2292 2593 2435 1701 1837 2546 2690 3117 2975 2973 2822 3096 2975 3020 3287 3488 3502 3242 2635 2985 2899 2819 2792
245 638 1006 1391 1657 1870 2092 2048 2217 2186 2186 2120 2165 2182 2114 2235 2235 2393 2464 2624 2858 2922 2996 3009 2958 2772 2770 2663 2516 2509 2393 2432 2483 2405 2681 2698 2749 2342 2542 2721 2691 2598 2646 2116 2050 2651 3230 3349 3456 3094 2915 2617 2388 2805 3048 3174 3480 3271 2914 2988 2938 2644 3016
35 248 673 1252 1609 1834 2019 2059 2173 2112 2136 2087 2160 2184 2216 2369 2406 2402 2497 2599 2852 2976 3115 3042 2938 2759 2774 2744 2596 2600 2570 2466 2517 2383 2530 2654 2704 2532 2520 2838 2936 2441 2524 2456 2147 2382 2456 3054 3192 3497 3376 3006 2888 2496 2751 2730 2721 3123 3091 3189 2873 2681 3066
0 26 318 1050 1558 1774 1872 1886 2030 2131 2047 2060 2146 2242 2256 2290 2296 2395 2505 2595 2661 2820 2936 2884 2714 2680 2749 2814 2783 2873 2666 2687 2580 2507 2582 2650 2646 2804 2637 2667 2790 2448 2135 2356 2442 2758 2783 3062 2990 3374 3676 3460 3108 2973 3028 3084 2765 2974 3212 3228 3025 2633 2718
0 0 0 361 1260 1596 1818 1885 1888 1979 1941 1944 2019 2176 2231 2236 2222 2206 2376 2480 2567 2637 2789 2793 2700 2693 2708 2686 2736 2715 2820 2712 2688 2695 2786 2723 2646 2759 2789 2688 2634 2694 2166 2424 2462 2723 3089 3035 2764 2955 3184 3300 2814 2249 2525 2784 2682 2688 3025 3178 2996 2504 2293
0 0 0 1 704 1472 1777 1864 1739 1767 1856 1805 1920 2177 2152 2120 2161 2182 2232 2464 2511 2570 2485 2586 2497 2569 2785 2690 2759 2781 2928 2918 2894 3004 2829 2683 2672 2784 2818 2737 2701 2797 2528 2573 2734 2761 3082 3188 2872 2814 3079 2773 2642 2281 2304 2746 2642 2554 2848 3159 3213 2998 2926
0 1 82 246 483 1155 1566 1831 1795 1774 1798 1784 1848 2004 1987 1968 2012 2072 2274 2348 2355 2334 2404 2407 2380 2511 2755 2704 2638 2658 2878 2965 2904 2933 2836 2640 2625 2682 2785 2811 2881 2898 2814 2598 2926 2946 2993 3249 3098 2922 3092 2935 2821 2884 2792 3125 3587 2829 2727 2970 3173 3264 2841
0 19 250 374 522 704 1283 1855 1904 1748 1873 1842 1777 1917 1917 1924 1911 1970 2170 2193 2263 2179 2255 2213 2296 2418 2759 2752 2752 2795 2805 2786 2917 2944 2822 2680 2492 2555 2643 2848 2948 2814 2837 2578 2745 3030 2938 2996 2996 3147 3316 3156 3011 3297 3314 3451 3596 3355 2885 2895 3311 3510 2898
0 46 569 479 405 718 1264 1748 1966 1861 1910 1936 1893 1956 1990 1938 1978 2048 2072 2014 2041 2004 2045 2121 2278 2336 2708 2819 2806 2775 2939 2932 2800 2745 2732 2608 2541 2522 2615 2595 2686 2815 2833 2733 2532 2850 3006 2808 2880 3227 3513 3630 3397 3452 3660 3630 3629 3561 3409 3391 3340 3442 3532
0 145 800 673 619 811 1131 1397 1823 2030 1994 2182 2010 1823 2005 1995 1979 2053 1996 1925 1943 1968 2005 2148 2233 2295 2592 2793 2775 2709 2813 2870 2754 2735 2787 2638 2407 2445 2480 2314 2372 2735 2781 2724 2528 2547 2883 2952 2954 3196 3538 3710 3696 3667 3781 3823 3827 3730 3417 3268 3428 3588 3330
757 784 1518 1675 1311 1094 1082 1463 2000 2232 2263 2252 1989 1832 2045 2086 2000 1962 1890 1908 1916 1959 2074 2137 2161 2265 2519 2719 2738 2749 2758 3008 2756 2739 2830 2703 2435 2342 2341 2256 2202 2462 2795 2761 2608 2494 2577 3054 3083 3092 3487 3783 3808 3743 3846 3811 3808 3880 3726 3052 3077 3413 3369
2 226 739 1146 1464 1292 1419 1846 2192 2333 2445 2213 1969 1878 1990 2008 1976 1844 1992 2032 1896 1988 2045 2142 2234 2394 2502 2763 2688 2744 2814 2850 2720 2838 2684 2771 2512 2367 2376 2302 2156 2194 2553 2742 2652 2549 2454 2809 3231 3272 3358 3784 3813 3594 3796 3908 3770 3930 4008 3564 3015 3088 3499
8 0 99 483 901 1229 1450 1803 2252 2479 2489 2230 2047 1898 1975 2012 1933 1931 2022 2021 1966 2007 2077 2240 2322 2474 2630 2866 2800 2878 2883 2784 3042 2891 2870 2874 2934 2758 2558 2510 2315 2394 2573 2870 2788 2606 2558 2631 3090 3348 3322 3622 3699 3655 3558 3778 3892 4020 4136 3980 3326 3030 3311
609 18 17 236 892 1319 1543 1682 2497 2760 2670 2430 2158 1990 2032 2033 1934 1952 2030 2089 2040 1964 2100 2313 2362 2468 2562 2815 2981 3033 3062 3070 3092 3157 3052 3008 3197 3012 2831 2780 2750 2714 2765 2976 2933 2690 2578 2618 2770 3193 3342 3323 3562 3550 3358 3382 3644 3752 3915 3961 3738 3366 3116
424 445 243 5 640 1199 1808 1922 2756 3074 3011 2861 2228 2168 1970 2043 2134 1995 2020 2061 2022 2040 2068 2268 2409 2524 2626 2859 2990 3055 3115 3258 3257 3283 3387 3245 3339 3384 3170 3062 3097 3002 3035 3098 3072 3026 2852 2798 2756 2865 3236 3358 3446 3413 3343 3264 3290 3367 3021 3272 3716 3584 3063
1397 1701 1841 1982 900 169 1320 1766 2068 2986 3133 2958 2444 2159 2026 2096 2133 2033 1971 2036 2086 2146 2152 2280 2522 2598 2700 2917 3004 3100 3335 3364 3363 3491 3507 3508 3545 3579 3500 3420 3309 3283 3345 3350 3340 3308 3289 3141 2899 2755 2960 3198 3298 3365 3215 3108 2990 2746 2740 2705 2858 3324 3654
1850 2034 2110 2178 2460 2516 980 966 1635 2155 2916 2746 2316 2090 2015 2266 2269 2168 2020 2090 2176 2114 2074 2306 2575 2694 2866 2948 3141 3325 3496 3557 3649 3690 3750 3694 3719 3722 3674 3522 3542 3545 3582 3498 3492 3583 3422 3256 3215 3176 2877 2938 3121 3151 3100 3111 2760 2568 2508 2428 2400 2533 3194
1696 1864 2020 2372 2378 2545 2604 1624 669 1763 2202 2203 2096 1930 2028 2234 2252 2282 2156 2334 2257 2155 2177 2296 2501 2728 3064 2968 3214 3548 3712 3684 3724 3838 3889 3906 3900 3894 3781 3726 3740 3645 3640 3516 3572 3587 3602 3619 3457 3415 3213 2978 3094 2987 2984 3125 2651 2477 2365 2221 2111 2002 2135
1669 1815 2049 2228 2370 2499 2646 2733 1883 567 1798 2194 2217 1917 1938 2203 2176 2268 2174 2210 2349 2294 2330 2432 2604 2924 3108 3135 3401 3849 4026 3923 3918 3964 4038 4017 3984 3976 3900 3827 3846 3657 3538 3505 3585 3658 3666 3536 3498 3529 3571 3330 3179 3216 3136 3107 2574 2495 2322 2141 1982 1871 1800
1524 1762 1974 2186 2382 2497 2734 3075 2616 1187 577 1874 1980 1929 1962 2116 2132 2312 2218 2321 2421 2394 2602 2585 2804 3088 3226 3292 3602 4023 4100 4021 4081 4058 4098 4083 3962 3983 4002 3871 3872 3716 3535 3347 3417 3620 3636 3679 3624 3597 3623 3520 3314 3243 3094 3062 2499 2446 2341 2160 1986 1818 1685
1292 1562 1812 2114 2270 2436 2701 2920 2750 1566 285 1043 2032 1803 1894 2056 2139 2171 2165 2292 2382 2388 2531 2830 3049 3083 3335 3409 3660 4018 3972 3956 3974 4043 4075 4053 4028 4003 3968 3980 3896 3855 3560 3350 3267 3374 3500 3579 3477 3556 3618 3480 3413 3190 3199 2978 2388 2394 2316 2204 2047 1832 1678
666 852 1776 2095 2256 2469 2786 3000 2912 2013 609 494 1606 1564 1768 1986 2099 2158 2026 2064 2309 2574 2626 2762 3079 3262 3494 3439 3540 3752 3898 3886 3874 3989 4043 4054 3983 3902 3856 3852 3925 3803 3641 3402 3197 3192 3275 3440 3392 3478 3460 3472 3582 3451 3266 3248 2788 2349 2233 2159 2067 1922 1878
1093 924 1718 2031 2367 2629 2881 2666 1839 1324 648 933 1634 1534 1626 1831 2143 2114 2150 2134 2391 2510 2619 2932 3195 3319 3571 3448 3513 3678 3820 3828 3804 3892 3883 3990 3945 3884 3826 3747 3785 3732 3674 3487 3283 2987 3050 3256 3392 3388 3386 3354 3469 3372 3492 3339 3069 2574 2285 2094 1977 1905 2258
1396 1344 1786 2247 2386 2520 2664 1919 1446 1158 892 1358 1738 1324 1557 2009 2194 2166 2286 2364 2432 2644 2818 2994 3112 3277 3558 3527 3448 3711 3889 3768 3833 3841 3838 3968 3908 3764 3751 3674 3763 3686 3578 3455 3319 3048 3070 3088 3204 3366 3318 3203 3237 3065 3184 3386 3116 2726 2510 2183 1982 1848 2457
1626 1742 2062 2183 1981 2483 2806 2328 1642 1409 994 1469 1789 1407 2073 2128 2143 2371 2360 2532 2594 2690 2953 3086 3208 3266 3556 3428 3524 3805 3866 3745 3856 3791 3857 3996 3890 3842 3798 3686 3618 3672 3613 3452 3284 3224 3033 3052 3115 3281 3347 3294 3248 3224 3084 3145 3648 2844 2617 2414 2191 1961 2284
1659 1638 2050 2050 2091 2435 2305 2074 1822 1563 1521 1758 1888 1726 2068 2107 2297 2506 2803 2760 2812 2798 2988 3124 3215 3428 3700 3695 3408 3485 3717 3646 3781 3862 3961 3943 3928 3768 3588 3591 3552 3534 3592 3515 3321 3356 3367 3207 3134 3118 3321 3270 3360 3366 3315 3252 3372 3606 2886 2675 2437 2203 2114
1606 2151 1739 2157 2220 2244 2690 2149 2063 1848 1513 1689 1794 1921 2223 2465 2632 2882 3021 2806 2761 2837 2812 3051 3231 3349 3527 3614 3431 3436 3557 3607 3716 3841 3888 3912 3940 3873 3720 3660 3636 3616 3740 3498 3484 3544 3568 3523 3323 3242 3318 3367 3437 3580 3596 3432 3121 3744 3002 2747 2570 2409 2368
1595 1849 2060 2105 2300 2254 2594 2338 1812 1674 1613 1963 2096 1930 2172 2310 2770 2987 3096 2916 3099 2950 2937 3023 3246 3535 3707 3745 3436 3530 3650 3769 3805 3791 3847 3928 3944 4010 3894 3811 3725 3701 3743 3800 3638 3673 3697 3862 3790 3668 3612 3700 3758 3701 3819 3866 3881 2920 3029 2942 2771 2626 2646
1634 1640 1668 2151 1935 2247 2577 3633 3779 2176 1889 1942 2098 2148 2390 2602 3178 3548 3344 3347 3468 3096 3018 3225 3609 3902 3894 3779 3594 3589 3726 3829 3848 4030 3899 3916 3915 3946 3956 3864 3763 3823 3888 3927 3866 3832 3792 3614 3723 3666 3590 3635 3536 3589 3706 3682 4044 3521 3170 2860 2816 2860 2877
1652 1697 1722 1831 2130 2286 2430 2875 3616 3664 2058 2552 2493 2464 2800 2966 3764 3908 3812 3804 3646 3286 3445 3700 3882 4023 4066 3907 3704 3866 3978 4122 4077 4097 3920 3927 3922 3916 3982 3962 3956 3954 4022 4162 3993 3896 3888 3964 3754 3712 3720 3674 3615 3913 3767 3874 4191 4400 3855 3511 3234 3080 3111
1782 1846 1989 2087 1892 2017 2588 2427 2805 3259 3609 3650 2720 2801 3160 3271 3771 4202 4034 3942 3833 3569 3790 4046 4411 4456 4388 4267 4043 4164 4186 4287 4148 4234 4110 4065 3993 4198 4282 4160 4097 4088 4384 4126 3889 3928 3773 3956 3763 3768 3851 3988 4097 3957 4106 3852 4337 4490 4358 3934 3779 3450 3231
1576 1824 2001 2128 1970 1899 2362 2687 2445 2828 3280 3514 3734 3876 3300 3325 3714 4102 4062 4354 3976 3636 4425 4628 4899 4729 4688 4618 4434 4460 4259 4256 4245 4298 4276 4168 4084 4222 4420 4374 4380 4313 4474 4359 4175 4129 4195 4066 3884 3823 3516 4040 3896 4060 3870 4170 4302 4300 4568 4112 3980 3794 3464
1770 1944 2033 1967 2130 2179 1878 2076 2237 2829 2778 3095 3372 3808 4374 4737 4790 4638 4692 4619 3858 3661 4685 4756 4911 4723 4685 4579 4349 4477 4528 4577 4316 4302 4342 4387 4160 4251 4411 4442 4423 4526 4758 4705 4440 4532 4341 4158 3802 3801 3981 3721 3776 4065 4450 4500 4120 4217 4198 4029 4050 3857 3506
1566 1608 2104 2125 2230 2339 2238 1871 1909 2394 2411 2838 3017 3286 3944 4268 4414 4660 4980 4665 4185 4275 4757 4746 4746 4548 4638 4656 4630 4745 4713 4682 4472 4385 4545 4518 4645 4084 4515 4256 5528 4762 4762 4835 4550 4240 4585 4340 3956 4077 4345 4175 4142 4512 4528 4204 4700 4598 4134 5003 4182 6208 4053
1403 1557 2039 2068 2374 2402 2442 2209 2069 1932 2274 2688 2935 3255 3279 3516 3760 3910 4120 4730 4938 5124 5000 5030 4827 4606 4805 4594 4390 4368 4686 4466 4235 4152 4276 4634 4470 3918 3959 4044 4123 4092 4195 4352 4264 4533 4298 3846 5016 4123 4381 3984 3824 4252 4368 4444 4056 3982 3930 3925 3903 3689 3442
1438 1622 1984 1891 2309 2400 2494 2382 2220 2170 2133 2162 2570 2817 3167 3357 3635 3884 4201 4185 4430 4696 4734 5123 4864 4666 4633 4652 4398 4034 4277 4078 3994 4226 4385 4434 4617 4213 3962 3926 4030 4156 4097 4138 4184 4259 4274 4158 3980 3890 3802 5089 4171 3789 3719 3789 3886 3834 3734 3741 3531 3372 3387
1349 1530 1831 1943 2002 2214 2461 2527 2469 2305 2173 2256 2362 2373 2410 2502 2648 2956 3217 3908 4424 5038 4968 5191 4911 4381 4009 4214 4196 4218 4865 4903 4409 4418 4504 4759 4816 4447 4214 3884 3824 3964 4122 4177 4225 4317 4240 4101 3895 3964 3898 3802 3853 3783 3645 3653 3584 3458 3433 3440 3480 3499 3502

ECMWFFLT1_con_mucape_057.txt.gz
CAPE
18 268 244 681 968 766 1175 1622 1810 2484 2374 2518 2391 2013 1573 1896 1982 2155 2378 2987 3441 3657 3663 3752 3402 3250 3025 2892 2795 2811 3086 3126 3037 2689 2448 2091 1626 1753 2224 2133 1898 1425 1111 1452 1795 1363 1919 1880 1659 1758 2144 2811 2965 2874 3064 3279 3172 2900 2766 3025 2883 2474 2379
361 366 719 641 1064 1699 1454 2009 1832 2591 2569 2596 2577 2275 2054 2000 2167 2238 2502 2955 3388 3702 3809 3666 3588 3454 3380 3046 3009 3364 3288 3151 3180 3004 2685 2638 2440 2154 2188 2417 2072 1910 1604 1278 1535 1655 1780 2170 1814 2048 2172 2719 2933 3005 2966 3245 3343 3068 2607 2984 3034 3037 2698
169 358 274 1381 1004 719 924 1173 1443 2237 2624 2557 2451 2492 2296 2445 2419 2522 2681 2950 3397 3792 3673 3684 3621 3607 3492 3390 3344 3365 3217 3208 3086 3129 2868 2636 2680 2204 2216 2391 2270 1995 1756 1318 1383 1589 1673 2248 2358 2283 2419 2791 2572 2695 2928 3072 3297 3151 2802 2886 2959 2856 3064
150 298 456 1272 759 731 1120 1459 1603 2126 2562 2688 2769 2742 2486 2575 2497 2681 2731 3096 3476 3664 3770 3756 3602 3545 3522 3322 3222 3419 3383 3442 3244 3155 2826 2632 2747 2463 2185 2499 2570 2075 2148 1782 1184 1393 1466 1967 2612 2669 2763 2783 2541 2298 2683 2728 2767 3030 2868 3007 2862 2717 3152
8 191 484 508 1183 1580 1153 1331 1670 2626 2422 2464 2781 2910 2814 2662 2501 2541 2900 3088 3394 3619 3758 3641 3502 3310 3527 3448 3396 3363 3433 3277 3268 3052 3086 2645 2768 2848 2433 2337 2576 2248 2063 2295 1755 1606 1714 2136 2484 2726 2777 2730 2609 2426 2644 2734 2541 2825 2871 3034 3018 2613 2885
0 13 344 677 531 1062 1456 1404 1386 1656 2463 2458 2718 2898 2726 2677 2649 2657 2838 3040 3328 3569 3769 3690 3483 3577 3426 3462 3031 2907 2996 3102 3047 3273 2838 2743 2951 2990 2833 2582 2515 2609 1882 2419 2119 1608 1856 2163 2128 2581 2652 2728 2472 1820 2356 2700 2536 2636 2908 3020 3040 2477 2230
0 0 49 539 655 1168 1514 1445 1514 1699 2270 2394 2520 2802 2757 2550 2667 2644 2750 2950 3145 3460 3500 3582 3382 3376 3578 3168 2780 2938 3068 2870 3225 2988 2804 2760 3026 3158 3045 2793 2561 2540 1981 2382 2128 1901 1988 2386 2452 2572 2654 2506 2262 1753 2024 2707 2677 2549 2626 2975 3164 3091 2633
0 0 3 209 469 545 566 1046 1504 1222 1404 1564 2422 2596 2746 2683 2355 2715 2802 2928 3173 3220 3310 3348 3325 3376 3417 3357 2792 2862 3028 2942 3051 3145 2926 2723 3121 3143 3206 2897 2596 2678 2617 1970 2181 2101 2300 2620 2531 2406 2469 2317 2025 1999 1798 2570 2626 2402 2390 2866 3172 3212 2872
0 0 0 8 226 704 809 995 919 1052 1613 1402 1944 2582 2646 2669 2673 2708 2793 2904 3010 3156 3207 3244 3138 3177 3517 3235 3029 2917 3053 2962 3182 3198 2833 2702 2850 2811 2980 3048 2873 2688 2735 2047 2032 2290 2333 2781 2493 2497 2642 2522 2364 2408 2012 2607 2575 2492 2485 2765 2996 3137 2680
0 0 0 0 81 200 76 463 1332 1718 1806 1404 2276 2624 2711 2702 2691 2714 2844 2833 2957 2982 3072 2972 2934 3006 3424 3092 2912 2982 3208 3132 3148 2874 2618 2580 2576 2685 2576 2427 2718 2750 2786 2466 1799 2188 2506 2498 2833 2669 2929 2827 2639 2763 2546 2505 2848 2895 2594 2542 2812 3123 3186
0 0 6 0 1 18 830 605 1368 2128 1939 2871 2662 2463 2754 2706 2699 2702 2705 2751 2841 2912 2878 2928 2798 2733 3237 3130 3105 2985 3182 3060 2901 2786 2601 2500 2504 2497 2404 2094 2171 2524 2719 2599 1842 1677 2440 2731 2942 3114 3258 3022 2874 2991 3139 2964 3280 3528 3000 2605 2666 3072 3248
0 0 43 24 53 37 105 893 1996 2803 2964 3064 2446 2385 2842 2914 2732 2653 2684 2819 2780 2743 2757 2580 2484 2570 3062 3067 2928 2998 3018 2947 2681 2742 2786 2542 2364 2171 2252 1932 1683 1982 2635 2545 2102 1642 1848 2794 2902 2918 3579 3630 3280 3222 3560 3548 3604 3654 3320 2496 2504 2768 2943
2 486 2 24 127 39 788 2937 1738 2983 3875 2653 2400 2301 2660 2797 2767 2605 2760 2778 2576 2755 2662 2638 2428 2614 2921 3030 2746 2954 2842 2868 2634 2830 2685 2562 2333 2075 2050 1954 1720 1650 2198 2504 2294 1877 1647 2202 3084 2976 3597 3986 3831 3576 3701 3904 3856 3946 3728 3045 2573 2711 3017
0 0 837 1160 1394 1552 724 2594 2422 2759 2933 2590 2475 2263 2396 2635 2569 2598 2761 2801 2828 2577 2397 2560 2463 2562 2944 3074 2909 2940 2905 2809 2692 2724 2792 2738 2758 2418 2069 2079 1668 1594 1837 2414 2383 2058 1714 1757 2794 3217 3381 3997 4060 3968 4010 4102 3932 4111 4149 3680 2861 2627 3040
124 0 2 95 350 930 1424 1450 2499 3106 2844 2807 2609 2344 2244 2452 2545 2557 2614 2772 2783 2312 2573 2598 2528 2567 2874 3145 3114 3184 3186 3218 2897 2723 3035 2983 3152 2632 2326 2316 2118 2072 1977 2506 2551 2193 1885 1716 2145 3136 3387 3679 4048 4029 3811 3881 3887 3823 4030 3965 3580 2819 2694
247 244 290 165 528 536 981 1391 2106 3034 3209 3238 2699 2476 2140 2356 2625 2530 2581 2725 2524 2696 2392 2570 2557 2808 2914 3154 3226 3341 3354 3877 3490 3302 3260 3321 3629 3551 2906 2548 2525 2262 2368 2389 2617 2730 2412 2232 2019 2532 3274 3406 3763 3794 3650 3704 3748 3617 3447 3814 3853 3249 2434
173 186 173 448 1651 1276 1896 1050 1379 2588 3373 3413 3014 2577 2322 2383 2544 2538 2518 2613 2653 2638 2378 2291 2871 2924 2971 3254 3350 3448 3751 3903 3779 3842 3946 4051 3854 3732 3486 3301 2672 2767 3138 3052 2928 3243 3335 2700 2040 1962 2661 3102 3255 3492 3416 3219 3090 3182 3386 3496 3568 3672 3233
369 323 281 322 1014 1260 1917 1337 1572 1788 2629 3085 3004 2598 2400 2494 2486 2497 2395 2443 2522 2467 2103 2211 2784 2709 3209 3322 3590 4005 4010 3910 4134 4094 4076 4154 4081 3984 3887 3343 3166 3322 3154 2765 3058 3599 3149 2653 2480 2650 2346 2730 2982 3058 3211 3002 2476 2892 3187 3341 3465 3589 3725
432 387 317 242 487 1424 1914 1629 2034 2326 1763 2527 2778 2477 2229 2312 2305 2578 2514 2568 2525 2498 2365 2503 2604 3000 3456 3422 3827 4163 4256 4298 4182 4216 4204 4207 4239 4239 4010 3889 3686 3349 3094 3025 3399 3517 3683 3616 3072 2959 2716 2484 2920 2882 3002 2943 2248 2552 2950 3121 3210 3177 3282
1008 968 1028 908 1044 1385 1974 2684 2982 3289 3385 3132 2390 2559 2354 2222 2210 2525 2467 2304 2384 2508 2590 2700 2926 3216 3408 3732 4118 4298 4382 4368 4346 4431 4510 4498 4508 4493 4227 3902 3886 3502 3412 3343 3652 3860 3783 3536 3431 3340 3482 2919 2878 3375 3030 2984 2340 2437 2756 2914 2914 2878 2981
410 458 579 834 1065 1088 1283 2083 3044 3149 3236 2762 2233 1919 2564 2243 2089 2457 2500 2360 2071 2594 3332 2861 3208 3513 3564 3815 4074 4387 4526 4634 4660 4666 4740 4688 4739 4641 4389 4242 4183 3961 3754 3550 3672 4019 4127 3753 3587 3492 3514 3061 2828 3159 3124 2579 2697 2395 2509 2664 2696 2648 2479
38 54 212 507 787 1060 1366 1523 2194 2841 2985 3207 3290 2792 1581 2065 1997 1943 2307 2304 2373 2611 2696 3176 3606 3351 3638 3856 4030 4372 4484 4539 4620 4849 4966 4860 4771 4840 4783 4567 4538 4416 4043 3715 3445 3796 4089 4208 3548 3712 3755 3594 3224 2986 3050 2501 2586 2555 2563 2599 2553 2501 2344
0 68 298 440 501 776 1184 1588 1910 2621 3099 3252 3250 2967 2103 1703 2055 1885 2185 2337 2354 2741 2680 2850 3311 3399 3796 3890 3988 4250 4575 4597 4676 4815 4956 4914 4965 5061 4827 4746 4860 4560 4290 3918 3300 3344 3800 4130 3848 3872 3988 3930 3822 3326 3133 3077 2549 2518 2665 2696 2646 2461 2453
177 398 520 620 735 829 1081 1517 1802 2425 2671 3218 3040 2651 2239 1371 2129 2095 2408 2343 2408 2637 2757 2758 3017 3388 3931 3894 4027 4300 4524 4688 4717 4849 4949 5010 4995 4940 4848 4777 4686 4546 4389 4119 3495 2934 3303 3721 3805 3655 3836 3862 3970 3773 3472 3254 4368 2603 2544 2638 2618 2539 2805
332 492 620 786 1016 984 1006 1542 1953 2486 2860 2844 2850 2271 1700 1470 1855 2080 2546 2597 2377 2692 2866 2932 3126 3398 3859 3972 4076 4436 4655 4656 4674 4822 5020 5030 4924 4778 4801 4730 4803 4565 4374 3997 3736 3109 2891 3169 3298 3528 3550 3580 3822 3924 3538 3234 4410 2804 2656 2563 2519 2482 3111
421 583 648 945 1081 1215 1397 1770 2371 2564 2642 2530 2372 2148 1481 1084 1986 2486 2474 2461 2106 2596 2950 3053 3224 3565 4018 4033 4132 4605 4711 4744 4854 4939 4970 5125 5000 4765 4874 4713 4527 4494 4464 4266 3734 3234 2882 2632 2871 3209 3274 3218 3485 3844 3671 3529 3194 3014 2720 2655 2521 2417 3044
586 750 1005 1210 1342 1327 1620 1991 2315 2356 2365 2810 2558 1825 1312 960 1684 2681 3121 2882 2861 2830 3008 3156 3300 3731 4269 4269 4109 4495 4856 4644 4814 4865 4916 5088 4906 4689 4654 4512 4371 4355 4429 4076 3538 3390 3292 2618 2677 2791 2950 2958 2978 3065 3528 3385 3741 2967 2941 2886 2719 2496 2417
683 881 1192 1417 1384 1536 1761 2064 2355 2422 2420 2788 2288 1680 1316 1912 2835 3374 3801 3033 2860 3124 3042 3262 3556 3915 4262 4339 4204 4334 4604 4646 4783 4801 4865 4933 4952 4785 4541 4462 4296 4253 4321 3895 3664 3692 3634 3458 2948 2621 2716 2693 2722 2882 2938 3446 3422 3470 3153 2949 2886 2718 2463
847 1068 1146 1253 1440 1433 1759 2357 2343 2229 2855 2363 1828 1435 1328 1510 2944 3624 3735 3219 3346 3039 3292 3410 3700 4090 4410 4473 4247 4334 4566 4743 4833 4736 4868 4841 4772 4593 4588 4370 4210 4251 4359 4271 4095 3960 3771 4014 3623 3186 2996 3003 2866 2893 3415 3778 4396 3657 3229 3170 3068 2925 2723
955 1085 1219 1360 1466 1462 1906 2513 2766 2784 3300 2546 1838 1853 1881 2077 3300 3660 3294 3501 3756 3199 3420 3658 4104 4427 4487 4505 4279 4344 4645 4751 4768 4892 4802 4748 4774 4651 4594 4479 4330 4462 4495 4382 4122 3940 3966 4070 4132 3874 3312 3146 3077 3048 3011 3806 4043 3896 3435 3175 3115 3059 2917
1155 1256 1356 1405 1590 1690 2215 2829 2965 2916 3099 2690 2263 2040 2334 2194 3356 3824 3651 3694 4092 4391 3818 3982 4297 4348 4693 4468 4363 4659 4787 4814 4873 4758 4715 4796 4797 4751 4599 4576 4411 4371 4427 4538 4179 4039 4135 4298 4172 4202 3783 3391 3286 3338 3371 3572 5045 4355 3578 3481 3287 3184 3113
1296 1315 1370 1535 1646 1784 2570 2834 2553 2438 2702 3301 2255 1834 2850 2499 2864 3939 3793 3600 4135 4167 4419 4300 4514 4595 4842 4691 4507 4570 4568 4747 4769 4712 4718 4732 4733 4754 4682 4572 4315 4361 4530 4444 4140 4184 4124 4186 4047 3867 3864 3839 3919 3775 3722 3787 4003 4450 3955 3602 3476 3471 3400
1470 1398 1359 1497 1559 1839 2560 2846 2563 2820 3221 3586 3564 2406 2472 2605 2932 3581 3859 4177 3824 3685 4458 4481 4651 4778 4775 4659 4325 4525 4510 4418 4570 4603 4492 4641 4592 4724 4692 4425 4313 4338 4469 4386 4123 4200 4152 3925 3814 3782 3736 3832 3899 3917 3845 3828 3998 4037 4586 3772 3654 3613 3614
1502 1398 1375 1436 1640 1674 2080 2672 3065 3163 3617 3615 4167 4679 4388 2981 3410 3590 3946 3811 3813 3524 4274 4716 4798 4654 4800 4537 4444 4405 4540 4654 4508 4343 4189 4446 4238 4280 4267 4245 4246 4194 4322 4256 4126 3902 3938 4026 3887 3663 3736 3705 3674 3969 4121 3759 4196 4074 4280 4001 3820 3804 3802
1480 1388 1354 1332 1491 1704 1817 2247 2758 2818 3321 3686 3555 3938 4806 5150 4168 3892 3970 4028 3788 4326 4551 4741 4961 4754 4858 4487 4392 4410 4623 4649 4398 4337 4318 4164 4231 3867 3773 4910 4429 4140 4159 4127 4021 4007 4193 4079 3725 3936 3882 3934 3674 3826 3987 4526 4496 4746 4219 4926 4132 4015 4009
1446 1260 1112 1274 1444 1675 1774 1888 1983 2532 2894 3081 3663 3561 3477 4065 4762 4888 4032 4091 3906 4554 4794 5125 4988 4918 4898 4654 4611 4424 4447 4302 3989 4039 4025 4042 3725 3415 3500 3597 3697 3790 4439 4302 3955 3972 3700 3687 6012 6281 3922 3836 4397 4527 4250 4794 4883 4438 4288 4325 4254 4203 4220
1281 1148 1124 1387 1588 1773 1895 1896 1902 2244 2315 2638 2806 3134 3214 3288 3170 4117 4512 4513 4156 4304 4602 4892 4678 4529 4710 4607 4328 4033 4130 3797 3742 3997 4299 4086 3837 3420 3361 3641 3788 3689 3814 3944 3923 3815 3732 3480 3771 3895 3953 6044 4000 3633 3593 4103 4076 3997 3976 3982 4092 4158 4194
1254 1145 1220 1524 1590 1616 1716 1962 1949 2027 2061 2118 2174 2406 2614 2870 3198 3482 3840 4060 4268 4262 4806 4897 4798 4409 4290 4442 4061 4947 4831 4148 4044 4145 4447 4434 4422 3832 3528 3508 3764 3870 3865 3851 3978 3958 3744 3640 3473 3595 3638 4186 4115 3743 3646 3726 3873 4082 4198 4241 4234 4224 4171